[[{"header":{"parameterUnit":"m.s-1","parameterCategory":1,"la1":31.0,"la2":29.5877,"lo1":-88.7671,"lo2":-86.6584,"dy":0.0162,"dx":0.0185,"nx":115,"ny":88,"refTime":"2023-06-01T18:00:00:Z","depth":0,"parameterNumber":2,"parameterNumberName":"U-component_of_WINDS"},"data":[0.0,0.0,0.0,0.0,0.0,0.0,0.0,0.0,0.0,0.0,0.0,0.0,0.0,0.0,0.0,0.0,0.0,0.0,0.0,0.0,0.0,0.0,0.0,0.0,0.0,0.0,0.0,0.0,0.0,0.0,0.0,0.0,0.0,0.0,0.0,0.0,0.0,0.0,0.0,0.0,0.0,0.0,0.0,0.0,0.0,0.0,0.0,0.0,0.0,0.0,0.0,0.0,0.0,0.0,0.0,0.0,0.0,0.0,0.0,0.0,0.0,0.0,0.0,0.0,0.0,0.0,0.0,0.0,0.0,0.0,0.0,0.0,0.0,0.0,0.0,0.0,0.0,0.0,0.0,0.0,0.0,0.0,0.0,0.0,0.0,0.0,0.0,0.0,0.0,0.0,0.0,0.0,0.0,0.0,0.0,0.0,0.0,0.0,0.0,0.0,0.0,0.0,0.0,0.0,0.0,0.0,0.0,0.0,0.0,0.0,0.0,0.0,0.0,0.0,0.0,0.0,0.0,0.0,0.0,0.0,0.0,0.0,0.0,0.0,0.0,0.0,0.0,0.0,0.0,0.0,0.0,0.0,0.0,0.0,0.0,0.0,0.0,0.0,0.0,0.0,0.0,0.0,0.0,0.0,0.0,0.0,0.0,0.0,0.0,0.0,0.0,0.0,0.0,0.0,0.0,0.0,0.0,0.0,0.0,0.0,0.0,0.0,0.0,0.0,0.0,0.0,0.0,0.0,0.0,0.0,0.0,0.0,0.0,0.0,0.0,0.0,0.0,0.0,0.0,0.0,0.0,0.0,0.0,0.0,0.0,0.0,0.0,0.0,0.0,0.0,0.0,0.0,0.0,0.0,0.0,0.0,0.0,0.0,0.0,0.0,0.0,0.0,0.0,0.0,0.0,0.0,0.0,0.0,0.0,0.0,0.0,0.0,0.0,0.0,0.0,0.0,0.0,0.0,0.0,0.0,0.0,0.0,0.0,0.0,0.0,0.0,0.0,0.0,0.0,0.0,0.0,0.0,0.0,0.0,0.0,0.0,0.0,0.0,0.0,0.0,0.0,0.0,0.0,0.0,0.0,0.0,0.0,0.0,0.0,0.0,0.0,0.0,0.0,0.0,0.0,0.0,0.0,0.0,0.0,0.0,0.0,0.0,0.0,0.0,0.0,0.0,0.0,0.0,0.0,0.0,0.0,0.0,0.0,0.0,0.0,0.0,0.0,0.0,0.0,0.0,0.0,0.0,0.0,0.0,0.0,0.0,0.0,0.0,0.0,0.0,0.0,0.0,0.0,0.0,0.0,0.0,0.0,0.0,0.0,0.0,0.0,0.0,0.0,0.0,0.0,0.0,0.0,0.0,0.0,0.0,0.0,0.0,0.0,0.0,0.0,0.0,0.0,0.0,0.0,0.0,0.0,0.0,0.0,0.0,0.0,0.0,0.0,0.0,0.0,0.0,0.0,0.0,0.0,0.0,0.0,0.0,0.0,0.0,0.0,0.0,0.0,0.0,0.0,0.0,0.0,0.0,0.0,0.0,0.0,0.0,0.0,0.0,0.0,0.0,0.0,0.0,0.0,0.0,0.0,0.0,0.0,0.0,0.0,0.0,0.0,0.0,0.0,0.0,0.0,0.0,0.0,0.0,0.0,0.0,0.0,0.0,0.0,0.0,0.0,0.0,0.0,0.0,0.0,0.0,0.0,0.0,0.0,0.0,0.0,0.0,0.0,0.0,0.0,0.0,0.0,0.0,0.0,0.0,0.0,0.0,0.0,0.0,0.0,0.0,0.0,0.0,0.0,0.0,0.0,0.0,0.0,0.0,0.0,0.0,0.0,0.0,0.0,0.0,0.0,0.0,0.0,0.0,0.0,0.0,0.0,0.0,0.0,0.0,0.0,0.0,0.0,0.0,0.0,0.0,0.0,0.0,0.0,0.0,0.0,0.0,0.0,0.0,0.0,0.0,0.0,0.0,0.0,0.0,0.0,0.0,0.0,0.0,0.0,0.0,0.0,0.0,0.0,0.0,0.0,0.0,0.0,0.0,0.0,0.0,0.0,0.0,0.0,0.0,0.0,0.0,0.0,0.0,0.0,0.0,0.0,0.0,0.0,0.0,0.0,0.0,0.0,0.0,0.0,0.0,0.0,0.0,0.0,0.0,0.0,0.0,0.0,0.0,0.0,0.0,0.0,0.0,0.0,0.0,0.0,0.0,0.0,0.0,0.0,0.0,0.0,0.0,0.0,0.0,0.0,0.0,0.0,0.0,0.0,0.0,0.0,0.0,0.0,0.0,0.0,0.0,0.0,0.0,0.0,0.0,0.0,0.0,0.0,0.0,0.0,0.0,0.0,0.0,0.0,0.0,0.0,0.0,0.0,0.0,0.0,0.0,0.0,0.0,0.0,0.0,0.0,0.0,0.0,0.0,0.0,0.0,0.0,0.0,0.0,0.0,0.0,0.0,0.0,0.0,0.0,0.0,0.0,0.0,0.0,0.0,0.0,0.0,0.0,0.0,0.0,0.0,0.0,0.0,0.0,0.0,0.0,0.0,0.0,0.0,0.0,0.0,0.0,0.0,0.0,0.0,0.0,0.0,0.0,0.0,0.0,0.0,0.0,0.0,0.0,0.0,0.0,0.0,0.0,0.0,0.0,0.0,0.0,0.0,0.0,0.0,0.0,0.0,0.0,0.0,0.0,0.0,0.0,0.0,0.0,0.0,0.0,0.0,0.0,0.0,0.0,0.0,0.0,0.0,0.0,0.0,0.0,0.0,0.0,0.0,0.0,0.0,0.0,0.0,0.0,0.0,0.0,0.0,0.0,0.0,0.0,0.0,0.0,0.0,0.0,0.0,0.0,0.0,0.0,0.0,0.0,0.0,0.0,0.0,0.0,0.0,0.0,0.0,0.0,0.0,0.0,0.0,0.0,0.0,0.0,0.0,0.0,0.0,0.0,0.0,0.0,0.0,0.0,0.0,0.0,0.0,0.0,0.0,0.0,0.0,0.0,0.0,0.0,0.0,0.0,0.0,0.0,0.0,0.0,0.0,0.0,0.0,0.0,0.0,0.0,0.0,0.0,0.0,0.0,0.0,0.0,0.0,0.0,0.0,0.0,0.0,0.0,0.0,0.0,0.0,0.0,0.0,0.0,0.0,0.0,0.0,0.0,0.0,0.0,0.0,0.0,0.0,0.0,0.0,0.0,0.0,0.0,0.0,0.0,0.0,0.0,0.0,0.0,0.0,0.0,0.0,0.0,0.0,0.0,0.0,0.0,0.0,0.0,0.0,0.0,0.0,0.0,0.0,0.0,0.0,0.0,0.0,0.0,0.0,0.0,0.0,0.0,0.0,0.0,0.0,0.0,0.0,0.0,0.0,0.0,0.0,0.0,0.0,0.0,0.0,0.0,0.0,0.0,0.0,0.0,0.0,0.0,0.0,0.0,0.0,0.0,0.0,0.0,0.0,0.0,0.0,0.0,0.0,0.0,0.0,0.0,0.0,0.0,0.0,0.0,0.0,0.0,0.0,0.0,0.0,0.0,0.0,0.0,0.0,0.0,0.0,0.0,0.0,0.0,0.0,0.0,0.0,0.0,0.0,0.0,0.0,0.0,0.0,0.0,0.0,0.0,0.0,0.0,0.0,0.0,0.0,0.0,0.0,0.0,0.0,0.0,0.0,0.0,0.0,0.0,0.0,0.0,0.0,0.0,0.0,0.0,0.0,0.0,0.0,0.0,0.0,0.0,0.0,0.0,0.0,0.0,0.0,0.0,0.0,0.0,0.0,0.0,0.0,0.0,0.0,0.0,0.0,0.0,0.0,0.0,0.0,0.0,0.0,0.0,0.0,0.0,0.0,0.0,0.0,0.0,0.0,0.0,0.0,0.0,0.0,0.0,0.0,0.0,0.0,0.0,0.0,0.0,0.0,0.0,0.0,0.0,0.0,0.0,0.0,0.0,0.0,0.0,0.0,0.0,0.0,0.0,0.0,0.0,0.0,0.0,0.0,0.0,0.0,0.0,0.0,0.0,0.0,0.0,0.0,0.0,0.0,0.0,0.0,0.0,0.0,0.0,0.0,0.0,0.0,0.0,0.0,0.0,0.0,0.0,0.0,0.0,0.0,0.0,0.0,0.0,0.0,0.0,0.0,0.0,0.0,0.0,0.0,0.0,0.0,0.0,0.0,0.0,0.0,0.0,0.0,0.0,0.0,0.0,0.0,0.0,0.0,0.0,0.0,0.0,0.0,0.0,0.0,0.0,0.0,0.0,0.0,0.0,0.0,1.2298,0.0,0.0,0.0,0.0,0.0,0.0,0.0,0.0,0.0,0.0,0.0,0.0,0.0,0.0,0.0,0.0,0.0,0.0,0.0,0.0,0.0,0.0,0.0,0.0,0.0,0.0,0.0,0.0,0.0,0.0,0.0,0.0,0.0,0.0,0.0,0.0,0.0,0.0,0.0,0.0,0.0,0.0,0.0,0.0,0.0,0.0,0.0,0.0,0.0,0.0,0.0,0.0,0.0,0.0,0.0,0.0,0.0,0.0,0.0,0.0,0.0,0.0,0.0,0.0,0.0,0.0,0.0,0.0,0.0,0.0,0.0,0.0,0.0,0.0,0.0,0.0,0.0,0.0,0.0,0.0,0.0,0.0,0.0,0.0,0.0,0.0,0.0,0.0,0.0,0.0,0.0,0.0,0.0,0.0,0.0,0.0,0.0,0.0,0.0,0.0,0.0,0.0,0.0,0.0,0.0,0.0,0.0,0.0,0.0,0.0,1.1558,1.1861,1.1929,1.2077,1.2305,0.0,0.0,0.0,0.0,0.0,0.0,0.0,0.0,0.0,0.0,0.0,0.0,0.0,0.0,0.0,0.0,0.0,0.0,0.0,0.0,0.0,0.0,0.0,0.0,0.0,0.0,0.0,0.0,0.0,0.0,0.0,0.0,0.0,0.0,0.0,0.0,0.0,0.0,0.0,0.0,0.0,0.0,0.0,0.0,0.0,0.0,0.0,0.0,0.0,0.0,0.0,0.0,0.0,0.0,0.0,0.0,0.0,0.0,0.0,0.0,0.0,0.0,0.0,0.0,0.0,0.0,0.0,0.0,0.0,0.0,0.0,0.0,0.0,0.0,0.0,0.0,0.0,0.0,0.0,0.0,0.0,0.0,0.0,0.0,0.0,0.0,0.0,0.0,0.0,0.0,0.0,0.0,0.0,0.0,0.0,0.0,0.0,0.0,0.0,0.0,0.0,0.0,0.0,0.0,0.0,0.0,0.0,0.0,0.0,0.0,0.0,0.0,1.1929,1.2077,1.2224,0.0,0.0,0.0,0.0,0.0,0.0,0.0,0.0,0.0,0.0,0.0,0.0,0.0,0.0,0.0,0.0,0.0,0.0,0.0,0.0,0.0,0.0,0.0,0.0,0.0,0.0,0.0,0.0,0.0,0.0,0.0,0.0,0.0,0.0,0.0,0.0,0.0,0.0,0.0,0.0,0.0,0.0,0.0,0.0,0.0,0.0,0.0,0.0,0.0,0.0,0.0,0.0,0.0,0.0,0.0,0.0,0.0,0.0,0.0,0.0,0.0,0.0,0.0,0.0,0.0,0.0,0.0,0.0,0.0,0.0,0.0,0.0,0.0,0.0,0.0,0.0,0.0,0.0,0.0,0.0,0.0,0.0,0.0,0.0,0.0,0.0,0.0,0.0,0.0,0.0,0.0,0.0,0.0,0.0,0.0,0.0,0.0,0.0,0.0,0.0,0.0,0.0,0.0,0.0,0.0,0.0,0.0,0.0,0.0,0.0,1.1484,1.1706,1.1929,0.0,1.2009,0.0,0.0,0.0,0.0,0.0,0.0,0.0,0.0,0.0,0.0,0.0,0.0,0.0,0.0,0.0,0.0,0.0,0.0,0.0,0.0,0.0,0.0,0.0,0.0,0.0,0.0,0.0,0.0,0.0,0.0,0.0,0.0,0.0,0.0,0.0,0.0,0.0,0.0,0.0,0.0,0.0,0.0,0.0,0.0,0.0,0.0,0.0,0.0,0.0,0.0,0.0,0.0,0.0,0.0,0.0,0.0,0.0,0.0,0.0,0.0,0.0,0.0,0.0,0.0,0.0,0.0,0.0,0.0,0.0,0.0,0.0,0.0,0.0,0.0,0.0,0.0,0.0,0.0,0.0,0.0,0.0,0.0,0.0,0.0,0.0,0.0,0.0,0.0,0.0,0.0,0.0,0.0,0.0,0.0,0.0,0.0,0.0,0.0,0.0,0.0,0.0,0.0,0.0,0.0,0.0,0.0,0.0,0.0,0.0,0.0,1.1558,1.1855,1.2077,1.2077,0.0,0.0,0.0,0.0,0.0,0.0,0.0,0.0,0.0,0.0,0.0,0.0,0.0,0.0,0.0,0.0,0.0,0.0,0.0,0.0,0.0,0.0,0.0,0.0,0.0,0.0,0.0,0.0,0.0,0.0,0.0,0.0,0.0,0.0,0.0,0.0,0.0,0.0,0.0,0.0,0.0,0.0,0.0,0.0,0.0,0.0,0.0,0.0,0.0,0.0,0.0,0.0,0.0,0.0,0.0,0.0,0.0,0.0,0.0,0.0,0.0,0.0,0.0,0.0,0.0,0.0,0.0,0.0,0.0,0.0,0.0,0.0,0.0,0.0,0.0,0.0,0.0,0.0,0.0,0.0,0.0,0.0,0.0,0.0,0.0,0.0,0.0,0.0,0.0,0.0,0.0,0.0,0.0,0.0,0.0,0.0,0.0,0.0,0.0,0.0,0.0,0.0,0.0,0.0,0.0,0.0,0.0,0.0,0.0,0.0,1.1484,1.1706,1.2077,1.2231,1.2224,1.2003,0.0,0.0,0.0,0.0,0.0,0.0,0.0,0.0,0.0,0.0,0.0,0.0,0.0,0.0,0.0,0.0,0.0,0.0,0.0,0.0,0.0,0.0,0.0,0.0,0.0,0.0,0.0,0.0,0.0,0.0,0.0,0.0,0.0,0.0,0.0,0.0,0.0,0.0,0.0,0.0,0.0,0.0,0.0,0.0,0.0,0.0,0.0,0.0,0.0,0.0,0.0,0.0,0.0,0.0,0.0,0.0,0.0,0.0,0.0,0.0,0.0,0.0,0.0,0.0,0.0,0.0,0.0,0.0,0.0,0.0,0.0,0.0,0.0,0.0,0.0,0.0,0.0,0.0,0.0,0.0,0.0,0.0,0.0,0.0,0.0,0.0,0.0,0.0,0.0,0.0,0.0,0.0,0.0,0.0,0.0,0.0,0.0,0.0,0.0,0.0,0.0,0.0,0.0,0.0,0.0,0.0,0.0,0.0,1.1409,1.1774,1.2083,1.2305,1.2305,1.2224,0.0,0.0,0.0,0.0,0.0,0.0,0.0,0.0,0.0,0.0,0.0,0.0,0.0,0.0,0.0,0.0,0.0,0.0,0.0,0.0,0.0,0.0,0.0,0.0,0.0,0.0,0.0,0.0,0.0,0.0,0.0,0.0,0.0,0.0,0.0,0.0,0.0,0.0,0.0,0.0,0.0,0.0,0.0,0.0,0.0,0.0,0.0,0.0,0.0,0.0,0.0,0.0,0.0,0.0,0.0,0.0,0.0,0.0,0.0,0.0,0.0,0.0,0.0,0.0,0.0,0.0,0.0,0.0,0.0,0.0,0.0,0.0,0.0,0.0,0.0,0.0,0.0,0.0,0.0,0.0,0.0,0.0,0.0,0.0,0.0,0.0,0.0,0.0,0.0,0.0,0.0,0.0,0.0,0.0,0.0,0.0,0.0,0.0,0.0,0.0,0.0,0.0,0.0,0.0,0.0,0.0,0.0,0.0,0.0,1.1781,1.2077,1.2231,1.2305,1.2305,1.2305,0.0,0.0,0.0,0.0,0.0,0.0,0.0,0.0,0.0,0.0,0.0,0.0,0.0,0.0,0.0,0.0,0.0,0.0,0.0,0.0,0.0,0.0,0.0,0.0,0.0,0.0,0.0,0.0,0.0,0.0,0.0,0.0,0.0,0.0,0.0,0.0,0.0,0.0,0.0,0.0,0.0,0.0,0.0,0.0,0.0,0.0,0.0,0.0,0.0,0.0,0.0,0.0,0.0,0.0,0.0,0.0,0.0,0.0,0.0,0.0,0.0,0.0,0.0,0.0,0.0,0.0,0.0,0.0,0.0,0.0,0.0,0.0,0.0,0.0,0.0,0.0,0.0,0.0,0.0,0.0,0.0,0.0,0.0,0.0,0.0,0.0,0.0,0.0,0.0,0.0,0.0,0.0,0.0,0.0,0.0,0.0,0.0,0.0,0.0,0.0,0.0,0.0,0.0,0.0,0.0,0.0,0.0,0.0,0.0,1.2077,0.0,1.2305,1.2305,1.2305,1.2305,0.0,0.0,0.0,0.0,0.0,0.0,0.0,0.0,0.0,0.0,0.0,0.0,0.0,0.0,0.0,0.0,0.0,0.0,0.0,0.0,0.0,0.0,0.0,0.0,0.0,0.0,0.0,0.0,0.0,0.0,0.0,0.0,0.0,0.0,0.0,0.0,0.0,0.0,0.0,0.0,0.0,0.0,0.0,0.0,0.0,0.0,0.0,0.0,0.0,0.0,0.0,0.0,0.0,0.0,0.0,0.0,0.0,0.0,0.0,0.0,0.0,0.0,0.0,0.0,0.0,0.0,0.0,0.0,0.0,0.0,0.0,0.0,0.0,0.0,0.0,0.0,0.0,0.0,0.0,0.0,0.0,0.0,0.0,0.0,0.0,0.0,0.0,0.0,0.0,0.0,0.0,0.0,0.0,0.0,0.0,0.0,0.0,0.0,0.0,0.0,0.0,0.0,0.0,0.0,0.0,0.0,0.0,0.0,1.2083,1.2305,1.2305,1.2305,1.2305,1.2305,1.2305,0.0,0.0,0.0,0.0,0.0,0.0,0.0,0.0,0.0,0.0,0.0,0.0,0.0,0.0,0.0,0.0,0.0,0.0,0.0,0.0,0.0,0.0,0.0,0.0,0.0,0.0,0.0,0.0,0.0,0.0,0.0,0.0,0.0,0.0,0.0,0.0,0.0,0.0,0.0,0.0,0.0,0.0,0.0,0.0,0.0,0.0,0.0,0.0,0.0,0.0,0.0,0.0,0.0,0.0,0.0,0.0,0.0,0.0,0.0,0.0,0.0,0.0,0.0,0.0,0.0,0.0,0.0,0.0,0.0,0.0,0.0,0.0,0.0,0.0,0.0,0.0,0.0,0.0,0.0,0.0,0.0,0.0,0.0,0.0,0.0,0.0,0.0,0.0,0.0,0.0,0.0,0.0,0.0,0.0,0.0,0.0,0.0,0.0,0.0,0.0,0.0,0.0,0.0,0.0,0.0,0.0,0.0,0.0,0.0,1.2305,1.2305,1.2305,1.2305,1.2305,1.2305,0.0,0.0,0.0,0.0,0.0,0.0,0.0,0.0,0.0,0.0,0.0,0.0,0.0,0.0,0.0,0.0,0.0,0.0,0.0,0.0,0.0,0.0,0.0,0.0,0.0,0.0,0.0,0.0,0.0,0.0,0.0,0.0,0.0,0.0,0.0,0.0,0.0,0.0,0.0,0.0,0.0,0.0,0.0,0.0,0.0,0.0,0.0,0.0,0.0,0.0,0.0,0.0,0.0,0.0,0.0,0.0,0.0,0.0,0.0,0.0,0.0,0.0,0.0,0.0,0.0,0.0,0.0,0.0,0.0,0.0,0.0,0.0,0.0,0.0,0.0,0.0,0.0,0.0,0.0,0.0,0.0,0.0,0.0,0.0,0.0,0.0,0.0,0.0,0.0,0.0,0.0,0.0,0.0,0.0,0.0,0.0,0.0,0.0,0.0,0.0,0.0,0.0,0.0,0.0,0.0,0.0,0.0,0.0,0.0,1.2305,1.2305,1.2305,1.2305,1.2305,1.2305,1.2305,0.0,0.0,0.0,0.0,0.0,0.0,0.0,0.0,0.0,0.0,0.0,0.0,0.0,0.0,0.0,0.0,0.0,0.0,0.0,0.0,0.0,0.0,0.0,0.0,0.0,0.0,0.0,0.0,0.0,0.0,0.0,0.0,0.0,0.0,0.0,0.0,0.0,0.0,0.0,0.0,0.0,0.0,0.0,0.0,0.0,0.0,0.0,0.0,0.0,0.0,0.0,0.0,0.0,0.0,0.0,0.0,0.0,0.0,0.0,0.0,0.0,0.0,0.0,0.0,0.0,0.0,0.0,0.0,0.0,0.0,0.0,0.0,0.0,0.0,0.0,0.0,0.0,0.0,0.0,0.0,0.0,0.0,0.0,0.0,0.0,0.0,0.0,0.0,0.0,0.0,0.0,0.0,0.0,0.0,0.0,0.0,0.0,0.0,0.0,0.0,0.0,0.0,0.0,0.0,0.0,0.0,0.0,0.0,1.2305,1.2231,1.2305,1.2305,1.2305,1.2305,0.0,0.0,0.0,0.0,0.0,0.0,0.0,0.0,0.0,0.0,0.0,0.0,0.0,0.0,0.0,0.0,0.0,0.0,0.0,0.0,0.0,0.0,0.0,0.0,0.0,0.0,0.0,0.0,0.0,0.0,0.0,0.0,0.0,0.0,0.0,0.0,0.0,0.0,0.0,0.0,0.0,0.0,0.0,0.0,0.0,0.0,0.0,0.0,0.0,0.0,0.0,0.0,0.0,0.0,0.0,0.0,0.0,0.0,0.0,0.0,0.0,0.0,0.0,0.0,0.0,0.0,0.0,0.0,0.0,0.0,0.0,0.0,0.0,0.0,0.0,0.0,0.0,0.0,0.0,0.0,0.0,0.0,0.0,0.0,0.0,0.0,0.0,0.0,0.0,0.0,0.0,0.0,0.0,0.0,0.0,0.0,0.0,0.0,0.0,0.0,0.0,0.0,0.0,0.0,0.0,0.0,0.0,0.0,0.0,1.1855,1.1855,1.2003,1.2305,1.2305,1.2305,0.0,0.0,0.0,0.0,0.0,0.0,0.0,0.0,0.0,0.0,0.0,0.0,0.0,0.0,0.0,0.0,0.0,0.0,0.0,0.0,0.0,0.0,0.0,0.0,0.0,0.0,0.0,0.0,0.0,0.0,0.0,0.0,0.0,0.0,0.0,0.0,0.0,0.0,0.0,0.0,0.0,0.0,0.0,0.0,0.0,0.0,0.0,0.0,0.0,0.0,0.0,0.0,0.0,0.0,0.0,0.0,0.0,0.0,0.0,0.0,0.0,0.0,0.0,0.0,0.0,0.0,0.0,0.0,0.0,0.0,0.0,0.0,0.0,0.0,0.0,0.0,0.0,0.0,0.0,0.0,0.0,0.0,0.0,0.0,0.0,0.0,0.0,0.0,0.0,0.0,0.0,0.0,0.0,0.0,0.0,0.0,0.0,0.0,0.0,0.0,0.0,0.0,0.0,0.0,0.0,0.0,0.0,0.0,1.1335,1.1409,1.1409,1.1558,1.1781,1.1929,1.2083,0.0,0.0,0.0,0.0,0.0,0.0,0.0,0.0,0.0,0.0,0.0,0.0,0.0,0.0,0.0,0.0,0.0,0.0,0.0,0.0,0.0,0.0,0.0,0.0,0.0,0.0,0.0,0.0,0.0,0.0,0.0,0.0,0.0,0.0,0.0,0.0,0.0,0.0,0.0,0.0,0.0,0.0,0.0,0.0,0.0,0.0,0.0,0.0,0.0,0.0,0.0,0.0,0.0,0.0,0.0,0.0,0.0,0.0,0.0,0.0,0.0,0.0,0.0,0.0,0.0,0.0,0.0,0.0,0.0,0.0,0.0,0.0,0.0,0.0,0.0,0.0,0.0,0.0,0.0,0.0,0.0,0.0,0.0,0.0,0.0,0.0,0.0,0.0,0.0,0.0,0.0,0.0,0.0,0.0,0.0,0.0,0.0,0.0,0.0,0.0,0.0,0.0,0.0,0.0,0.0,0.0,0.0,0.0,1.0887,1.1043,1.1037,1.1031,1.1037,1.1409,1.1632,0.0,0.0,0.0,0.0,0.0,0.0,0.0,0.0,0.0,0.0,0.0,0.0,0.0,0.0,0.0,0.0,0.0,0.0,0.0,0.0,0.0,0.0,0.0,0.0,0.0,0.0,0.0,0.0,0.0,0.0,0.0,0.0,0.0,0.0,0.0,0.0,0.0,0.0,0.0,0.0,0.0,0.0,0.0,0.0,0.0,0.0,0.0,0.0,0.0,0.0,0.0,0.0,0.0,0.0,0.0,0.0,0.0,0.0,0.0,0.0,0.0,0.0,0.0,0.0,0.0,0.0,0.0,0.0,0.0,0.0,0.0,0.0,0.0,0.0,0.0,0.0,0.0,0.0,0.0,0.0,0.0,0.0,0.0,0.0,0.0,0.0,0.0,0.0,0.0,0.0,0.0,0.0,0.0,0.0,0.0,0.0,0.0,0.0,0.0,0.0,0.0,0.0,0.0,0.0,0.0,0.0,0.0,0.0,1.0588,1.0663,1.0669,1.0663,1.0669,1.1037,1.1329,0.0,0.0,0.0,0.0,0.0,0.0,0.0,0.0,0.0,0.0,0.0,0.0,0.0,0.0,0.0,0.0,0.0,0.0,0.0,0.0,0.0,0.0,0.0,0.0,0.0,0.0,0.0,0.0,0.0,0.0,0.0,0.0,0.0,0.0,0.0,0.0,0.0,0.0,0.0,0.0,0.0,0.0,0.0,0.0,0.0,0.0,0.0,0.0,0.999,0.0,0.0,0.0,0.0,0.0,0.0,0.0,0.0,0.0,0.0,0.0,0.0,0.0,0.0,0.0,0.0,0.0,0.0,0.0,0.0,0.0,0.0,0.0,0.0,0.0,0.0,0.0,0.0,0.0,0.0,0.0,0.0,0.0,0.0,0.0,0.0,0.0,0.0,0.0,0.0,0.0,0.0,0.0,0.0,0.0,0.0,0.0,0.0,0.0,0.0,0.0,0.0,0.0,0.0,0.0,0.0,0.0,0.0,0.0,1.0132,1.0245,1.025,1.0256,1.025,1.0401,1.0682,0.0,0.0,0.0,0.0,0.0,0.0,0.0,0.0,0.0,0.0,0.0,0.0,0.0,0.0,0.0,0.0,0.0,0.0,0.0,0.0,0.0,0.0,0.0,0.0,0.0,0.0,0.0,0.0,0.0,0.0,0.0,0.0,0.0,0.0,0.0,0.0,0.0,0.0,0.0,0.0,0.0,0.0,0.0,0.0,0.0,0.0,0.0,0.0,0.0,0.0,0.0,0.0,0.0,0.0,0.0,0.0,0.0,0.0,0.0,0.0,0.0,0.0,0.0,0.0,0.0,0.0,0.0,0.0,0.0,0.0,0.0,0.0,0.0,0.0,0.0,0.0,0.0,0.0,0.0,0.0,0.0,0.0,0.0,0.0,0.0,0.0,0.0,0.0,0.0,0.0,0.0,0.0,0.0,0.0,0.0,0.0,0.0,0.0,0.0,0.0,0.0,0.0,0.0,0.0,0.0,0.0,0.0,0.9617,0.9712,0.9897,0.9902,0.9902,0.9902,0.9902,1.0046,1.0422,0.0,0.0,0.0,0.0,0.0,0.0,0.0,0.0,0.0,0.0,0.0,0.0,0.0,0.0,0.0,0.0,0.0,0.0,0.0,0.0,0.0,0.0,0.0,0.0,0.0,0.0,0.0,0.0,0.0,0.0,0.0,0.0,0.0,0.0,0.0,0.0,0.0,0.0,0.99,1.0018,0.0,0.0,0.0,0.0,0.0,0.0,0.0,0.0,0.9262,0.0,0.0,0.0,0.0,0.0,0.0,0.0,0.0,0.0,0.0,0.0,0.0,0.0,0.0,0.0,0.0,0.0,0.0,0.0,0.0,0.0,0.0,0.0,0.0,0.0,0.0,0.0,0.0,0.0,0.0,0.0,0.0,0.0,0.0,0.0,0.0,0.0,0.0,0.0,0.0,0.0,0.0,0.0,0.0,0.0,0.0,0.0,0.0,0.0,0.0,0.0,0.0,0.0,0.0,0.0,0.0,0.9852,0.9852,0.9867,0.9902,0.9902,0.9902,0.9902,0.9902,0.9953,1.0038,0.0,0.0,0.0,0.0,0.0,0.0,0.0,0.0,0.0,0.0,0.0,0.0,0.0,0.0,0.0,0.0,0.0,0.0,0.0,0.0,0.0,0.0,0.0,0.0,0.0,0.0,0.0,0.0,0.0,0.0,0.0,0.0,0.0,0.0,0.0,0.0,0.0,0.0,0.0,0.9582,0.947,0.0,0.0,0.0,0.0,0.0,0.0,0.0,0.0,0.8744,0.0,0.0,0.0,0.0,0.0,0.0,0.0,0.0,0.0,0.0,0.0,0.0,0.0,0.0,0.0,0.0,0.0,0.0,0.0,0.0,0.0,0.0,0.0,0.0,0.0,0.0,0.0,0.0,0.0,0.0,0.0,0.0,0.0,0.0,0.0,0.0,0.0,0.0,0.0,0.0,0.0,0.0,0.0,0.0,0.0,0.0,0.0,0.0,0.0,0.0,0.0,0.0,0.0,0.0,0.0,0.94,0.9405,0.9461,0.9569,0.9573,0.9573,0.9569,0.9573,0.9573,0.0,0.0,0.0,0.0,0.0,0.0,0.0,0.0,0.0,0.0,0.0,0.0,0.0,0.0,0.0,0.0,0.0,0.0,0.0,0.0,0.0,0.0,0.0,0.0,0.0,0.0,0.0,0.0,0.0,0.0,0.0,0.0,0.0,0.0,0.0,0.0,0.0,0.0,0.0,0.0,0.9374,0.9257,0.9087,0.0,0.0,0.0,0.0,0.0,0.0,0.8656,0.8568,0.0,0.0,0.0,0.0,0.0,0.0,0.0,0.0,0.0,0.0,0.0,0.0,0.0,0.0,0.0,0.0,0.0,0.0,0.0,0.0,0.0,0.0,0.0,0.0,0.0,0.0,0.0,0.0,0.0,0.0,0.0,0.0,0.0,0.0,0.0,0.0,0.0,0.0,0.0,0.0,0.0,0.0,0.0,0.0,0.0,0.0,0.0,0.0,0.0,0.0,0.0,0.0,0.0,0.0,0.0,0.9011,0.9016,0.9095,0.9253,0.9349,0.9349,0.9349,0.9349,0.9349,0.0,0.0,0.0,0.0,0.0,0.0,0.0,0.0,0.0,0.0,0.0,0.0,0.0,0.0,0.0,0.0,0.0,0.0,0.0,0.0,0.0,0.0,0.0,0.0,0.0,0.0,0.0,0.0,0.0,0.0,0.0,0.0,0.0,0.0,0.0,0.0,0.0,0.0,0.0,0.0,0.0,0.8995,0.8736,0.8736,0.0,0.0,0.0,0.0,0.8476,0.8476,0.0,0.0,0.0,0.0,0.0,0.0,0.0,0.0,0.0,0.0,0.0,0.0,0.0,0.0,0.0,0.0,0.0,0.0,0.0,0.0,0.0,0.0,0.0,0.0,0.0,0.0,0.0,0.0,0.0,0.0,0.0,0.0,0.0,0.0,0.0,0.0,0.0,0.0,0.0,0.0,0.0,0.0,0.0,0.0,0.0,0.0,0.0,0.0,0.0,0.0,0.0,0.0,0.0,0.0,0.0,0.0,0.9226,0.9226,0.9323,0.9349,0.9349,0.9349,0.9349,0.9349,0.9349,0.0,0.0,0.0,0.0,0.0,0.0,0.0,0.0,0.0,0.0,0.0,0.0,0.0,0.0,0.0,0.0,0.0,0.0,0.0,0.0,0.0,0.0,0.0,0.0,0.0,0.0,0.0,0.0,0.0,0.0,0.0,0.0,0.0,0.0,0.0,0.0,0.0,0.0,0.0,0.0,0.0,0.8288,0.8028,0.8028,0.8032,0.0,0.0,0.8032,0.7944,0.7944,0.0,0.0,0.0,0.0,0.0,0.0,0.0,0.0,0.0,0.0,0.0,0.0,0.0,0.0,0.0,0.0,0.0,0.0,0.0,0.0,0.0,0.0,0.0,0.0,0.0,0.0,0.0,0.0,0.0,0.0,0.0,0.0,0.0,0.0,0.0,0.0,0.0,0.0,0.0,0.0,0.0,0.0,0.0,0.0,0.0,0.0,0.0,0.0,0.0,0.0,0.0,0.0,0.0,0.0,0.0,0.8915,0.8915,0.8915,0.8915,0.8915,0.8915,0.8915,0.8915,0.8915,0.8911,0.0,0.0,0.0,0.0,0.0,0.0,0.0,0.0,0.0,0.0,0.0,0.0,0.0,0.0,0.0,0.0,0.0,0.0,0.0,0.0,0.0,0.0,0.0,0.0,0.0,0.0,0.0,0.0,0.0,0.0,0.0,0.0,0.0,0.0,0.0,0.0,0.0,0.0,0.0,0.0,0.0,0.0,0.7672,0.7672,0.0,0.0,0.0,0.7411,0.7408,0.0,0.0,0.0,0.0,0.0,0.0,0.0,0.0,0.0,0.0,0.0,0.0,0.0,0.0,0.0,0.0,0.0,0.0,0.0,0.0,0.0,0.0,0.0,0.0,0.0,0.0,0.0,0.0,0.0,0.0,0.0,0.0,0.0,0.0,0.0,0.0,0.0,0.0,0.0,0.0,0.0,0.0,0.0,0.0,0.0,0.0,0.0,0.0,0.0,0.0,0.0,0.0,0.0,0.0,0.0,0.0,0.0,0.8572,0.8572,0.8572,0.8572,0.8572,0.8572,0.8572,0.8572,0.0,0.0,0.0,0.0,0.0,0.0,0.0,0.0,0.0,0.0,0.0,0.0,0.0,0.0,0.0,0.0,0.0,0.0,0.0,0.0,0.0,0.0,0.0,0.0,0.0,0.0,0.0,0.8711,0.0,0.0,0.0,0.0,0.0,0.0,0.0,0.0,0.0,0.0,0.0,0.0,0.0,0.0,0.7499,0.7224,0.7224,0.7136,0.0,0.0,0.6877,0.6874,0.6786,0.6697,0.0,0.0,0.0,0.0,0.0,0.0,0.0,0.0,0.0,0.0,0.0,0.0,0.0,0.0,0.0,0.0,0.0,0.0,0.0,0.0,0.0,0.0,0.0,0.0,0.0,0.0,0.0,0.0,0.0,0.0,0.0,0.0,0.0,0.0,0.0,0.0,0.0,0.0,0.0,0.0,0.0,0.0,0.0,0.0,0.0,0.0,0.0,0.0,0.0,0.0,0.0,0.0,0.0,0.0,0.8572,0.8572,0.8572,0.8572,0.8572,0.8572,0.8572,0.8572,0.8572,0.8572,0.0,0.0,0.0,0.0,0.0,0.0,0.0,0.0,0.0,0.0,0.0,0.0,0.0,0.0,0.0,0.0,0.0,0.0,0.0,0.0,0.0,0.0,0.0,0.0,0.0,0.0,0.0,0.0,0.0,0.0,0.0,0.0,0.0,0.0,0.0,0.0,0.0,0.0,0.0,0.0,0.0,0.6792,0.6517,0.6428,0.6428,0.0,0.6254,0.6171,0.6171,0.5991,0.5808,0.5808,0.0,0.0,0.0,0.0,0.0,0.0,0.0,0.0,0.0,0.0,0.0,0.0,0.0,0.0,0.0,0.0,0.0,0.0,0.0,0.0,0.0,0.0,0.0,0.0,0.0,0.0,0.0,0.0,0.0,0.0,0.0,0.0,0.0,0.0,0.0,0.0,0.0,0.0,0.0,0.0,0.0,0.0,0.0,0.0,0.0,0.0,0.0,0.0,0.0,0.0,0.0,0.0,0.0,0.8572,0.8572,0.8572,0.8572,0.8572,0.8572,0.8572,0.8572,0.8572,0.8572,0.0,0.0,0.0,0.0,0.0,0.0,0.0,0.0,0.0,0.0,0.0,0.0,0.0,0.0,0.0,0.0,0.0,0.0,0.0,0.0,0.0,0.0,0.0,0.0,0.0,0.0,0.0,0.0,0.8384,0.8296,0.8208,0.0,0.0,0.0,0.0,0.0,0.0,0.0,0.0,0.0,0.0,0.626,0.5813,0.5813,0.0,0.0,0.5455,0.5455,0.5455,0.5364,0.5277,0.5277,0.5277,0.0,0.0,0.0,0.0,0.0,0.0,0.0,0.0,0.0,0.0,0.0,0.0,0.0,0.0,0.0,0.0,0.0,0.0,0.0,0.0,0.0,0.0,0.0,0.0,0.0,0.0,0.0,0.0,0.0,0.0,0.0,0.0,0.0,0.0,0.0,0.0,0.0,0.0,0.0,0.0,0.0,0.0,0.0,0.0,0.0,0.0,0.0,0.0,0.0,0.0,0.0,0.0,0.8572,0.8572,0.8572,0.8572,0.8572,0.8572,0.8572,0.8572,0.8572,0.8572,0.0,0.0,0.0,0.0,0.0,0.0,0.0,0.0,0.0,0.0,0.0,0.0,0.0,0.0,0.0,0.0,0.0,0.0,0.0,0.0,0.0,0.0,0.0,0.0,0.0,0.0,0.0,0.0,0.8109,0.7937,0.7672,0.0,0.0,0.0,0.0,0.0,0.0,0.0,0.0,0.0,0.0,0.5636,0.5371,0.5282,0.5191,0.4924,0.4832,0.4743,0.4652,0.4652,0.4567,0.4565,0.0,0.0,0.0,0.0,0.0,0.0,0.0,0.0,0.0,0.0,0.0,0.0,0.0,0.0,0.0,0.0,0.0,0.0,0.0,0.0,0.0,0.0,0.0,0.0,0.0,0.0,0.0,1.0722,0.0,0.0,1.0733,0.0,0.0,0.0,0.0,0.0,0.0,0.0,0.0,0.0,0.0,0.0,0.0,0.0,0.0,0.0,0.0,0.0,0.0,0.0,0.0,0.0,0.0,0.8572,0.8572,0.8572,0.8572,0.8572,0.8572,0.8572,0.8572,0.8572,0.8572,0.8572,0.0,0.0,0.0,0.0,0.0,0.0,0.0,0.0,0.0,0.0,0.0,0.0,0.0,0.0,0.0,0.0,0.0,0.0,0.0,0.0,0.0,0.0,0.0,0.0,0.0,0.0,0.8201,0.7757,0.7401,0.0,0.0,0.0,0.0,0.0,0.0,0.0,0.0,0.0,0.546,0.5191,0.501,0.501,0.501,0.4924,0.475,0.4478,0.4208,0.4028,0.3764,0.3587,0.0,0.0,0.0,0.0,0.0,0.0,0.0,0.0,0.0,0.0,0.0,0.0,0.0,0.0,0.0,0.0,0.0,0.0,0.0,0.0,0.0,0.0,0.0,0.0,0.0,0.0,0.0,1.0212,1.0381,0.0,0.0,0.0,0.0,0.0,0.0,0.0,0.0,0.0,0.0,0.0,0.9432,0.9174,0.0,0.0,0.0,0.0,0.0,0.0,0.0,0.0,0.0,0.0,0.0,0.0,0.8572,0.8572,0.8572,0.8572,0.8572,0.8572,0.8572,0.8572,0.8572,0.8572,0.8572,0.0,0.0,0.0,0.0,0.0,0.0,0.0,0.0,0.0,0.0,0.0,0.0,0.0,0.0,0.0,0.0,0.0,0.0,0.0,0.0,0.0,0.0,0.0,0.0,0.0,0.8116,0.0,0.0,0.0,0.0,0.0,0.0,0.0,0.0,0.0,0.0,0.0,0.528,0.4746,0.4565,0.4387,0.4121,0.4034,0.4034,0.0,0.0,0.0,0.0,0.0,0.0,0.0,0.0,0.0,0.0,0.0,0.0,0.0,0.0,0.3229,0.3764,0.3855,0.3855,0.3855,0.0,0.0,0.0,0.0,0.0,0.0,0.0,0.0,0.0,0.0,0.0,0.0,0.0,0.0,1.0038,1.0207,1.0207,0.0,0.0,0.0,0.0,0.0,0.0,0.0,0.0,0.9689,0.9428,0.9174,0.8999,0.8823,0.8568,0.8572,0.8572,0.0,0.0,0.0,0.0,0.0,0.0,0.0,0.0,0.8572,0.8572,0.8572,0.8572,0.8572,0.8572,0.8572,0.8572,0.8572,0.8572,0.8572,0.8572,0.8572,0.0,0.0,0.0,0.0,0.0,0.0,0.0,0.0,0.0,0.0,0.0,0.0,0.0,0.0,0.0,0.0,0.0,0.0,0.0,0.0,0.0,0.0,0.0,0.7848,0.0,0.0,0.0,0.0,0.0,0.0,0.0,0.0,0.0,0.5013,0.4924,0.4656,0.4121,0.4032,0.3942,0.3676,0.0,0.0,0.0,0.0,0.0,0.0,0.0,0.3362,0.3386,0.3391,0.3299,0.3022,0.2842,0.257,0.2385,0.0,0.0,0.3058,0.3159,0.3083,0.3083,0.3102,0.3118,0.3116,0.3116,0.3025,0.0,0.0,0.0,0.0,1.0038,0.0,0.0,0.0,0.9951,0.9951,0.0,0.9951,0.0,0.0,0.0,0.0,1.0038,0.9951,0.0,0.0,0.9602,0.934,0.8911,0.8911,0.8828,0.8568,0.8572,0.8572,0.8572,0.8572,0.0,0.0,0.0,0.0,0.0,0.0,0.8572,0.8572,0.8572,0.8572,0.8572,0.8572,0.8572,0.8572,0.8572,0.8572,0.8572,0.8572,0.8572,0.8572,0.8572,0.0,0.0,0.0,0.0,0.0,0.0,0.0,0.0,0.0,0.0,0.0,0.0,0.0,0.0,0.0,0.0,0.0,0.0,0.0,0.0,0.8208,0.0,0.0,0.0,0.0,0.0,0.0,0.0,0.0,0.0,0.4028,0.421,0.4028,0.3849,0.3587,0.0,0.0,0.0,0.0,0.3502,0.3235,0.3233,0.3168,0.3044,0.2961,0.298,0.3038,0.0,0.0,0.2666,0.2383,0.2191,0.2193,0.219,0.2168,0.2176,0.2196,0.2223,0.2224,0.2256,0.2191,0.2193,0.228,0.2283,0.9607,0.0,0.0,0.0,0.0,0.9777,0.9689,0.9689,0.9519,0.9607,0.9689,0.9694,0.0,0.0,0.0,0.0,0.0,0.0,0.9689,0.9607,0.9257,0.8999,0.8911,0.874,0.8656,0.8568,0.8572,0.8572,0.8572,0.8572,0.8572,0.8572,0.0,0.0,0.0,0.0,0.8572,0.8572,0.8572,0.8572,0.8572,0.8572,0.8572,0.8572,0.8572,0.8572,0.8572,0.8572,0.8572,0.8572,0.8572,0.0,0.0,0.0,0.0,0.0,0.0,0.0,0.0,0.0,0.0,0.0,0.0,0.0,0.0,0.0,0.0,0.0,0.0,0.0,0.8124,0.794,0.7584,0.0,0.0,0.0,0.0,0.0,0.0,0.0,0.0,0.0,0.3494,0.3585,0.3587,0.0,0.0,0.3246,0.3202,0.3208,0.3132,0.3177,0.3091,0.0,0.2736,0.2738,0.2651,0.2478,0.248,0.2384,0.2289,0.229,0.2099,0.2005,0.2004,0.19,0.1788,0.1978,0.2176,0.2177,0.2187,0.2194,0.2194,0.2194,0.2195,0.9257,0.934,0.9607,0.9689,0.9694,0.9519,0.9432,0.9519,0.9345,0.9345,0.9519,0.9519,0.9607,0.9694,0.9689,0.0,0.0,0.0,0.9432,0.934,0.8999,0.8828,0.874,0.8656,0.8601,0.867,0.867,0.8706,0.8779,0.8779,0.8779,0.8771,0.0,0.8572,0.8572,0.8572,0.8572,0.8572,0.8572,0.8572,0.8572,0.8572,0.8572,0.8572,0.8572,0.8572,0.8572,0.8572,0.8572,0.8572,0.8572,0.8572,0.0,0.0,0.0,0.0,0.0,0.0,0.0,0.0,0.0,0.0,0.0,0.8572,0.8572,0.0,0.0,0.0,0.8572,0.8388,0.7944,0.7944,0.0,0.0,0.0,0.0,0.0,0.0,0.0,0.3537,0.3178,0.3005,0.2936,0.3033,0.3023,0.309,0.3108,0.3044,0.2895,0.0,0.2819,0.2759,0.2765,0.2676,0.2501,0.2506,0.2415,0.2339,0.2147,0.2148,0.2149,0.2051,0.1953,0.1855,0.1757,0.1757,0.1562,0.1757,0.1948,0.1935,0.1943,0.1953,0.1953,0.1953,0.1953,0.8953,0.8958,0.9218,0.9292,0.9349,0.9257,0.9257,0.9257,0.9262,0.9257,0.9257,0.9257,0.9266,0.9284,0.9284,0.0,0.9306,0.9306,0.9222,0.8958,0.8958,0.8781,0.8609,0.8613,0.869,0.8844,0.8844,0.893,0.9084,0.9092,0.9096,0.9088,0.8771,0.8609,0.8609,0.8613,0.8609,0.8609,0.8617,0.8613,0.8609,0.8609,0.8609,0.8613,0.8609,0.8613,0.8609,0.8613,0.8609,0.8609,0.8609,0.8609,0.8609,0.0,0.0,0.0,0.0,0.0,0.0,0.0,0.0,0.0,0.0,0.0,0.0,0.0,0.0,0.0,0.8572,0.0,0.7944,0.7955,0.0,0.0,0.0,0.5484,0.4773,0.4055,0.354,0.333,0.0,0.0,0.2565,0.2386,0.2373,0.2887,0.3016,0.2955,0.2577,0.2578,0.2485,0.2304,0.2206,0.2218,0.2255,0.2261,0.2173,0.2306,0.2121,0.2017,0.1916,0.1815,0.1616,0.1613,0.1616,0.1615,0.1616,0.1615,0.1612,0.1684,0.1598,0.1615,0.1612,0.1612,0.1611,0.9062,0.9062,0.9154,0.9173,0.9262,0.9087,0.8999,0.8999,0.8828,0.8828,0.8999,0.9003,0.9168,0.9486,0.9486,0.956,0.9697,0.9513,0.933,0.9238,0.915,0.9062,0.897,0.897,0.8995,0.9031,0.9031,0.9056,0.9096,0.9096,0.9096,0.9092,0.9011,0.897,0.897,0.897,0.897,0.897,0.8974,0.8974,0.897,0.897,0.897,0.897,0.897,0.897,0.8974,0.897,0.897,0.8974,0.8974,0.8974,0.8974,0.8974,0.0,0.0,0.0,0.0,0.0,0.0,0.0,0.0,0.0,0.8572,0.8572,0.0,0.8572,0.0,0.8572,0.8388,0.7948,0.7968,0.0,0.0,0.6219,0.572,0.4971,0.4225,0.3673,0.3501,0.2934,0.2558,0.257,0.2413,0.2335,0.2418,0.2399,0.2396,0.2331,0.2338,0.235,0.2381,0.2287,0.2294,0.2103,0.1907,0.1809,0.1817,0.1719,0.1718,0.1718,0.1617,0.1617,0.1617,0.1617,0.1617,0.1618,0.1635,0.1647,0.1641,0.1629,0.1617,0.1617,0.1618,0.1618,0.9096,0.9096,0.9096,0.9163,0.9161,0.907,0.898,0.898,0.8894,0.889,0.8976,0.898,0.9125,0.9313,0.9313,0.9372,0.9465,0.9372,0.9279,0.9279,0.9189,0.9096,0.9096,0.9096,0.9141,0.9214,0.9214,0.9254,0.9332,0.9332,0.9336,0.9332,0.9336,0.9332,0.9328,0.9177,0.9096,0.9096,0.9096,0.9096,0.9096,0.9096,0.9096,0.9096,0.9096,0.9096,0.9096,0.9096,0.9096,0.9096,0.9096,0.9096,0.9096,0.9096,0.9096,0.0,0.0,0.0,0.0,0.0,0.0,0.0,0.0,0.0,0.0,0.0,0.88,0.8804,0.8804,0.8619,0.8159,0.815,0.7745,0.6821,0.6418,0.5989,0.5135,0.4379,0.3825,0.357,0.2992,0.2615,0.2637,0.2368,0.2187,0.2187,0.2069,0.1965,0.2182,0.2186,0.2096,0.2016,0.2019,0.2019,0.1819,0.173,0.1637,0.1638,0.1647,0.1656,0.1656,0.1656,0.1656,0.1656,0.1656,0.1656,0.1656,0.1669,0.1681,0.1679,0.1668,0.1657,0.1656,0.1656,0.1656,0.9169,0.9161,0.9165,0.9165,0.9165,0.9169,0.9141,0.9096,0.9096,0.9096,0.9096,0.9096,0.9112,0.9129,0.9129,0.9145,0.9161,0.9165,0.9165,0.9165,0.9165,0.9165,0.9165,0.9165,0.9242,0.9384,0.9388,0.9474,0.9624,0.9624,0.9624,0.9624,0.9624,0.9624,0.9612,0.9319,0.9169,0.9165,0.9165,0.9165,0.9165,0.9165,0.9165,0.9165,0.9165,0.9165,0.9165,0.9165,0.9165,0.9165,0.9165,0.9075,0.9071,0.9071,0.9067,0.0,0.9071,0.0,0.0,0.0,0.0,0.0,0.0,0.0,0.0,0.9003,0.9003,0.9003,0.9003,0.8812,0.834,0.8265,0.7904,0.6963,0.6691,0.6127,0.5172,0.46,0.4057,0.3638,0.3052,0.2775,0.2814,0.2323,0.2021,0.2128,0.1925,0.1927,0.2034,0.2032,0.1927,0.1623,0.1626,0.1635,0.1636,0.1652,0.1667,0.167,0.1684,0.1703,0.1701,0.1701,0.1703,0.1702,0.1699,0.1701,0.1704,0.1706,0.171,0.171,0.1713,0.1712,0.1703,0.1699,0.1704,0.9527,0.9527,0.9527,0.9527,0.9527,0.9531,0.9364,0.9096,0.9096,0.9096,0.9096,0.9096,0.9173,0.9303,0.9307,0.9384,0.9522,0.9527,0.9527,0.9527,0.9527,0.9527,0.9531,0.9527,0.9543,0.9575,0.9579,0.9592,0.9624,0.9624,0.9624,0.9624,0.9624,0.9624,0.9624,0.0,0.0,0.0,0.9531,0.9527,0.9527,0.9527,0.9527,0.9527,0.9531,0.0,0.9527,0.9527,0.9527,0.9527,0.9335,0.0,0.0,0.0,0.0,0.0,0.0,0.0,0.0,0.0,0.0,0.0,0.883,0.872,0.846,0.8434,0.8434,0.8434,0.8434,0.834,0.7969,0.809,0.7876,0.7109,0.6807,0.6374,0.5577,0.498,0.4495,0.3909,0.3413,0.3016,0.2826,0.2523,0.2336,0.2368,0.2375,0.2389,0.2421,0.2083,0.1758,0.1654,0.167,0.1686,0.1688,0.1692,0.1803,0.1697,0.1699,0.1705,0.1707,0.1707,0.1705,0.1707,0.1704,0.1705,0.1706,0.1723,0.1742,0.1741,0.176,0.1763,0.1716,0.1705,0.1704,0.9624,0.9624,0.9624,0.9624,0.0,0.9624,0.9527,0.9356,0.9356,0.936,0.936,0.936,0.9409,0.949,0.949,0.9539,0.9624,0.9624,0.9673,0.9754,0.9754,0.9807,0.9892,0.9888,0.9892,0.9892,0.9892,0.9892,0.9888,0.9888,0.9892,0.9892,0.9892,0.9892,0.9892,0.9892,0.9807,0.9628,0.9624,0.9624,0.9624,0.9624,0.9624,0.9624,0.943,0.0,0.0,0.0,0.0,0.0,0.0,0.0,0.0,0.8928,0.0,0.8825,0.8825,0.8825,0.8825,0.8825,0.8726,0.8627,0.8528,0.8463,0.8494,0.8575,0.8579,0.8575,0.8579,0.8483,0.8197,0.8275,0.8024,0.7343,0.7102,0.6739,0.6037,0.5436,0.4836,0.4438,0.3965,0.3682,0.3478,0.3197,0.3013,0.2937,0.2733,0.2532,0.255,0.2328,0.2104,0.2104,0.2118,0.213,0.2132,0.2149,0.2159,0.216,0.2174,0.2185,0.2187,0.2187,0.2187,0.2186,0.2077,0.1968,0.1969,0.1872,0.1772,0.1773,0.1784,0.1787,0.1754,0.1749,0.1749,0.9721,0.9721,0.9726,0.9721,0.9721,0.9721,0.9821,0.9817,0.9788,0.0,0.0,0.9821,0.9721,0.9721,0.9721,0.9721,0.9721,0.9721,0.9799,0.9929,0.9933,1.0014,1.0156,1.016,1.016,1.016,1.016,1.016,1.016,1.016,1.016,1.016,1.016,1.016,1.0164,1.006,0.9915,0.9538,0.9626,0.9721,0.9726,0.9622,0.9606,0.9577,0.9275,0.9164,0.9137,0.8928,0.8825,0.8825,0.8726,0.8726,0.8726,0.8627,0.8627,0.8627,0.8627,0.863,0.8627,0.8627,0.8531,0.8333,0.8137,0.8137,0.8627,0.8627,0.8627,0.863,0.8627,0.8528,0.8333,0.8333,0.8137,0.7643,0.7463,0.7074,0.6469,0.5888,0.5401,0.4993,0.4644,0.4375,0.4271,0.3898,0.3626,0.3634,0.3317,0.2895,0.29,0.2791,0.2574,0.2584,0.2485,0.2586,0.2588,0.2613,0.2636,0.2528,0.2668,0.2692,0.2693,0.2693,0.2693,0.2685,0.2468,0.2353,0.2242,0.2128,0.1907,0.1907,0.1907,0.1907,0.1907,0.1907,0.1904,1.0083,1.0091,1.0087,1.0087,1.0083,1.0397,1.06,1.0793,1.042,1.0344,1.0496,1.0496,1.0294,1.0087,1.0087,1.0091,1.0087,1.0087,1.0099,1.0123,1.0123,1.0136,1.016,1.016,1.016,1.016,1.016,1.016,1.016,1.0164,1.016,1.0164,1.016,1.006,0.9743,0.9537,0.941,0.9365,0.988,1.0087,1.0087,0.988,0.9602,0.9556,0.9244,0.9075,0.8836,0.8829,0.8825,0.8825,0.8531,0.8432,0.8428,0.8244,0.8137,0.8137,0.8137,0.8137,0.8141,0.8137,0.8137,0.8038,0.8038,0.8038,0.8137,0.8137,0.8137,0.8137,0.8144,0.8137,0.8038,0.8048,0.7959,0.7662,0.7753,0.7514,0.6697,0.6575,0.6315,0.5577,0.5288,0.4982,0.4667,0.4363,0.4296,0.4234,0.4139,0.4158,0.397,0.3298,0.2746,0.2664,0.2675,0.2675,0.2777,0.2676,0.2791,0.2684,0.2799,0.2806,0.2806,0.2805,0.2806,0.2693,0.2693,0.2693,0.2581,0.2581,0.2468,0.2468,0.2468,0.2468,0.2244,0.2132,0.2131,1.0681,1.0681,1.0681,1.0677,1.0677,1.0785,1.105,1.1353,1.1163,1.1001,1.0781,1.0785,1.0785,1.0677,1.0577,1.0681,1.0677,1.0473,1.0527,1.0522,1.0416,1.0359,1.0444,1.0452,1.0448,1.0448,1.0448,1.0452,1.0234,1.0234,1.0126,1.0019,1.0019,0.9915,0.97,0.9593,0.9593,0.9585,0.9629,0.9746,0.9746,0.9533,0.9495,0.9423,0.9113,0.8973,0.89,0.8688,0.8582,0.8579,0.848,0.848,0.8484,0.8381,0.8279,0.8279,0.8279,0.8279,0.8279,0.8282,0.8279,0.8279,0.8279,0.8279,0.8275,0.813,0.8075,0.8153,0.8163,0.8197,0.8269,0.8282,0.818,0.8077,0.8037,0.7862,0.7455,0.718,0.6904,0.6381,0.6112,0.5824,0.5502,0.5222,0.5156,0.5202,0.5094,0.5,0.5031,0.4562,0.3997,0.3804,0.3698,0.3698,0.3699,0.3699,0.3699,0.3699,0.3699,0.3699,0.3699,0.3698,0.3589,0.3477,0.3254,0.3141,0.3027,0.2806,0.2693,0.2693,0.2693,0.2581,0.2468,0.2468,0.2356,1.1116,1.112,1.112,1.1225,1.133,1.133,1.1631,1.2093,1.2103,1.1903,1.1554,1.1326,1.1225,1.112,1.112,1.112,1.1125,1.091,1.089,1.1022,1.0816,1.067,1.0789,1.0802,1.0798,1.0692,1.0692,1.0476,1.0366,1.0257,1.0036,0.9816,0.9706,0.9706,0.971,0.9596,0.9596,0.9581,0.9352,0.9231,0.944,0.933,0.9319,0.9279,0.8962,0.8843,0.8808,0.8591,0.8482,0.8482,0.8482,0.8482,0.8482,0.8482,0.8482,0.8482,0.8482,0.8482,0.8482,0.8482,0.8482,0.8482,0.8482,0.8482,0.8465,0.8275,0.8187,0.8296,0.8319,0.8364,0.8445,0.8472,0.8482,0.8482,0.8414,0.822,0.8117,0.7821,0.7413,0.7105,0.6964,0.6691,0.6379,0.6107,0.5926,0.5815,0.5708,0.5594,0.5594,0.5594,0.5373,0.5039,0.4815,0.4702,0.4704,0.4704,0.4702,0.4702,0.4704,0.4702,0.459,0.4592,0.4482,0.426,0.3923,0.3698,0.3474,0.3251,0.3141,0.3253,0.3253,0.3141,0.2918,0.2806,0.2581,1.1507,1.1516,1.1607,1.1842,1.2257,1.2262,1.2596,1.3058,1.3176,1.3171,1.2906,1.2276,1.1828,1.1624,1.1611,1.1602,1.1607,1.1516,1.1516,1.1529,1.1542,1.1332,1.1017,1.1021,1.0911,1.0692,1.0472,1.0366,1.0257,0.9926,0.9812,0.9816,0.9596,0.9375,0.9379,0.9161,0.9047,0.9047,0.8913,0.9226,0.9662,0.9552,0.9374,0.923,0.8904,0.8625,0.8615,0.8482,0.8486,0.8482,0.8492,0.8486,0.8489,0.8486,0.8486,0.8489,0.8489,0.8482,0.8486,0.8482,0.8496,0.8482,0.8499,0.8499,0.8496,0.8465,0.8445,0.8469,0.8465,0.8479,0.8482,0.8499,0.8513,0.853,0.8618,0.8585,0.8383,0.8372,0.8225,0.7898,0.7671,0.7365,0.713,0.6813,0.6604,0.6383,0.6383,0.627,0.627,0.627,0.6158,0.6047,0.571,0.5371,0.5371,0.5258,0.526,0.5371,0.5371,0.526,0.526,0.515,0.4819,0.4819,0.4594,0.448,0.4369,0.4369,0.4257,0.4147,0.4145,0.4145,0.3587,0.3141,0.2806,1.255,1.2659,1.2659,1.2767,1.2881,1.2985,1.3098,1.332,1.332,1.332,1.332,1.2876,1.2767,1.2659,1.2663,1.2555,1.2332,1.2114,1.2005,1.1787,1.1678,1.1459,1.1126,1.1131,1.1021,1.0692,1.0476,1.0147,0.9923,0.9485,0.9268,0.9268,0.9158,0.9051,0.9047,0.894,0.8937,0.8937,0.8937,0.9051,0.9268,0.9158,0.913,0.8961,0.8845,0.8821,0.876,0.875,0.8754,0.8754,0.875,0.8754,0.875,0.8754,0.8754,0.8754,0.8754,0.8754,0.8754,0.875,0.875,0.8754,0.8754,0.8754,0.875,0.8754,0.8754,0.874,0.8672,0.8648,0.8733,0.8754,0.8754,0.876,0.8811,0.8736,0.8739,0.8673,0.8598,0.8377,0.8266,0.8045,0.7709,0.7601,0.7379,0.7271,0.7163,0.7051,0.7051,0.6937,0.6826,0.6824,0.6599,0.6379,0.6044,0.5933,0.5933,0.5933,0.5933,0.5933,0.5933,0.5824,0.5712,0.5487,0.5264,0.515,0.5037,0.5037,0.5039,0.4815,0.4592,0.4369,0.4145,0.3921,0.3811,1.332,1.332,1.332,1.3315,1.3423,1.3428,1.3532,1.364,1.364,1.364,1.3743,1.3748,1.3748,1.364,1.3423,1.3207,1.2989,1.2772,1.255,1.2332,1.2114,1.1787,1.1345,1.1236,1.1017,1.0692,1.0366,0.9926,0.9596,0.9158,0.8937,0.8937,0.8937,0.8937,0.8937,0.8937,0.8937,0.8937,0.8937,0.8937,0.8937,0.8937,0.8937,0.8937,0.8937,0.8937,0.8937,0.8937,0.8937,0.8937,0.8937,0.8937,0.8937,0.8937,0.8937,0.8937,0.8937,0.8937,0.8937,0.8937,0.8937,0.8937,0.8937,0.8937,0.8937,0.8937,0.8937,0.8923,0.8838,0.8825,0.8913,0.8937,0.8937,0.8937,0.8937,0.8937,0.8933,0.8937,0.8823,0.8598,0.8598,0.8488,0.8156,0.8045,0.7934,0.7937,0.7823,0.7715,0.7607,0.7382,0.7268,0.7265,0.7154,0.7043,0.6606,0.6606,0.6495,0.6606,0.6604,0.6492,0.6495,0.6495,0.6383,0.6047,0.6044,0.5933,0.571,0.5596,0.5596,0.5375,0.5041,0.4927,0.4927,0.4704,0.4592,1.332,1.332,1.3315,1.3532,1.3748,1.3748,1.3959,1.4498,1.4498,1.4606,1.4821,1.4826,1.4713,1.4498,1.3748,1.3315,1.3315,1.3207,1.3207,1.3098,1.2881,1.2555,1.2005,1.1678,1.124,1.0692,1.0143,0.9596,0.9051,0.8937,0.8937,0.8937,0.8937,0.8937,0.8937,0.8937,0.8937,0.8937,0.8937,0.8937,0.8937,0.8937,0.8937,0.8937,0.8937,0.8937,0.8937,0.8937,0.8937,0.8937,0.8937,0.8937,0.8937,0.8937,0.8937,0.8937,0.8937,0.8937,0.8937,0.8937,0.8937,0.8937,0.8937,0.8937,0.8937,0.8937,0.8937,0.8937,0.8923,0.8923,0.8933,0.8937,0.8937,0.8937,0.8937,0.8937,0.8937,0.8937,0.8937,0.8826,0.8826,0.8712,0.8488,0.8156,0.8045,0.8045,0.8045,0.7937,0.7607,0.7607,0.7382,0.7268,0.7154,0.7154,0.7154,0.7046,0.7046,0.7043,0.6935,0.7046,0.7046,0.6935,0.6826,0.6604,0.6492,0.6381,0.6272,0.6272,0.6161,0.6049,0.5824,0.571,0.5599,0.5152,0.5041,1.397,1.4067,1.4175,1.4288,1.4504,1.4498,1.4713,1.4821,1.4821,1.4934,1.5035,1.5041,1.4934,1.4821,1.4498,1.4072,1.364,1.3537,1.3423,1.3315,1.2989,1.2555,1.2005,1.1678,1.1131,1.0476,1.0033,0.9489,0.8937,0.8937,0.8937,0.8937,0.8937,0.8937,0.8937,0.8937,0.8937,0.8937,0.8937,0.8937,0.8937,0.8937,0.8937,0.8937,0.8937,0.8937,0.8937,0.8937,0.8937,0.8937,0.8937,0.8937,0.8937,0.8937,0.8937,0.8937,0.8937,0.8937,0.8937,0.8937,0.8937,0.8937,0.8937,0.8937,0.8937,0.8937,0.8937,0.8937,0.8937,0.8937,0.8937,0.8937,0.8937,0.8937,0.8937,0.8937,0.8937,0.8937,0.8937,0.8937,0.8937,0.8826,0.8712,0.8605,0.8491,0.8377,0.8156,0.7934,0.7604,0.7493,0.7379,0.7268,0.7154,0.7154,0.7154,0.7154,0.7154,0.7154,0.7154,0.7154,0.7154,0.7154,0.6935,0.6935,0.6824,0.6824,0.6715,0.6604,0.6606,0.6495,0.627,0.627,0.6158,0.5824,0.5712,1.4611,1.4713,1.4708,1.4821,1.5041,1.5041,1.5035,1.5148,1.5154,1.5256,1.525,1.5256,1.5256,1.5154,1.5148,1.4713,1.4072,1.3959,1.3856,1.3532,1.3212,1.2659,1.2114,1.1787,1.1126,1.0366,0.9816,0.9379,0.894,0.8937,0.8937,0.8937,0.8937,0.8937,0.8937,0.8937,0.8937,0.8937,0.8937,0.8937,0.8937,0.8937,0.8937,0.8937,0.8937,0.8937,0.8937,0.8937,0.8937,0.8937,0.8937,0.8937,0.8937,0.8937,0.8937,0.8937,0.8937,0.8937,0.8937,0.8937,0.8937,0.8937,0.8937,0.8937,0.8937,0.8937,0.8937,0.8937,0.8937,0.8937,0.8937,0.8823,0.8823,0.8937,0.8937,0.8937,0.8937,0.8937,0.8826,0.8712,0.8602,0.8605,0.8602,0.8602,0.8491,0.8374,0.8156,0.7937,0.7604,0.7493,0.7268,0.7265,0.7154,0.7154,0.7154,0.7154,0.7154,0.7154,0.7154,0.7154,0.7154,0.7154,0.7154,0.7154,0.7154,0.7154,0.7157,0.6935,0.6937,0.6826,0.6824,0.6712,0.6604,0.6492,0.6381,1.5035,1.5041,1.5035,1.5035,1.5041,1.5148,1.5261,1.5476,1.5476,1.5577,1.5785,1.5885,1.5684,1.5583,1.5476,1.5148,1.4606,1.4498,1.4396,1.4083,1.3537,1.2989,1.2327,1.1787,1.1021,1.0253,0.9706,0.9272,0.8937,0.8937,0.8937,0.8937,0.8937,0.8937,0.8937,0.8937,0.8937,0.8937,0.8937,0.8937,0.8937,0.8937,0.8937,0.8937,0.8937,0.8937,0.8937,0.8937,0.8937,0.8937,0.8937,0.8937,0.8937,0.8937,0.8937,0.8937,0.8937,0.8937,0.8937,0.8937,0.8937,0.8937,0.8937,0.8937,0.8937,0.8937,0.8937,0.8937,0.8826,0.8937,0.8826,0.8598,0.8598,0.8826,0.8826,0.8826,0.8826,0.8826,0.8826,0.8488,0.8266,0.8048,0.8048,0.8048,0.8048,0.8045,0.7934,0.7826,0.7604,0.7493,0.7493,0.7268,0.7154,0.7154,0.7154,0.7154,0.7154,0.7154,0.7154,0.7154,0.7154,0.7154,0.7154,0.7154,0.7154,0.7154,0.7154,0.7046,0.7157,0.7046,0.7043,0.7043,0.6935,0.6824,0.6712,1.5148,1.5369,1.5369,1.547,1.5571,1.5571,1.5678,1.5791,1.5791,1.5791,1.5885,1.5885,1.5891,1.5791,1.5791,1.5464,1.4928,1.4821,1.4504,1.3862,1.3423,1.2876,1.2114,1.1568,1.0692,0.9816,0.9265,0.9047,0.8937,0.8937,0.8937,0.8937,0.8937,0.8937,0.8937,0.8937,0.8937,0.8937,0.8937,0.8937,0.8937,0.8937,0.8937,0.8937,0.8937,0.8937,0.8937,0.8937,0.8937,0.8937,0.8937,0.8937,0.8937,0.8937,0.8937,0.8937,0.8937,0.8937,0.8937,0.8937,0.8937,0.8937,0.8937,0.8937,0.8937,0.8937,0.8937,0.8826,0.8712,0.8598,0.8598,0.8377,0.8266,0.8598,0.838,0.8269,0.838,0.8266,0.8269,0.8156,0.8042,0.8045,0.7937,0.7937,0.7937,0.7715,0.7715,0.7604,0.7379,0.7379,0.7268,0.7265,0.7154,0.7154,0.7154,0.7154,0.7154,0.7154,0.7154,0.7154,0.7154,0.7154,0.7154,0.7154,0.7154,0.7154,0.7154,0.7154,0.7154,0.7154,0.7154,0.7154,0.7154,0.7043,0.6935,1.547,1.569,1.569,1.5684,1.5885,1.5885,1.5885,1.5885,1.5885,1.5885,1.5891,1.5785,1.5791,1.5684,1.5678,1.525,1.4928,1.4821,1.439,1.364,1.3315,1.2767,1.1896,1.1017,1.0253,0.9489,0.9047,0.8937,0.8937,0.8937,0.8937,0.8937,0.8937,0.8937,0.8937,0.8937,0.8937,0.8937,0.8937,0.8937,0.8937,0.8937,0.8937,0.8937,0.8937,0.8937,0.8937,0.8937,0.8937,0.8937,0.8937,0.8937,0.8937,0.8937,0.8937,0.8937,0.8937,0.8937,0.8937,0.8937,0.8937,0.8937,0.8937,0.8937,0.8937,0.8823,0.8712,0.8709,0.8488,0.8263,0.8263,0.8045,0.7934,0.8156,0.8045,0.8048,0.8048,0.7934,0.7823,0.7823,0.7712,0.7712,0.7712,0.7712,0.7601,0.7493,0.7493,0.7382,0.7268,0.7265,0.7154,0.7154,0.7154,0.7154,0.7154,0.7154,0.7154,0.7154,0.7154,0.7154,0.7154,0.7154,0.7154,0.7154,0.7154,0.7154,0.7154,0.7154,0.7154,0.7154,0.7154,0.7154,0.7154,0.7154,0.7154,1.5891,1.5885,1.5885,1.5891,1.5885,1.5885,1.5885,1.5891,1.5891,1.5891,1.5791,1.5583,1.5482,1.5374,1.5256,1.4928,1.4606,1.4606,1.4175,1.3423,1.2985,1.2446,1.1564,1.0363,0.9592,0.9268,0.8937,0.8826,0.8716,0.8716,0.8826,0.8826,0.8716,0.8826,0.8826,0.8826,0.8826,0.8826,0.8937,0.8937,0.8937,0.8937,0.8937,0.8937,0.8937,0.8937,0.8937,0.8937,0.8937,0.8937,0.8937,0.8937,0.8937,0.8937,0.8937,0.8937,0.8937,0.8937,0.8937,0.8937,0.8937,0.8937,0.8826,0.8836,0.8856,0.8641,0.8526,0.8523,0.8187,0.8063,0.7943,0.7712,0.7604,0.7607,0.7712,0.7823,0.7934,0.7715,0.7604,0.7493,0.7379,0.7265,0.7265,0.7265,0.7265,0.7268,0.7268,0.7265,0.7265,0.7154,0.7154,0.7154,0.7154,0.7154,0.7154,0.7154,0.7154,0.7154,0.7154,0.7154,0.7154,0.7154,0.7154,0.7154,0.7154,0.7154,0.7154,0.7154,0.7154,0.7154,0.7154,0.7154,0.7154,0.7154,0.7154,1.5885,1.5885,1.5885,1.5885,1.5885,1.5885,1.5885,1.5891,1.5684,1.5583,1.5583,1.5261,1.5154,1.5148,1.5035,1.4821,1.46,1.4385,1.3959,1.3315,1.255,1.1678,1.0692,0.9699,0.9037,0.8709,0.8491,0.8269,0.8266,0.8269,0.8266,0.8266,0.8269,0.8266,0.8266,0.8488,0.8595,0.8598,0.8823,0.8937,0.894,0.883,0.8937,0.8937,0.8937,0.8937,0.8937,0.8937,0.8937,0.8937,0.8937,0.8937,0.8937,0.8937,0.8937,0.8937,0.8937,0.8937,0.8937,0.8944,0.894,0.8826,0.8739,0.8647,0.8755,0.8423,0.8307,0.8194,0.8079,0.7812,0.7741,0.749,0.7379,0.7268,0.7379,0.749,0.749,0.7376,0.7268,0.7268,0.7268,0.7154,0.7154,0.7154,0.7154,0.7154,0.7154,0.7154,0.7154,0.7154,0.7154,0.7154,0.7154,0.7154,0.7154,0.7154,0.7154,0.7154,0.7154,0.7154,0.7154,0.7154,0.7154,0.7154,0.7154,0.7154,0.7154,0.7154,0.7154,0.7154,0.7154,0.7154,0.7154,0.7154,0.7154,1.5885,1.5885,1.5885,1.5791,1.5791,1.5684,1.5678,1.5464,1.5363,1.5267,1.5261,1.4928,1.4826,1.4826,1.4606,1.439,1.4175,1.3959,1.3527,1.2767,1.1787,1.0911,1.0033,0.9254,0.8813,0.8484,0.8152,0.8045,0.8045,0.8048,0.8048,0.8048,0.8048,0.8048,0.8045,0.8152,0.8263,0.8266,0.8488,0.8491,0.8494,0.8494,0.8491,0.8602,0.8602,0.8712,0.8826,0.8937,0.8937,0.8937,0.8937,0.8937,0.8937,0.8937,0.8937,0.8937,0.8823,0.8712,0.8725,0.8654,0.8584,0.8601,0.8511,0.848,0.8546,0.8335,0.8102,0.8102,0.7826,0.7531,0.7469,0.7299,0.7271,0.7265,0.7154,0.7154,0.7154,0.7265,0.7154,0.7154,0.7154,0.7154,0.7154,0.7154,0.7154,0.7154,0.7154,0.7154,0.7154,0.7154,0.7154,0.7154,0.7154,0.7154,0.7154,0.7154,0.7154,0.7154,0.7154,0.7154,0.7154,0.7154,0.7154,0.7154,0.7154,0.7154,0.7154,0.7154,0.7154,0.7154,0.7154,0.7154,0.7154,0.7154,0.7154,1.5779,1.5779,1.5779,1.5684,1.5482,1.5476,1.5261,1.5041,1.5041,1.4928,1.4821,1.4606,1.439,1.439,1.3964,1.364,1.364,1.3315,1.2767,1.2005,1.1021,1.0143,0.9588,0.9037,0.8595,0.8266,0.8045,0.7931,0.7823,0.7823,0.7934,0.7823,0.7823,0.7934,0.782,0.7934,0.7934,0.7934,0.8045,0.8156,0.8159,0.8159,0.8159,0.8156,0.8266,0.8488,0.8712,0.8716,0.8716,0.883,0.8826,0.8826,0.8826,0.8826,0.8846,0.8752,0.8647,0.8536,0.8444,0.8335,0.8271,0.8286,0.8378,0.835,0.835,0.8119,0.8002,0.7886,0.7552,0.7385,0.7307,0.7225,0.7165,0.7154,0.7154,0.7154,0.7154,0.7154,0.7154,0.7154,0.7154,0.7154,0.7154,0.7154,0.7154,0.7154,0.7154,0.7154,0.7154,0.7154,0.7154,0.7154,0.7154,0.7154,0.7154,0.7154,0.7154,0.7154,0.7154,0.7154,0.7154,0.7154,0.7154,0.7154,0.7154,0.7154,0.7154,0.7154,0.7154,0.7154,0.7154,0.7154,0.7154,0.7154,0.7154,1.5143,1.5148,1.5143,1.5143,1.5148,1.5143,1.5041,1.4934,1.4713,1.4606,1.439,1.4072,1.3748,1.3527,1.3423,1.3315,1.2989,1.2663,1.2114,1.1021,1.0582,0.9809,0.9147,0.8484,0.8045,0.7826,0.749,0.7376,0.7376,0.7376,0.7376,0.7376,0.7487,0.7376,0.7376,0.7604,0.7718,0.7718,0.7826,0.7934,0.7934,0.7934,0.7934,0.7934,0.8045,0.8156,0.8156,0.8156,0.8159,0.8266,0.8383,0.8507,0.8282,0.8282,0.8332,0.8411,0.8323,0.8363,0.8341,0.8375,0.8405,0.8302,0.8224,0.8146,0.8129,0.7898,0.7779,0.7779,0.7633,0.7508,0.7339,0.7222,0.7168,0.7154,0.7154,0.7154,0.7154,0.7154,0.7154,0.7154,0.7154,0.7154,0.7154,0.7154,0.7154,0.7154,0.7154,0.7154,0.7154,0.7154,0.7154,0.7154,0.7154,0.7154,0.7154,0.7154,0.7154,0.7154,0.7154,0.7154,0.7154,0.7154,0.7154,0.7154,0.7154,0.7154,0.7046,0.7046,0.7046,0.7157,0.7154,0.7157,0.7046,0.7157,0.7154,1.5041,1.5041,1.5041,1.4928,1.4821,1.4821,1.4606,1.439,1.4283,1.4067,1.3743,1.3423,1.3207,1.3098,1.2772,1.2555,1.2332,1.1891,1.124,1.0472,0.9919,0.9258,0.8702,0.8152,0.7715,0.7496,0.7379,0.7265,0.7154,0.7154,0.7265,0.7154,0.7154,0.7265,0.7154,0.7379,0.7382,0.7382,0.749,0.7598,0.7598,0.7598,0.7712,0.7823,0.7826,0.7826,0.7934,0.8048,0.7934,0.7949,0.7988,0.8136,0.8139,0.8146,0.821,0.8196,0.8111,0.8138,0.8206,0.8154,0.8075,0.8078,0.8002,0.7948,0.8004,0.79,0.7782,0.7755,0.7665,0.7513,0.7285,0.7209,0.716,0.7154,0.7154,0.7154,0.7154,0.7154,0.7154,0.7154,0.7154,0.7154,0.7154,0.7154,0.7154,0.7154,0.7154,0.7154,0.7154,0.7154,0.7154,0.7154,0.7154,0.7154,0.7154,0.7154,0.7154,0.7154,0.7154,0.7154,0.7154,0.7154,0.7043,0.7043,0.7046,0.6935,0.6937,0.6937,0.6826,0.6715,0.6715,0.6826,0.6937,0.6937,0.7046,1.4826,1.4821,1.4719,1.4606,1.439,1.439,1.4067,1.3753,1.364,1.3423,1.3093,1.2881,1.2659,1.2441,1.2005,1.1782,1.1564,1.1017,1.0363,0.9919,0.9364,0.8813,0.8263,0.7826,0.7604,0.7493,0.7268,0.7154,0.7154,0.7154,0.7154,0.7154,0.7154,0.7154,0.7154,0.7154,0.7268,0.7268,0.7265,0.7265,0.7265,0.7265,0.7379,0.7493,0.7493,0.7604,0.7712,0.7823,0.7712,0.7502,0.7607,0.7789,0.8049,0.8061,0.8111,0.8227,0.8011,0.804,0.7971,0.7912,0.7725,0.7731,0.7801,0.7856,0.7861,0.7856,0.7853,0.7785,0.7676,0.7448,0.7217,0.7165,0.716,0.7154,0.7154,0.7154,0.7154,0.7154,0.7154,0.7154,0.7154,0.7154,0.7154,0.7154,0.7154,0.7154,0.7154,0.7154,0.7154,0.7154,0.7154,0.7154,0.7154,0.7154,0.7154,0.7154,0.7154,0.7154,0.7154,0.7154,0.7154,0.6935,0.6824,0.6935,0.6935,0.6715,0.6604,0.6606,0.6495,0.6272,0.6383,0.6495,0.6606,0.6606,0.6826,1.397,1.3862,1.364,1.3532,1.3532,1.3532,1.3423,1.332,1.3098,1.2876,1.255,1.2005,1.1678,1.1345,1.1126,1.0802,1.0472,1.0029,0.9699,0.9254,0.8813,0.8484,0.7937,0.7718,0.7493,0.7268,0.7154,0.7154,0.7154,0.7154,0.7154,0.7154,0.7154,0.7154,0.7154,0.7154,0.7154,0.7154,0.7154,0.7154,0.7154,0.7154,0.7265,0.7268,0.7268,0.7379,0.7379,0.7379,0.7268,0.7279,0.7387,0.7495,0.769,0.7718,0.7794,0.7875,0.7906,0.7815,0.7886,0.7933,0.7839,0.7845,0.7858,0.7869,0.7872,0.7867,0.7856,0.7782,0.7644,0.7448,0.7323,0.7206,0.716,0.7154,0.7154,0.7154,0.7154,0.7154,0.7154,0.7154,0.7154,0.7154,0.7154,0.7154,0.7154,0.7154,0.7154,0.7154,0.7154,0.7154,0.7154,0.7154,0.7154,0.7154,0.7154,0.7154,0.7154,0.7157,0.7046,0.6932,0.6935,0.6824,0.6712,0.6601,0.6492,0.6381,0.6383,0.6274,0.6163,0.6051,0.6163,0.6274,0.6272,0.6381,0.6383,1.3423,1.332,1.3093,1.2989,1.2881,1.2876,1.2772,1.2555,1.2332,1.2005,1.1673,1.1236,1.0802,1.0582,1.0143,0.9812,0.9372,0.9258,0.8816,0.8484,0.8266,0.8048,0.7607,0.7493,0.7379,0.7268,0.7154,0.7154,0.7154,0.7154,0.7154,0.7154,0.7154,0.7154,0.7154,0.7154,0.7154,0.7154,0.7154,0.7154,0.7154,0.7154,0.7154,0.7154,0.7154,0.7154,0.7154,0.7154,0.7154,0.719,0.7331,0.7442,0.7529,0.763,0.7722,0.7771,0.7785,0.7804,0.7861,0.7872,0.7867,0.7869,0.7872,0.7872,0.7872,0.7864,0.7815,0.7679,0.7548,0.7375,0.7244,0.7187,0.7163,0.7154,0.7154,0.7154,0.7154,0.7154,0.7154,0.7154,0.7154,0.7154,0.7154,0.7154,0.7154,0.7154,0.7154,0.7154,0.7154,0.7154,0.7154,0.7154,0.7154,0.7157,0.7157,0.7157,0.7046,0.6935,0.6935,0.6824,0.6601,0.649,0.6267,0.6156,0.6047,0.6049,0.5938,0.5826,0.5828,0.5828,0.5828,0.5826,0.5935,0.6047,0.6047,1.2985,1.2772,1.2663,1.2441,1.2114,1.2114,1.2005,1.1678,1.1459,1.1236,1.0911,1.0363,1.0033,0.9812,0.9372,0.8819,0.8377,0.8377,0.8263,0.7937,0.7829,0.7607,0.7493,0.7379,0.7265,0.7265,0.7154,0.7154,0.7154,0.7154,0.7154,0.7154,0.7154,0.7154,0.7154,0.7154,0.7154,0.7154,0.7154,0.7154,0.7154,0.7154,0.7154,0.7154,0.7154,0.7154,0.7154,0.7154,0.7154,0.7209,0.7336,0.7489,0.7546,0.772,0.7842,0.7867,0.7872,0.7872,0.7872,0.7872,0.7872,0.7872,0.7872,0.7872,0.7858,0.7823,0.7736,0.7524,0.7407,0.7296,0.7198,0.7157,0.7154,0.7154,0.7154,0.7154,0.7154,0.7154,0.7154,0.7154,0.7154,0.7154,0.7154,0.7154,0.7154,0.7154,0.7154,0.7154,0.7154,0.7154,0.7154,0.7154,0.7154,0.7157,0.7046,0.7046,0.6826,0.6715,0.6606,0.6495,0.627,0.6044,0.5933,0.5712,0.5601,0.5489,0.5489,0.5377,0.5266,0.5266,0.5268,0.5268,0.5375,0.5375,0.5375,1.2327,1.2114,1.1896,1.1568,1.1236,1.124,1.1131,1.0802,1.0582,1.0472,1.0257,0.9475,0.9144,0.8923,0.8488,0.8156,0.8045,0.8045,0.7934,0.7607,0.7607,0.7493,0.7268,0.7268,0.7154,0.7154,0.7154,0.7154,0.7154,0.7154,0.7154,0.7154,0.7154,0.7154,0.7154,0.7154,0.7154,0.7154,0.7154,0.7154,0.7154,0.7154,0.7154,0.7154,0.7154,0.7154,0.7154,0.7154,0.7154,0.7171,0.7282,0.741,0.7516,0.7641,0.7766,0.7837,0.7872,0.7872,0.7872,0.7872,0.7872,0.7872,0.7872,0.7872,0.7831,0.7739,0.7603,0.7385,0.7334,0.7277,0.7179,0.7157,0.7154,0.7154,0.7154,0.7154,0.7154,0.7154,0.7154,0.7154,0.7154,0.7154,0.7154,0.7154,0.7154,0.7154,0.7154,0.7154,0.7154,0.7154,0.7154,0.7154,0.7046,0.7046,0.6935,0.6826,0.6604,0.6383,0.6272,0.6274,0.5938,0.5712,0.5489,0.5377,0.5154,0.5043,0.4931,0.4817,0.4706,0.4706,0.4819,0.4706,0.4592,0.4704,0.4815,1.1678,1.1236,1.1131,1.0802,1.0363,1.0363,1.0253,0.9923,0.9699,0.9368,0.9147,0.8706,0.8377,0.8156,0.7826,0.7715,0.7598,0.7598,0.749,0.7382,0.7382,0.7268,0.7268,0.7154,0.7154,0.7154,0.7154,0.7154,0.7154,0.7154,0.7154,0.7154,0.7154,0.7154,0.7154,0.7154,0.7154,0.7154,0.7154,0.7154,0.7154,0.7154,0.7154,0.7154,0.7154,0.7154,0.7154,0.7154,0.7154,0.7176,0.7269,0.7353,0.7451,0.7584,0.7731,0.7763,0.7839,0.7867,0.7872,0.7869,0.7872,0.7869,0.7864,0.7842,0.7763,0.7608,0.7478,0.7355,0.7271,0.7209,0.7171,0.7157,0.7154,0.7154,0.7154,0.7154,0.7154,0.7154,0.7154,0.7154,0.7154,0.7154,0.7154,0.7154,0.7154,0.7154,0.7154,0.7154,0.7154,0.7154,0.7154,0.7154,0.7046,0.6826,0.6715,0.6604,0.627,0.6049,0.6047,0.5938,0.5714,0.5491,0.5268,0.5043,0.4817,0.4706,0.4482,0.4482,0.448,0.448,0.448,0.4369,0.4369,0.448,0.4592,1.1126,1.0472,1.0578,1.0253,0.9588,0.9588,0.9372,0.9044,0.8816,0.8592,0.8374,0.8045,0.7715,0.7493,0.7493,0.7379,0.7265,0.7154,0.7154,0.7154,0.7154,0.7265,0.7154,0.7154,0.7154,0.7154,0.7154,0.7154,0.7154,0.7154,0.7154,0.7154,0.7154,0.7154,0.7154,0.7154,0.7154,0.7154,0.7154,0.7154,0.7154,0.7154,0.7154,0.7154,0.7154,0.7154,0.7154,0.7154,0.7154,0.7173,0.7225,0.7293,0.7369,0.7486,0.76,0.7649,0.7717,0.7747,0.7777,0.7809,0.7858,0.7864,0.7815,0.7752,0.7597,0.7421,0.7307,0.7282,0.722,0.7171,0.7154,0.7154,0.7154,0.7154,0.7154,0.7154,0.7154,0.7154,0.7154,0.7154,0.7154,0.7154,0.7154,0.7154,0.7154,0.7154,0.7154,0.7154,0.7154,0.7154,0.7154,0.7154,0.6935,0.6715,0.6492,0.6381,0.6049,0.5826,0.5712,0.5714,0.5491,0.5382,0.5268,0.4931,0.4706,0.437,0.4147,0.4257,0.4255,0.4145,0.4033,0.4145,0.4257,0.4257,0.4257,1.0582,0.9923,1.0253,0.9809,0.8923,0.8923,0.8592,0.8156,0.8156,0.8045,0.7934,0.7715,0.7493,0.7268,0.7268,0.7268,0.7154,0.7154,0.7154,0.7154,0.7154,0.7154,0.7154,0.7154,0.7154,0.7154,0.7154,0.7154,0.7154,0.7154,0.7154,0.7154,0.7154,0.7154,0.7154,0.7154,0.7154,0.7154,0.7154,0.7154,0.7154,0.7154,0.7154,0.7154,0.7154,0.7154,0.7154,0.7154,0.7154,0.7154,0.7182,0.7228,0.7304,0.738,0.7459,0.7524,0.7576,0.76,0.7625,0.7733,0.7839,0.7834,0.7752,0.7608,0.7445,0.7377,0.7285,0.7201,0.7168,0.716,0.7154,0.7154,0.7154,0.7154,0.7154,0.7154,0.7154,0.7154,0.7154,0.7154,0.7154,0.7154,0.7154,0.7154,0.7154,0.7154,0.7154,0.7154,0.7154,0.7154,0.7154,0.7154,0.6935,0.6604,0.6383,0.6161,0.5824,0.5714,0.5605,0.5493,0.5382,0.527,0.527,0.4931,0.4594,0.4147,0.3923,0.4035,0.4035,0.3811,0.3699,0.3811,0.3921,0.3921,0.3698,1.0582,0.9816,0.9923,0.9482,0.8702,0.8706,0.8266,0.7826,0.7715,0.7715,0.749,0.7379,0.7268,0.7265,0.7154,0.7154,0.7154,0.7154,0.7154,0.7154,0.7154,0.7154,0.7154,0.7154,0.7154,0.7154,0.7154,0.7154,0.7154,0.7154,0.7154,0.7154,0.7154,0.7154,0.7154,0.7154,0.7154,0.7154,0.7154,0.7154,0.7154,0.7154,0.7154,0.7154,0.7154,0.7154,0.7154,0.7154,0.7154,0.7154,0.7154,0.7192,0.7236,0.729,0.735,0.741,0.7456,0.7491,0.7505,0.76,0.7649,0.763,0.7543,0.7434,0.7323,0.7277,0.722,0.7168,0.7154,0.7154,0.7154,0.7154,0.7154,0.7154,0.7154,0.7154,0.7154,0.7154,0.7154,0.7154,0.7154,0.7154,0.7154,0.7154,0.7154,0.7154,0.7154,0.7154,0.7154,0.7154,0.7154,0.7157,0.6935,0.6604,0.6383,0.6047,0.5712,0.5603,0.5493,0.5493,0.5493,0.5382,0.527,0.4931,0.4706,0.4482,0.4258,0.4036,0.3813,0.3701,0.3699,0.3587,0.3587,0.3587,0.3475,1.0315,0.9706,0.9596,0.9037,0.8374,0.8374,0.8045,0.7604,0.7493,0.7382,0.7154,0.7154,0.7154,0.7154,0.7154,0.7154,0.7154,0.7154,0.7154,0.7154,0.7154,0.7154,0.7154,0.7154,0.7154,0.7154,0.7154,0.7154,0.7154,0.7154,0.7154,0.7154,0.7154,0.7154,0.7154,0.7154,0.7154,0.7154,0.7154,0.7154,0.7154,0.7154,0.7154,0.7154,0.7154,0.7154,0.7154,0.7154,0.7154,0.7154,0.7154,0.7154,0.7187,0.7225,0.7271,0.7312,0.7353,0.741,0.7421,0.7489,0.7494,0.7475,0.7415,0.7339,0.7269,0.7203,0.7168,0.716,0.7154,0.7154,0.7154,0.7154,0.7154,0.7154,0.7154,0.7154,0.7154,0.7154,0.7154,0.7154,0.7154,0.7154,0.7154,0.7154,0.7154,0.7154,0.7154,0.7154,0.7154,0.7154,0.7154,0.7046,0.6935,0.6715,0.6495,0.6161,0.6049,0.5938,0.5828,0.5717,0.5605,0.5605,0.5382,0.4931,0.4817,0.4706,0.4594,0.4258,0.4036,0.3813,0.3699,0.3699,0.3587,0.3587,0.3475,0.9555,0.9372,0.903,0.8589,0.8045,0.8045,0.7712,0.7268,0.7268,0.7268,0.7154,0.7154,0.7154,0.7154,0.7154,0.7154,0.7154,0.7154,0.7154,0.7154,0.7154,0.7154,0.7154,0.7154,0.7154,0.7154,0.7154,0.7154,0.7154,0.7154,0.7154,0.7154,0.7154,0.7154,0.7154,0.7154,0.7154,0.7154,0.7154,0.7154,0.7154,0.7154,0.7154,0.7154,0.7154,0.7154,0.7154,0.7154,0.7154,0.7154,0.7154,0.7154,0.7165,0.7168,0.7184,0.7187,0.7184,0.719,0.7187,0.7391,0.7418,0.7355,0.7301,0.7271,0.7195,0.7154,0.7154,0.7154,0.7154,0.7154,0.7154,0.7154,0.7154,0.7154,0.7154,0.7154,0.7154,0.7154,0.7154,0.7154,0.7154,0.7154,0.7154,0.7154,0.7154,0.7154,0.7154,0.7154,0.7154,0.7154,0.7154,0.7154,0.6935,0.6824,0.6604,0.6383,0.6274,0.6274,0.6163,0.594,0.5826,0.5826,0.5489,0.5154,0.5041,0.5152,0.4815,0.448,0.4258,0.4035,0.3811,0.3811,0.3699,0.3699,0.3698,0.9293,0.8896,0.8784,0.8401,0.782,0.7715,0.7493,0.7268,0.7154,0.7154,0.7154,0.7154,0.7154,0.7154,0.7154,0.7154,0.7154,0.7154,0.7154,0.7154,0.7154,0.7154,0.7154,0.7154,0.7154,0.7154,0.7154,0.7154,0.7154,0.7154,0.7154,0.7154,0.7154,0.7154,0.7154,0.7154,0.7154,0.7154,0.7154,0.7154,0.7154,0.7154,0.7154,0.7154,0.7154,0.7154,0.7154,0.7154,0.7154,0.7154,0.7154,0.7154,0.7154,0.7154,0.7154,0.7154,0.7154,0.7154,0.716,0.7247,0.7255,0.723,0.7222,0.7206,0.7157,0.7154,0.7154,0.7154,0.7154,0.7154,0.7154,0.7154,0.7154,0.7154,0.7154,0.7154,0.7154,0.7154,0.7154,0.7154,0.7154,0.7154,0.7154,0.7154,0.7154,0.7154,0.7154,0.7154,0.7154,0.7154,0.7154,0.7154,0.7154,0.6935,0.6712,0.6604,0.6495,0.6495,0.6386,0.6163,0.6161,0.6158,0.6047,0.5714,0.5599,0.5485,0.5264,0.5041,0.4704,0.4369,0.437,0.4257,0.4033,0.4145,0.4257,0.8604,0.8308,0.8204,0.796,0.7538,0.7587,0.7493,0.7268,0.7154,0.7154,0.7154,0.7154,0.7154,0.7154,0.7154,0.7154,0.7154,0.7154,0.7154,0.7154,0.7154,0.7154,0.7154,0.7154,0.7154,0.7154,0.7154,0.7154,0.7154,0.7154,0.7154,0.7154,0.7154,0.7154,0.7154,0.7154,0.7154,0.7154,0.7154,0.7154,0.7154,0.7154,0.7154,0.7154,0.7154,0.7154,0.7154,0.7154,0.7154,0.7154,0.7154,0.7154,0.7154,0.7154,0.7154,0.7154,0.7154,0.7154,0.716,0.7163,0.7182,0.7171,0.7154,0.7154,0.7154,0.7154,0.7154,0.7154,0.7154,0.7154,0.7154,0.7154,0.7154,0.7154,0.7154,0.7154,0.7154,0.7154,0.7154,0.7154,0.7154,0.7154,0.7154,0.7154,0.7154,0.7154,0.7154,0.7154,0.7154,0.7154,0.7154,0.7154,0.7154,0.7043,0.6935,0.6935,0.6826,0.6604,0.6606,0.6495,0.6383,0.6381,0.6383,0.6274,0.6049,0.5935,0.5824,0.5601,0.5375,0.5264,0.5266,0.5041,0.4592,0.4592,0.4704,0.7623,0.7635,0.732,0.7289,0.7414,0.7535,0.7371,0.7154,0.7154,0.7154,0.7154,0.7154,0.7154,0.7154,0.7154,0.7154,0.7154,0.7154,0.7154,0.7154,0.7154,0.7154,0.7154,0.7154,0.7154,0.7154,0.7154,0.7154,0.7154,0.7154,0.7154,0.7154,0.7154,0.7154,0.7154,0.7154,0.7154,0.7154,0.7154,0.7154,0.7154,0.7154,0.7154,0.7154,0.7154,0.7154,0.7154,0.7154,0.7154,0.7154,0.7154,0.7154,0.7154,0.7154,0.7154,0.7154,0.7154,0.7154,0.7154,0.7154,0.7154,0.7154,0.7154,0.7154,0.7154,0.7154,0.7154,0.7154,0.7154,0.7154,0.7154,0.7154,0.7154,0.7154,0.7154,0.7154,0.7154,0.7154,0.7154,0.7154,0.7154,0.7154,0.7154,0.7154,0.7154,0.7154,0.7154,0.7154,0.7154,0.7154,0.7154,0.7154,0.7154,0.7154,0.7154,0.7043,0.7046,0.6935,0.6935,0.6935,0.6826,0.6715,0.6715,0.6604,0.6383,0.6274,0.6161,0.6161,0.6161,0.6049,0.5826,0.5712,0.5264,0.5039,0.5039,0.7277,0.7194,0.7093,0.7058,0.6967,0.7094,0.7191,0.7149,0.7154,0.7154,0.7154,0.7154,0.7154,0.7154,0.7154,0.7154,0.7154,0.7154,0.7154,0.7154,0.7154,0.7154,0.7154,0.7154,0.7154,0.7154,0.7154,0.7154,0.7154,0.7154,0.7154,0.7154,0.7154,0.7154,0.7154,0.7154,0.7154,0.7154,0.7154,0.7154,0.7154,0.7154,0.7154,0.7154,0.7154,0.7154,0.7154,0.7154,0.7154,0.7154,0.7154,0.7154,0.7154,0.7154,0.7154,0.7154,0.7154,0.7154,0.7154,0.7154,0.7154,0.7154,0.7154,0.7154,0.7154,0.7154,0.7154,0.7154,0.7154,0.7154,0.7154,0.7154,0.7154,0.7154,0.7154,0.7154,0.7154,0.7154,0.7154,0.7154,0.7154,0.7154,0.7154,0.7154,0.7154,0.7154,0.7154,0.7154,0.7154,0.7154,0.7154,0.7154,0.7154,0.7154,0.7154,0.7154,0.7154,0.7154,0.7154,0.7154,0.7046,0.6935,0.7043,0.6935,0.6715,0.6495,0.6274,0.6383,0.6495,0.6386,0.6161,0.6049,0.5938,0.5712,0.5487,0.6885,0.6751,0.6757,0.6724,0.6738,0.6861,0.6978,0.7081,0.7133,0.7154,0.7154,0.7154,0.7154,0.7154,0.7154,0.7154,0.7154,0.7154,0.7154,0.7154,0.7154,0.7154,0.7154,0.7154,0.7154,0.7154,0.7154,0.7154,0.7154,0.7154,0.7154,0.7154,0.7154,0.7154,0.7154,0.7154,0.7154,0.7154,0.7154,0.7154,0.7154,0.7154,0.7154,0.7154,0.7154,0.7154,0.7154,0.7154,0.7154,0.7154,0.7154,0.7154,0.7154,0.7154,0.7154,0.7154,0.7154,0.7154,0.7154,0.7154,0.7154,0.7154,0.7154,0.7154,0.7154,0.7154,0.7154,0.7154,0.7154,0.7154,0.7154,0.7154,0.7154,0.7154,0.7154,0.7154,0.7154,0.7154,0.7154,0.7154,0.7154,0.7154,0.7154,0.7154,0.7154,0.7154,0.7154,0.7154,0.7154,0.7154,0.7154,0.7154,0.7154,0.7154,0.7154,0.7154,0.7154,0.7154,0.7154,0.7154,0.7154,0.7154,0.7154,0.7043,0.7046,0.6826,0.6604,0.6715,0.6715,0.6604,0.6606,0.6604,0.6492,0.6272,0.6158,0.6439,0.6442,0.6437,0.6507,0.6613,0.6736,0.685,0.6967,0.7076,0.7146,0.7152,0.7154,0.7154,0.7154,0.7154,0.7154,0.7154,0.7154,0.7154,0.7154,0.7154,0.7154,0.7154,0.7154,0.7154,0.7154,0.7154,0.7154,0.7154,0.7154,0.7154,0.7154,0.7154,0.7154,0.7154,0.7154,0.7154,0.7154,0.7154,0.7154,0.7154,0.7154,0.7154,0.7154,0.7154,0.7154,0.7154,0.7154,0.7154,0.7154,0.7154,0.7154,0.7154,0.7154,0.7154,0.7154,0.7154,0.7154,0.7154,0.7154,0.7154,0.7154,0.7154,0.7154,0.7154,0.7154,0.7154,0.7154,0.7154,0.7154,0.7154,0.7154,0.7154,0.7154,0.7154,0.7154,0.7154,0.7154,0.7154,0.7154,0.7154,0.7154,0.7154,0.7154,0.7154,0.7154,0.7154,0.7154,0.7154,0.7154,0.7154,0.7154,0.7154,0.7154,0.7154,0.7154,0.7154,0.7154,0.7154,0.7154,0.7154,0.7154,0.7154,0.7154,0.7157,0.7154,0.7046,0.7046,0.7046,0.7046,0.7046,0.7157,0.7046,0.6715,0.6606,0.6437,0.6437,0.6437,0.6456,0.6497,0.6611,0.6679,0.6728,0.6937,0.707,0.7143,0.7154,0.7154,0.7154,0.7154,0.7154,0.7154,0.7154,0.7154,0.7154,0.7154,0.7154,0.7154,0.7154,0.7154,0.7154,0.7154,0.7154,0.7154,0.7154,0.7154,0.7154,0.7154,0.7154,0.7154,0.7154,0.7154,0.7154,0.7154,0.7154,0.7154,0.7154,0.7154,0.7154,0.7154,0.7154,0.7154,0.7154,0.7154,0.7154,0.7154,0.7154,0.7154,0.7154,0.7154,0.7154,0.7154,0.7154,0.7154,0.7154,0.7154,0.7154,0.7154,0.7154,0.7154,0.7154,0.7154,0.7154,0.7154,0.7154,0.7154,0.7154,0.7154,0.7154,0.7154,0.7154,0.7154,0.7154,0.7154,0.7154,0.7154,0.7154,0.7154,0.7154,0.7154,0.7154,0.7154,0.7154,0.7154,0.7154,0.7154,0.7154,0.7154,0.7154,0.7154,0.7154,0.7154,0.7154,0.7154,0.7154,0.7154,0.7154,0.7154,0.7154,0.7154,0.7154,0.7154,0.7154,0.7154,0.7154,0.7154,0.7154,0.7154,0.6935,0.7046,0.6437,0.6437,0.6437,0.6437,0.645,0.651,0.6567,0.6641,0.6766,0.6921,0.7078,0.7127,0.7154,0.7154,0.7154,0.7154,0.7154,0.7154,0.7154,0.7154,0.7154,0.7154,0.7154,0.7154,0.7154,0.7154,0.7154,0.7154,0.7154,0.7154,0.7154,0.7154,0.7154,0.7154,0.7154,0.7154,0.7154,0.7154,0.7154,0.7154,0.7154,0.7154,0.7154,0.7154,0.7154,0.7154,0.7154,0.7154,0.7154,0.7154,0.7154,0.7154,0.7154,0.7154,0.7154,0.7154,0.7154,0.7154,0.7154,0.7154,0.7154,0.7154,0.7154,0.7154,0.7154,0.7154,0.7154,0.7154,0.7154,0.7154,0.7154,0.7154,0.7154,0.7154,0.7154,0.7154,0.7154,0.7154,0.7154,0.7154,0.7154,0.7154,0.7154,0.7154,0.7154,0.7154,0.7154,0.7154,0.7154,0.7154,0.7154,0.7154,0.7154,0.7154,0.7154,0.7154,0.7154,0.7154,0.7154,0.7154,0.7154,0.7154,0.7154,0.7154,0.7154,0.7154,0.7154,0.7154,0.7154,0.7154,0.7154,0.7154,0.7154,0.7154,0.7154,0.6437,0.6437,0.6437,0.6437,0.6437,0.6439,0.6497,0.6586,0.6619,0.6741,0.6931,0.7067,0.713,0.7152,0.7154,0.7154,0.7154,0.7154,0.7154,0.7154,0.7154,0.7154,0.7154,0.7154,0.7154,0.7154,0.7154,0.7154,0.7154,0.7154,0.7154,0.7154,0.7154,0.7154,0.7154,0.7154,0.7154,0.7154,0.7154,0.7154,0.7154,0.7154,0.7154,0.7154,0.7154,0.7154,0.7154,0.7154,0.7154,0.7154,0.7154,0.7154,0.7154,0.7154,0.7154,0.7154,0.7154,0.7154,0.7154,0.7154,0.7154,0.7154,0.7154,0.7154,0.7154,0.7154,0.7154,0.7154,0.7154,0.7154,0.7154,0.7154,0.7154,0.7154,0.7154,0.7154,0.7154,0.7154,0.7154,0.7154,0.7154,0.7154,0.7154,0.7154,0.7154,0.7154,0.7154,0.7154,0.7154,0.7154,0.7154,0.7154,0.7154,0.7154,0.7154,0.7154,0.7154,0.7154,0.7154,0.7154,0.7154,0.7154,0.7154,0.7154,0.7154,0.7154,0.7154,0.7154,0.7154,0.7154,0.7154,0.7154,0.7154,0.7154,0.7154,0.6437,0.6437,0.6437,0.6437,0.6437,0.6437,0.645,0.6486,0.6476,0.6654,0.6642,0.6929,0.7059,0.7154,0.7154,0.7154,0.7154,0.7154,0.7154,0.7154,0.7154,0.7154,0.7154,0.7154,0.7154,0.7154,0.7154,0.7154,0.7154,0.7154,0.7154,0.7154,0.7154,0.7154,0.7154,0.7154,0.7154,0.7154,0.7154,0.7154,0.7154,0.7154,0.7154,0.7154,0.7154,0.7154,0.7154,0.7154,0.7154,0.7154,0.7154,0.7154,0.7154,0.7154,0.7154,0.7154,0.7154,0.7154,0.7154,0.7154,0.7154,0.7154,0.7154,0.7154,0.7154,0.7154,0.7154,0.7154,0.7154,0.7154,0.7154,0.7154,0.7154,0.7154,0.7154,0.7154,0.7154,0.7154,0.7154,0.7154,0.7154,0.7154,0.7154,0.7154,0.7154,0.7154,0.7154,0.7154,0.7154,0.7154,0.7154,0.7154,0.7154,0.7154,0.7154,0.7154,0.7154,0.7154,0.7154,0.7154,0.7154,0.7154,0.7154,0.7154,0.7154,0.7154,0.7154,0.7154,0.7154,0.7154,0.7154,0.7154,0.7154,0.7154,0.7154]},{"header":{"parameterUnit":"m.s-1","parameterCategory":1,"la1":31.0,"la2":29.5877,"lo1":-88.7671,"lo2":-86.6584,"dy":0.0162,"dx":0.0185,"nx":115,"ny":88,"refTime":"2023-06-01T18:00:00:Z","depth":0,"parameterNumber":3,"parameterNumberName":"V-component_of_WINDS"},"data":[0.0,0.0,0.0,0.0,0.0,0.0,0.0,0.0,0.0,0.0,0.0,0.0,0.0,0.0,0.0,0.0,0.0,0.0,0.0,0.0,0.0,0.0,0.0,0.0,0.0,0.0,0.0,0.0,0.0,0.0,0.0,0.0,0.0,0.0,0.0,0.0,0.0,0.0,0.0,0.0,0.0,0.0,0.0,0.0,0.0,0.0,0.0,0.0,0.0,0.0,0.0,0.0,0.0,0.0,0.0,0.0,0.0,0.0,0.0,0.0,0.0,0.0,0.0,0.0,0.0,0.0,0.0,0.0,0.0,0.0,0.0,0.0,0.0,0.0,0.0,0.0,0.0,0.0,0.0,0.0,0.0,0.0,0.0,0.0,0.0,0.0,0.0,0.0,0.0,0.0,0.0,0.0,0.0,0.0,0.0,0.0,0.0,0.0,0.0,0.0,0.0,0.0,0.0,0.0,0.0,0.0,0.0,0.0,0.0,0.0,0.0,0.0,0.0,0.0,0.0,0.0,0.0,0.0,0.0,0.0,0.0,0.0,0.0,0.0,0.0,0.0,0.0,0.0,0.0,0.0,0.0,0.0,0.0,0.0,0.0,0.0,0.0,0.0,0.0,0.0,0.0,0.0,0.0,0.0,0.0,0.0,0.0,0.0,0.0,0.0,0.0,0.0,0.0,0.0,0.0,0.0,0.0,0.0,0.0,0.0,0.0,0.0,0.0,0.0,0.0,0.0,0.0,0.0,0.0,0.0,0.0,0.0,0.0,0.0,0.0,0.0,0.0,0.0,0.0,0.0,0.0,0.0,0.0,0.0,0.0,0.0,0.0,0.0,0.0,0.0,0.0,0.0,0.0,0.0,0.0,0.0,0.0,0.0,0.0,0.0,0.0,0.0,0.0,0.0,0.0,0.0,0.0,0.0,0.0,0.0,0.0,0.0,0.0,0.0,0.0,0.0,0.0,0.0,0.0,0.0,0.0,0.0,0.0,0.0,0.0,0.0,0.0,0.0,0.0,0.0,0.0,0.0,0.0,0.0,0.0,0.0,0.0,0.0,0.0,0.0,0.0,0.0,0.0,0.0,0.0,0.0,0.0,0.0,0.0,0.0,0.0,0.0,0.0,0.0,0.0,0.0,0.0,0.0,0.0,0.0,0.0,0.0,0.0,0.0,0.0,0.0,0.0,0.0,0.0,0.0,0.0,0.0,0.0,0.0,0.0,0.0,0.0,0.0,0.0,0.0,0.0,0.0,0.0,0.0,0.0,0.0,0.0,0.0,0.0,0.0,0.0,0.0,0.0,0.0,0.0,0.0,0.0,0.0,0.0,0.0,0.0,0.0,0.0,0.0,0.0,0.0,0.0,0.0,0.0,0.0,0.0,0.0,0.0,0.0,0.0,0.0,0.0,0.0,0.0,0.0,0.0,0.0,0.0,0.0,0.0,0.0,0.0,0.0,0.0,0.0,0.0,0.0,0.0,0.0,0.0,0.0,0.0,0.0,0.0,0.0,0.0,0.0,0.0,0.0,0.0,0.0,0.0,0.0,0.0,0.0,0.0,0.0,0.0,0.0,0.0,0.0,0.0,0.0,0.0,0.0,0.0,0.0,0.0,0.0,0.0,0.0,0.0,0.0,0.0,0.0,0.0,0.0,0.0,0.0,0.0,0.0,0.0,0.0,0.0,0.0,0.0,0.0,0.0,0.0,0.0,0.0,0.0,0.0,0.0,0.0,0.0,0.0,0.0,0.0,0.0,0.0,0.0,0.0,0.0,0.0,0.0,0.0,0.0,0.0,0.0,0.0,0.0,0.0,0.0,0.0,0.0,0.0,0.0,0.0,0.0,0.0,0.0,0.0,0.0,0.0,0.0,0.0,0.0,0.0,0.0,0.0,0.0,0.0,0.0,0.0,0.0,0.0,0.0,0.0,0.0,0.0,0.0,0.0,0.0,0.0,0.0,0.0,0.0,0.0,0.0,0.0,0.0,0.0,0.0,0.0,0.0,0.0,0.0,0.0,0.0,0.0,0.0,0.0,0.0,0.0,0.0,0.0,0.0,0.0,0.0,0.0,0.0,0.0,0.0,0.0,0.0,0.0,0.0,0.0,0.0,0.0,0.0,0.0,0.0,0.0,0.0,0.0,0.0,0.0,0.0,0.0,0.0,0.0,0.0,0.0,0.0,0.0,0.0,0.0,0.0,0.0,0.0,0.0,0.0,0.0,0.0,0.0,0.0,0.0,0.0,0.0,0.0,0.0,0.0,0.0,0.0,0.0,0.0,0.0,0.0,0.0,0.0,0.0,0.0,0.0,0.0,0.0,0.0,0.0,0.0,0.0,0.0,0.0,0.0,0.0,0.0,0.0,0.0,0.0,0.0,0.0,0.0,0.0,0.0,0.0,0.0,0.0,0.0,0.0,0.0,0.0,0.0,0.0,0.0,0.0,0.0,0.0,0.0,0.0,0.0,0.0,0.0,0.0,0.0,0.0,0.0,0.0,0.0,0.0,0.0,0.0,0.0,0.0,0.0,0.0,0.0,0.0,0.0,0.0,0.0,0.0,0.0,0.0,0.0,0.0,0.0,0.0,0.0,0.0,0.0,0.0,0.0,0.0,0.0,0.0,0.0,0.0,0.0,0.0,0.0,0.0,0.0,0.0,0.0,0.0,0.0,0.0,0.0,0.0,0.0,0.0,0.0,0.0,0.0,0.0,0.0,0.0,0.0,0.0,0.0,0.0,0.0,0.0,0.0,0.0,0.0,0.0,0.0,0.0,0.0,0.0,0.0,0.0,0.0,0.0,0.0,0.0,0.0,0.0,0.0,0.0,0.0,0.0,0.0,0.0,0.0,0.0,0.0,0.0,0.0,0.0,0.0,0.0,0.0,0.0,0.0,0.0,0.0,0.0,0.0,0.0,0.0,0.0,0.0,0.0,0.0,0.0,0.0,0.0,0.0,0.0,0.0,0.0,0.0,0.0,0.0,0.0,0.0,0.0,0.0,0.0,0.0,0.0,0.0,0.0,0.0,0.0,0.0,0.0,0.0,0.0,0.0,0.0,0.0,0.0,0.0,0.0,0.0,0.0,0.0,0.0,0.0,0.0,0.0,0.0,0.0,0.0,0.0,0.0,0.0,0.0,0.0,0.0,0.0,0.0,0.0,0.0,0.0,0.0,0.0,0.0,0.0,0.0,0.0,0.0,0.0,0.0,0.0,0.0,0.0,0.0,0.0,0.0,0.0,0.0,0.0,0.0,0.0,0.0,0.0,0.0,0.0,0.0,0.0,0.0,0.0,0.0,0.0,0.0,0.0,0.0,0.0,0.0,0.0,0.0,0.0,0.0,0.0,0.0,0.0,0.0,0.0,0.0,0.0,0.0,0.0,0.0,0.0,0.0,0.0,0.0,0.0,0.0,0.0,0.0,0.0,0.0,0.0,0.0,0.0,0.0,0.0,0.0,0.0,0.0,0.0,0.0,0.0,0.0,0.0,0.0,0.0,0.0,0.0,0.0,0.0,0.0,0.0,0.0,0.0,0.0,0.0,0.0,0.0,0.0,0.0,0.0,0.0,0.0,0.0,0.0,0.0,0.0,0.0,0.0,0.0,0.0,0.0,0.0,0.0,0.0,0.0,0.0,0.0,0.0,0.0,0.0,0.0,0.0,0.0,0.0,0.0,0.0,0.0,0.0,0.0,0.0,0.0,0.0,0.0,0.0,0.0,0.0,0.0,0.0,0.0,0.0,0.0,0.0,0.0,0.0,0.0,0.0,0.0,0.0,0.0,0.0,0.0,0.0,0.0,0.0,0.0,0.0,0.0,0.0,0.0,0.0,0.0,0.0,0.0,0.0,0.0,0.0,0.0,0.0,0.0,0.0,0.0,0.0,0.0,0.0,0.0,0.0,0.0,0.0,0.0,0.0,0.0,0.0,0.0,0.0,0.0,0.0,0.0,0.0,0.0,0.0,0.0,0.0,0.0,0.0,0.0,0.0,0.0,0.0,0.0,0.0,0.0,0.0,0.0,0.0,0.0,0.0,0.0,0.0,0.0,0.0,0.0,0.0,0.0,0.0,0.0,0.0,0.0,0.0,0.0,0.0,0.0,0.0,0.0,0.0,0.0,0.0,0.0,0.0,0.0,0.0,0.0,0.0,0.0,0.0,0.0,0.0,0.0,0.0,0.0,0.0,0.0,0.0,0.0,0.0,0.0,0.0,0.0,0.0,0.0,0.0,0.0,0.0,0.0,0.0,0.0,0.0,0.0,0.0,0.0,0.0,0.0,0.0,0.0,0.0,-3.3788,0.0,0.0,0.0,0.0,0.0,0.0,0.0,0.0,0.0,0.0,0.0,0.0,0.0,0.0,0.0,0.0,0.0,0.0,0.0,0.0,0.0,0.0,0.0,0.0,0.0,0.0,0.0,0.0,0.0,0.0,0.0,0.0,0.0,0.0,0.0,0.0,0.0,0.0,0.0,0.0,0.0,0.0,0.0,0.0,0.0,0.0,0.0,0.0,0.0,0.0,0.0,0.0,0.0,0.0,0.0,0.0,0.0,0.0,0.0,0.0,0.0,0.0,0.0,0.0,0.0,0.0,0.0,0.0,0.0,0.0,0.0,0.0,0.0,0.0,0.0,0.0,0.0,0.0,0.0,0.0,0.0,0.0,0.0,0.0,0.0,0.0,0.0,0.0,0.0,0.0,0.0,0.0,0.0,0.0,0.0,0.0,0.0,0.0,0.0,0.0,0.0,0.0,0.0,0.0,0.0,0.0,0.0,0.0,0.0,0.0,-3.4049,-3.3965,-3.3921,-3.3868,-3.3807,0.0,0.0,0.0,0.0,0.0,0.0,0.0,0.0,0.0,0.0,0.0,0.0,0.0,0.0,0.0,0.0,0.0,0.0,0.0,0.0,0.0,0.0,0.0,0.0,0.0,0.0,0.0,0.0,0.0,0.0,0.0,0.0,0.0,0.0,0.0,0.0,0.0,0.0,0.0,0.0,0.0,0.0,0.0,0.0,0.0,0.0,0.0,0.0,0.0,0.0,0.0,0.0,0.0,0.0,0.0,0.0,0.0,0.0,0.0,0.0,0.0,0.0,0.0,0.0,0.0,0.0,0.0,0.0,0.0,0.0,0.0,0.0,0.0,0.0,0.0,0.0,0.0,0.0,0.0,0.0,0.0,0.0,0.0,0.0,0.0,0.0,0.0,0.0,0.0,0.0,0.0,0.0,0.0,0.0,0.0,0.0,0.0,0.0,0.0,0.0,0.0,0.0,0.0,0.0,0.0,0.0,0.0,0.0,0.0,0.0,0.0,0.0,-3.3921,-3.3868,-3.3815,0.0,0.0,0.0,0.0,0.0,0.0,0.0,0.0,0.0,0.0,0.0,0.0,0.0,0.0,0.0,0.0,0.0,0.0,0.0,0.0,0.0,0.0,0.0,0.0,0.0,0.0,0.0,0.0,0.0,0.0,0.0,0.0,0.0,0.0,0.0,0.0,0.0,0.0,0.0,0.0,0.0,0.0,0.0,0.0,0.0,0.0,0.0,0.0,0.0,0.0,0.0,0.0,0.0,0.0,0.0,0.0,0.0,0.0,0.0,0.0,0.0,0.0,0.0,0.0,0.0,0.0,0.0,0.0,0.0,0.0,0.0,0.0,0.0,0.0,0.0,0.0,0.0,0.0,0.0,0.0,0.0,0.0,0.0,0.0,0.0,0.0,0.0,0.0,0.0,0.0,0.0,0.0,0.0,0.0,0.0,0.0,0.0,0.0,0.0,0.0,0.0,0.0,0.0,0.0,0.0,0.0,0.0,0.0,0.0,0.0,-3.4074,-3.3998,-3.3921,0.0,-3.3913,0.0,0.0,0.0,0.0,0.0,0.0,0.0,0.0,0.0,0.0,0.0,0.0,0.0,0.0,0.0,0.0,0.0,0.0,0.0,0.0,0.0,0.0,0.0,0.0,0.0,0.0,0.0,0.0,0.0,0.0,0.0,0.0,0.0,0.0,0.0,0.0,0.0,0.0,0.0,0.0,0.0,0.0,0.0,0.0,0.0,0.0,0.0,0.0,0.0,0.0,0.0,0.0,0.0,0.0,0.0,0.0,0.0,0.0,0.0,0.0,0.0,0.0,0.0,0.0,0.0,0.0,0.0,0.0,0.0,0.0,0.0,0.0,0.0,0.0,0.0,0.0,0.0,0.0,0.0,0.0,0.0,0.0,0.0,0.0,0.0,0.0,0.0,0.0,0.0,0.0,0.0,0.0,0.0,0.0,0.0,0.0,0.0,0.0,0.0,0.0,0.0,0.0,0.0,0.0,0.0,0.0,0.0,0.0,0.0,0.0,-3.4049,-3.3947,-3.3868,-3.3868,0.0,0.0,0.0,0.0,0.0,0.0,0.0,0.0,0.0,0.0,0.0,0.0,0.0,0.0,0.0,0.0,0.0,0.0,0.0,0.0,0.0,0.0,0.0,0.0,0.0,0.0,0.0,0.0,0.0,0.0,0.0,0.0,0.0,0.0,0.0,0.0,0.0,0.0,0.0,0.0,0.0,0.0,0.0,0.0,0.0,0.0,0.0,0.0,0.0,0.0,0.0,0.0,0.0,0.0,0.0,0.0,0.0,0.0,0.0,0.0,0.0,0.0,0.0,0.0,0.0,0.0,0.0,0.0,0.0,0.0,0.0,0.0,0.0,0.0,0.0,0.0,0.0,0.0,0.0,0.0,0.0,0.0,0.0,0.0,0.0,0.0,0.0,0.0,0.0,0.0,0.0,0.0,0.0,0.0,0.0,0.0,0.0,0.0,0.0,0.0,0.0,0.0,0.0,0.0,0.0,0.0,0.0,0.0,0.0,0.0,-3.4074,-3.3998,-3.3868,-3.3834,-3.3815,-3.3895,0.0,0.0,0.0,0.0,0.0,0.0,0.0,0.0,0.0,0.0,0.0,0.0,0.0,0.0,0.0,0.0,0.0,0.0,0.0,0.0,0.0,0.0,0.0,0.0,0.0,0.0,0.0,0.0,0.0,0.0,0.0,0.0,0.0,0.0,0.0,0.0,0.0,0.0,0.0,0.0,0.0,0.0,0.0,0.0,0.0,0.0,0.0,0.0,0.0,0.0,0.0,0.0,0.0,0.0,0.0,0.0,0.0,0.0,0.0,0.0,0.0,0.0,0.0,0.0,0.0,0.0,0.0,0.0,0.0,0.0,0.0,0.0,0.0,0.0,0.0,0.0,0.0,0.0,0.0,0.0,0.0,0.0,0.0,0.0,0.0,0.0,0.0,0.0,0.0,0.0,0.0,0.0,0.0,0.0,0.0,0.0,0.0,0.0,0.0,0.0,0.0,0.0,0.0,0.0,0.0,0.0,0.0,0.0,-3.4099,-3.3954,-3.3887,-3.3807,-3.3807,-3.3815,0.0,0.0,0.0,0.0,0.0,0.0,0.0,0.0,0.0,0.0,0.0,0.0,0.0,0.0,0.0,0.0,0.0,0.0,0.0,0.0,0.0,0.0,0.0,0.0,0.0,0.0,0.0,0.0,0.0,0.0,0.0,0.0,0.0,0.0,0.0,0.0,0.0,0.0,0.0,0.0,0.0,0.0,0.0,0.0,0.0,0.0,0.0,0.0,0.0,0.0,0.0,0.0,0.0,0.0,0.0,0.0,0.0,0.0,0.0,0.0,0.0,0.0,0.0,0.0,0.0,0.0,0.0,0.0,0.0,0.0,0.0,0.0,0.0,0.0,0.0,0.0,0.0,0.0,0.0,0.0,0.0,0.0,0.0,0.0,0.0,0.0,0.0,0.0,0.0,0.0,0.0,0.0,0.0,0.0,0.0,0.0,0.0,0.0,0.0,0.0,0.0,0.0,0.0,0.0,0.0,0.0,0.0,0.0,0.0,-3.3972,-3.3868,-3.3834,-3.3807,-3.3807,-3.3807,0.0,0.0,0.0,0.0,0.0,0.0,0.0,0.0,0.0,0.0,0.0,0.0,0.0,0.0,0.0,0.0,0.0,0.0,0.0,0.0,0.0,0.0,0.0,0.0,0.0,0.0,0.0,0.0,0.0,0.0,0.0,0.0,0.0,0.0,0.0,0.0,0.0,0.0,0.0,0.0,0.0,0.0,0.0,0.0,0.0,0.0,0.0,0.0,0.0,0.0,0.0,0.0,0.0,0.0,0.0,0.0,0.0,0.0,0.0,0.0,0.0,0.0,0.0,0.0,0.0,0.0,0.0,0.0,0.0,0.0,0.0,0.0,0.0,0.0,0.0,0.0,0.0,0.0,0.0,0.0,0.0,0.0,0.0,0.0,0.0,0.0,0.0,0.0,0.0,0.0,0.0,0.0,0.0,0.0,0.0,0.0,0.0,0.0,0.0,0.0,0.0,0.0,0.0,0.0,0.0,0.0,0.0,0.0,0.0,-3.3868,0.0,-3.3807,-3.3807,-3.3807,-3.3807,0.0,0.0,0.0,0.0,0.0,0.0,0.0,0.0,0.0,0.0,0.0,0.0,0.0,0.0,0.0,0.0,0.0,0.0,0.0,0.0,0.0,0.0,0.0,0.0,0.0,0.0,0.0,0.0,0.0,0.0,0.0,0.0,0.0,0.0,0.0,0.0,0.0,0.0,0.0,0.0,0.0,0.0,0.0,0.0,0.0,0.0,0.0,0.0,0.0,0.0,0.0,0.0,0.0,0.0,0.0,0.0,0.0,0.0,0.0,0.0,0.0,0.0,0.0,0.0,0.0,0.0,0.0,0.0,0.0,0.0,0.0,0.0,0.0,0.0,0.0,0.0,0.0,0.0,0.0,0.0,0.0,0.0,0.0,0.0,0.0,0.0,0.0,0.0,0.0,0.0,0.0,0.0,0.0,0.0,0.0,0.0,0.0,0.0,0.0,0.0,0.0,0.0,0.0,0.0,0.0,0.0,0.0,0.0,-3.3887,-3.3807,-3.3807,-3.3807,-3.3807,-3.3807,-3.3807,0.0,0.0,0.0,0.0,0.0,0.0,0.0,0.0,0.0,0.0,0.0,0.0,0.0,0.0,0.0,0.0,0.0,0.0,0.0,0.0,0.0,0.0,0.0,0.0,0.0,0.0,0.0,0.0,0.0,0.0,0.0,0.0,0.0,0.0,0.0,0.0,0.0,0.0,0.0,0.0,0.0,0.0,0.0,0.0,0.0,0.0,0.0,0.0,0.0,0.0,0.0,0.0,0.0,0.0,0.0,0.0,0.0,0.0,0.0,0.0,0.0,0.0,0.0,0.0,0.0,0.0,0.0,0.0,0.0,0.0,0.0,0.0,0.0,0.0,0.0,0.0,0.0,0.0,0.0,0.0,0.0,0.0,0.0,0.0,0.0,0.0,0.0,0.0,0.0,0.0,0.0,0.0,0.0,0.0,0.0,0.0,0.0,0.0,0.0,0.0,0.0,0.0,0.0,0.0,0.0,0.0,0.0,0.0,0.0,-3.3807,-3.3807,-3.3807,-3.3807,-3.3807,-3.3807,0.0,0.0,0.0,0.0,0.0,0.0,0.0,0.0,0.0,0.0,0.0,0.0,0.0,0.0,0.0,0.0,0.0,0.0,0.0,0.0,0.0,0.0,0.0,0.0,0.0,0.0,0.0,0.0,0.0,0.0,0.0,0.0,0.0,0.0,0.0,0.0,0.0,0.0,0.0,0.0,0.0,0.0,0.0,0.0,0.0,0.0,0.0,0.0,0.0,0.0,0.0,0.0,0.0,0.0,0.0,0.0,0.0,0.0,0.0,0.0,0.0,0.0,0.0,0.0,0.0,0.0,0.0,0.0,0.0,0.0,0.0,0.0,0.0,0.0,0.0,0.0,0.0,0.0,0.0,0.0,0.0,0.0,0.0,0.0,0.0,0.0,0.0,0.0,0.0,0.0,0.0,0.0,0.0,0.0,0.0,0.0,0.0,0.0,0.0,0.0,0.0,0.0,0.0,0.0,0.0,0.0,0.0,0.0,0.0,-3.3807,-3.3807,-3.3807,-3.3807,-3.3807,-3.3807,-3.3807,0.0,0.0,0.0,0.0,0.0,0.0,0.0,0.0,0.0,0.0,0.0,0.0,0.0,0.0,0.0,0.0,0.0,0.0,0.0,0.0,0.0,0.0,0.0,0.0,0.0,0.0,0.0,0.0,0.0,0.0,0.0,0.0,0.0,0.0,0.0,0.0,0.0,0.0,0.0,0.0,0.0,0.0,0.0,0.0,0.0,0.0,0.0,0.0,0.0,0.0,0.0,0.0,0.0,0.0,0.0,0.0,0.0,0.0,0.0,0.0,0.0,0.0,0.0,0.0,0.0,0.0,0.0,0.0,0.0,0.0,0.0,0.0,0.0,0.0,0.0,0.0,0.0,0.0,0.0,0.0,0.0,0.0,0.0,0.0,0.0,0.0,0.0,0.0,0.0,0.0,0.0,0.0,0.0,0.0,0.0,0.0,0.0,0.0,0.0,0.0,0.0,0.0,0.0,0.0,0.0,0.0,0.0,0.0,-3.3807,-3.3834,-3.3807,-3.3807,-3.3807,-3.3807,0.0,0.0,0.0,0.0,0.0,0.0,0.0,0.0,0.0,0.0,0.0,0.0,0.0,0.0,0.0,0.0,0.0,0.0,0.0,0.0,0.0,0.0,0.0,0.0,0.0,0.0,0.0,0.0,0.0,0.0,0.0,0.0,0.0,0.0,0.0,0.0,0.0,0.0,0.0,0.0,0.0,0.0,0.0,0.0,0.0,0.0,0.0,0.0,0.0,0.0,0.0,0.0,0.0,0.0,0.0,0.0,0.0,0.0,0.0,0.0,0.0,0.0,0.0,0.0,0.0,0.0,0.0,0.0,0.0,0.0,0.0,0.0,0.0,0.0,0.0,0.0,0.0,0.0,0.0,0.0,0.0,0.0,0.0,0.0,0.0,0.0,0.0,0.0,0.0,0.0,0.0,0.0,0.0,0.0,0.0,0.0,0.0,0.0,0.0,0.0,0.0,0.0,0.0,0.0,0.0,0.0,0.0,0.0,0.0,-3.3947,-3.3947,-3.3895,-3.3807,-3.3807,-3.3807,0.0,0.0,0.0,0.0,0.0,0.0,0.0,0.0,0.0,0.0,0.0,0.0,0.0,0.0,0.0,0.0,0.0,0.0,0.0,0.0,0.0,0.0,0.0,0.0,0.0,0.0,0.0,0.0,0.0,0.0,0.0,0.0,0.0,0.0,0.0,0.0,0.0,0.0,0.0,0.0,0.0,0.0,0.0,0.0,0.0,0.0,0.0,0.0,0.0,0.0,0.0,0.0,0.0,0.0,0.0,0.0,0.0,0.0,0.0,0.0,0.0,0.0,0.0,0.0,0.0,0.0,0.0,0.0,0.0,0.0,0.0,0.0,0.0,0.0,0.0,0.0,0.0,0.0,0.0,0.0,0.0,0.0,0.0,0.0,0.0,0.0,0.0,0.0,0.0,0.0,0.0,0.0,0.0,0.0,0.0,0.0,0.0,0.0,0.0,0.0,0.0,0.0,0.0,0.0,0.0,0.0,0.0,0.0,-3.4124,-3.4099,-3.4099,-3.4049,-3.3972,-3.3921,-3.3887,0.0,0.0,0.0,0.0,0.0,0.0,0.0,0.0,0.0,0.0,0.0,0.0,0.0,0.0,0.0,0.0,0.0,0.0,0.0,0.0,0.0,0.0,0.0,0.0,0.0,0.0,0.0,0.0,0.0,0.0,0.0,0.0,0.0,0.0,0.0,0.0,0.0,0.0,0.0,0.0,0.0,0.0,0.0,0.0,0.0,0.0,0.0,0.0,0.0,0.0,0.0,0.0,0.0,0.0,0.0,0.0,0.0,0.0,0.0,0.0,0.0,0.0,0.0,0.0,0.0,0.0,0.0,0.0,0.0,0.0,0.0,0.0,0.0,0.0,0.0,0.0,0.0,0.0,0.0,0.0,0.0,0.0,0.0,0.0,0.0,0.0,0.0,0.0,0.0,0.0,0.0,0.0,0.0,0.0,0.0,0.0,0.0,0.0,0.0,0.0,0.0,0.0,0.0,0.0,0.0,0.0,0.0,0.0,-3.4269,-3.424,-3.4221,-3.4203,-3.4221,-3.4099,-3.4023,0.0,0.0,0.0,0.0,0.0,0.0,0.0,0.0,0.0,0.0,0.0,0.0,0.0,0.0,0.0,0.0,0.0,0.0,0.0,0.0,0.0,0.0,0.0,0.0,0.0,0.0,0.0,0.0,0.0,0.0,0.0,0.0,0.0,0.0,0.0,0.0,0.0,0.0,0.0,0.0,0.0,0.0,0.0,0.0,0.0,0.0,0.0,0.0,0.0,0.0,0.0,0.0,0.0,0.0,0.0,0.0,0.0,0.0,0.0,0.0,0.0,0.0,0.0,0.0,0.0,0.0,0.0,0.0,0.0,0.0,0.0,0.0,0.0,0.0,0.0,0.0,0.0,0.0,0.0,0.0,0.0,0.0,0.0,0.0,0.0,0.0,0.0,0.0,0.0,0.0,0.0,0.0,0.0,0.0,0.0,0.0,0.0,0.0,0.0,0.0,0.0,0.0,0.0,0.0,0.0,0.0,0.0,0.0,-3.4363,-3.434,-3.4358,-3.434,-3.4358,-3.4221,-3.4105,0.0,0.0,0.0,0.0,0.0,0.0,0.0,0.0,0.0,0.0,0.0,0.0,0.0,0.0,0.0,0.0,0.0,0.0,0.0,0.0,0.0,0.0,0.0,0.0,0.0,0.0,0.0,0.0,0.0,0.0,0.0,0.0,0.0,0.0,0.0,0.0,0.0,0.0,0.0,0.0,0.0,0.0,0.0,0.0,0.0,0.0,0.0,0.0,-3.9337,0.0,0.0,0.0,0.0,0.0,0.0,0.0,0.0,0.0,0.0,0.0,0.0,0.0,0.0,0.0,0.0,0.0,0.0,0.0,0.0,0.0,0.0,0.0,0.0,0.0,0.0,0.0,0.0,0.0,0.0,0.0,0.0,0.0,0.0,0.0,0.0,0.0,0.0,0.0,0.0,0.0,0.0,0.0,0.0,0.0,0.0,0.0,0.0,0.0,0.0,0.0,0.0,0.0,0.0,0.0,0.0,0.0,0.0,0.0,-3.5334,-3.5728,-3.5747,-3.5766,-3.5747,-3.5683,-3.5212,0.0,0.0,0.0,0.0,0.0,0.0,0.0,0.0,0.0,0.0,0.0,0.0,0.0,0.0,0.0,0.0,0.0,0.0,0.0,0.0,0.0,0.0,0.0,0.0,0.0,0.0,0.0,0.0,0.0,0.0,0.0,0.0,0.0,0.0,0.0,0.0,0.0,0.0,0.0,0.0,0.0,0.0,0.0,0.0,0.0,0.0,0.0,0.0,0.0,0.0,0.0,0.0,0.0,0.0,0.0,0.0,0.0,0.0,0.0,0.0,0.0,0.0,0.0,0.0,0.0,0.0,0.0,0.0,0.0,0.0,0.0,0.0,0.0,0.0,0.0,0.0,0.0,0.0,0.0,0.0,0.0,0.0,0.0,0.0,0.0,0.0,0.0,0.0,0.0,0.0,0.0,0.0,0.0,0.0,0.0,0.0,0.0,0.0,0.0,0.0,0.0,0.0,0.0,0.0,0.0,0.0,0.0,-3.6205,-3.6564,-3.7263,-3.7281,-3.7281,-3.7281,-3.7281,-3.6534,-3.4903,0.0,0.0,0.0,0.0,0.0,0.0,0.0,0.0,0.0,0.0,0.0,0.0,0.0,0.0,0.0,0.0,0.0,0.0,0.0,0.0,0.0,0.0,0.0,0.0,0.0,0.0,0.0,0.0,0.0,0.0,0.0,0.0,0.0,0.0,0.0,0.0,0.0,0.0,-3.6311,-3.7716,0.0,0.0,0.0,0.0,0.0,0.0,0.0,0.0,-4.0117,0.0,0.0,0.0,0.0,0.0,0.0,0.0,0.0,0.0,0.0,0.0,0.0,0.0,0.0,0.0,0.0,0.0,0.0,0.0,0.0,0.0,0.0,0.0,0.0,0.0,0.0,0.0,0.0,0.0,0.0,0.0,0.0,0.0,0.0,0.0,0.0,0.0,0.0,0.0,0.0,0.0,0.0,0.0,0.0,0.0,0.0,0.0,0.0,0.0,0.0,0.0,0.0,0.0,0.0,0.0,0.0,-3.7093,-3.7093,-3.7149,-3.7281,-3.7281,-3.7281,-3.7281,-3.7281,-3.7147,-3.682,0.0,0.0,0.0,0.0,0.0,0.0,0.0,0.0,0.0,0.0,0.0,0.0,0.0,0.0,0.0,0.0,0.0,0.0,0.0,0.0,0.0,0.0,0.0,0.0,0.0,0.0,0.0,0.0,0.0,0.0,0.0,0.0,0.0,0.0,0.0,0.0,0.0,0.0,0.0,-3.9157,-3.9827,0.0,0.0,0.0,0.0,0.0,0.0,0.0,0.0,-4.0273,0.0,0.0,0.0,0.0,0.0,0.0,0.0,0.0,0.0,0.0,0.0,0.0,0.0,0.0,0.0,0.0,0.0,0.0,0.0,0.0,0.0,0.0,0.0,0.0,0.0,0.0,0.0,0.0,0.0,0.0,0.0,0.0,0.0,0.0,0.0,0.0,0.0,0.0,0.0,0.0,0.0,0.0,0.0,0.0,0.0,0.0,0.0,0.0,0.0,0.0,0.0,0.0,0.0,0.0,0.0,-3.8055,-3.8074,-3.8302,-3.8738,-3.8757,-3.8757,-3.8738,-3.8757,-3.8757,0.0,0.0,0.0,0.0,0.0,0.0,0.0,0.0,0.0,0.0,0.0,0.0,0.0,0.0,0.0,0.0,0.0,0.0,0.0,0.0,0.0,0.0,0.0,0.0,0.0,0.0,0.0,0.0,0.0,0.0,0.0,0.0,0.0,0.0,0.0,0.0,0.0,0.0,0.0,0.0,-3.981,-4.0098,-4.0157,0.0,0.0,0.0,0.0,0.0,0.0,-4.0291,-4.031,0.0,0.0,0.0,0.0,0.0,0.0,0.0,0.0,0.0,0.0,0.0,0.0,0.0,0.0,0.0,0.0,0.0,0.0,0.0,0.0,0.0,0.0,0.0,0.0,0.0,0.0,0.0,0.0,0.0,0.0,0.0,0.0,0.0,0.0,0.0,0.0,0.0,0.0,0.0,0.0,0.0,0.0,0.0,0.0,0.0,0.0,0.0,0.0,0.0,0.0,0.0,0.0,0.0,0.0,0.0,-3.9032,-3.9051,-3.9393,-4.0078,-4.0096,-4.0096,-4.0096,-4.0096,-4.0096,0.0,0.0,0.0,0.0,0.0,0.0,0.0,0.0,0.0,0.0,0.0,0.0,0.0,0.0,0.0,0.0,0.0,0.0,0.0,0.0,0.0,0.0,0.0,0.0,0.0,0.0,0.0,0.0,0.0,0.0,0.0,0.0,0.0,0.0,0.0,0.0,0.0,0.0,0.0,0.0,0.0,-4.0157,-4.0234,-4.0234,0.0,0.0,0.0,0.0,-4.031,-4.031,0.0,0.0,0.0,0.0,0.0,0.0,0.0,0.0,0.0,0.0,0.0,0.0,0.0,0.0,0.0,0.0,0.0,0.0,0.0,0.0,0.0,0.0,0.0,0.0,0.0,0.0,0.0,0.0,0.0,0.0,0.0,0.0,0.0,0.0,0.0,0.0,0.0,0.0,0.0,0.0,0.0,0.0,0.0,0.0,0.0,0.0,0.0,0.0,0.0,0.0,0.0,0.0,0.0,0.0,0.0,0.0,-3.9964,-3.9964,-3.9982,-4.0096,-4.0096,-4.0096,-4.0096,-4.0096,-4.0096,0.0,0.0,0.0,0.0,0.0,0.0,0.0,0.0,0.0,0.0,0.0,0.0,0.0,0.0,0.0,0.0,0.0,0.0,0.0,0.0,0.0,0.0,0.0,0.0,0.0,0.0,0.0,0.0,0.0,0.0,0.0,0.0,0.0,0.0,0.0,0.0,0.0,0.0,0.0,0.0,0.0,-4.0289,-4.0362,-4.0362,-4.0381,0.0,0.0,-4.0381,-4.0398,-4.0398,0.0,0.0,0.0,0.0,0.0,0.0,0.0,0.0,0.0,0.0,0.0,0.0,0.0,0.0,0.0,0.0,0.0,0.0,0.0,0.0,0.0,0.0,0.0,0.0,0.0,0.0,0.0,0.0,0.0,0.0,0.0,0.0,0.0,0.0,0.0,0.0,0.0,0.0,0.0,0.0,0.0,0.0,0.0,0.0,0.0,0.0,0.0,0.0,0.0,0.0,0.0,0.0,0.0,0.0,0.0,-4.0215,-4.0215,-4.0215,-4.0215,-4.0215,-4.0215,-4.0215,-4.0215,-4.0215,-4.0196,0.0,0.0,0.0,0.0,0.0,0.0,0.0,0.0,0.0,0.0,0.0,0.0,0.0,0.0,0.0,0.0,0.0,0.0,0.0,0.0,0.0,0.0,0.0,0.0,0.0,0.0,0.0,0.0,0.0,0.0,0.0,0.0,0.0,0.0,0.0,0.0,0.0,0.0,0.0,0.0,0.0,0.0,-4.0411,-4.0411,0.0,0.0,0.0,-4.0479,-4.046,0.0,0.0,0.0,0.0,0.0,0.0,0.0,0.0,0.0,0.0,0.0,0.0,0.0,0.0,0.0,0.0,0.0,0.0,0.0,0.0,0.0,0.0,0.0,0.0,0.0,0.0,0.0,0.0,0.0,0.0,0.0,0.0,0.0,0.0,0.0,0.0,0.0,0.0,0.0,0.0,0.0,0.0,0.0,0.0,0.0,0.0,0.0,0.0,0.0,0.0,0.0,0.0,0.0,0.0,0.0,0.0,0.0,-4.0329,-4.0329,-4.0329,-4.0329,-4.0329,-4.0329,-4.0329,-4.0329,0.0,0.0,0.0,0.0,0.0,0.0,0.0,0.0,0.0,0.0,0.0,0.0,0.0,0.0,0.0,0.0,0.0,0.0,0.0,0.0,0.0,0.0,0.0,0.0,0.0,0.0,0.0,-3.8499,0.0,0.0,0.0,0.0,0.0,0.0,0.0,0.0,0.0,0.0,0.0,0.0,0.0,0.0,-4.0463,-4.0454,-4.0454,-4.0469,0.0,0.0,-4.0554,-4.0534,-4.0549,-4.0564,0.0,0.0,0.0,0.0,0.0,0.0,0.0,0.0,0.0,0.0,0.0,0.0,0.0,0.0,0.0,0.0,0.0,0.0,0.0,0.0,0.0,0.0,0.0,0.0,0.0,0.0,0.0,0.0,0.0,0.0,0.0,0.0,0.0,0.0,0.0,0.0,0.0,0.0,0.0,0.0,0.0,0.0,0.0,0.0,0.0,0.0,0.0,0.0,0.0,0.0,0.0,0.0,0.0,0.0,-4.0329,-4.0329,-4.0329,-4.0329,-4.0329,-4.0329,-4.0329,-4.0329,-4.0329,-4.0329,0.0,0.0,0.0,0.0,0.0,0.0,0.0,0.0,0.0,0.0,0.0,0.0,0.0,0.0,0.0,0.0,0.0,0.0,0.0,0.0,0.0,0.0,0.0,0.0,0.0,0.0,0.0,0.0,0.0,0.0,0.0,0.0,0.0,0.0,0.0,0.0,0.0,0.0,0.0,0.0,0.0,-4.0588,-4.0574,-4.0588,-4.0588,0.0,-4.0635,-4.0687,-4.0687,-4.0694,-4.0681,-4.0681,0.0,0.0,0.0,0.0,0.0,0.0,0.0,0.0,0.0,0.0,0.0,0.0,0.0,0.0,0.0,0.0,0.0,0.0,0.0,0.0,0.0,0.0,0.0,0.0,0.0,0.0,0.0,0.0,0.0,0.0,0.0,0.0,0.0,0.0,0.0,0.0,0.0,0.0,0.0,0.0,0.0,0.0,0.0,0.0,0.0,0.0,0.0,0.0,0.0,0.0,0.0,0.0,0.0,-4.0329,-4.0329,-4.0329,-4.0329,-4.0329,-4.0329,-4.0329,-4.0329,-4.0329,-4.0329,0.0,0.0,0.0,0.0,0.0,0.0,0.0,0.0,0.0,0.0,0.0,0.0,0.0,0.0,0.0,0.0,0.0,0.0,0.0,0.0,0.0,0.0,0.0,0.0,0.0,0.0,0.0,0.0,-4.0309,-4.0327,-4.0345,0.0,0.0,0.0,0.0,0.0,0.0,0.0,0.0,0.0,0.0,-4.0673,-4.072,-4.072,0.0,0.0,-4.075,-4.075,-4.075,-4.0742,-4.0773,-4.0773,-4.0773,0.0,0.0,0.0,0.0,0.0,0.0,0.0,0.0,0.0,0.0,0.0,0.0,0.0,0.0,0.0,0.0,0.0,0.0,0.0,0.0,0.0,0.0,0.0,0.0,0.0,0.0,0.0,0.0,0.0,0.0,0.0,0.0,0.0,0.0,0.0,0.0,0.0,0.0,0.0,0.0,0.0,0.0,0.0,0.0,0.0,0.0,0.0,0.0,0.0,0.0,0.0,0.0,-4.0329,-4.0329,-4.0329,-4.0329,-4.0329,-4.0329,-4.0329,-4.0329,-4.0329,-4.0329,0.0,0.0,0.0,0.0,0.0,0.0,0.0,0.0,0.0,0.0,0.0,0.0,0.0,0.0,0.0,0.0,0.0,0.0,0.0,0.0,0.0,0.0,0.0,0.0,0.0,0.0,0.0,0.0,-4.0306,-4.036,-4.0411,0.0,0.0,0.0,0.0,0.0,0.0,0.0,0.0,0.0,0.0,-4.0745,-4.08,-4.0812,-4.0804,-4.0837,-4.0828,-4.0839,-4.0829,-4.0829,-4.0878,-4.0859,0.0,0.0,0.0,0.0,0.0,0.0,0.0,0.0,0.0,0.0,0.0,0.0,0.0,0.0,0.0,0.0,0.0,0.0,0.0,0.0,0.0,0.0,0.0,0.0,0.0,0.0,0.0,-3.967,0.0,0.0,-3.9708,0.0,0.0,0.0,0.0,0.0,0.0,0.0,0.0,0.0,0.0,0.0,0.0,0.0,0.0,0.0,0.0,0.0,0.0,0.0,0.0,0.0,0.0,-4.0329,-4.0329,-4.0329,-4.0329,-4.0329,-4.0329,-4.0329,-4.0329,-4.0329,-4.0329,-4.0329,0.0,0.0,0.0,0.0,0.0,0.0,0.0,0.0,0.0,0.0,0.0,0.0,0.0,0.0,0.0,0.0,0.0,0.0,0.0,0.0,0.0,0.0,0.0,0.0,0.0,0.0,-4.0307,-4.0375,-4.0422,0.0,0.0,0.0,0.0,0.0,0.0,0.0,0.0,0.0,-4.0788,-4.0804,-4.0807,-4.0807,-4.0807,-4.0837,-4.0897,-4.0888,-4.0897,-4.0896,-4.096,-4.0996,0.0,0.0,0.0,0.0,0.0,0.0,0.0,0.0,0.0,0.0,0.0,0.0,0.0,0.0,0.0,0.0,0.0,0.0,0.0,0.0,0.0,0.0,0.0,0.0,0.0,0.0,0.0,-3.9845,-3.9781,0.0,0.0,0.0,0.0,0.0,0.0,0.0,0.0,0.0,0.0,0.0,-4.0057,-4.0137,0.0,0.0,0.0,0.0,0.0,0.0,0.0,0.0,0.0,0.0,0.0,0.0,-4.0329,-4.0329,-4.0329,-4.0329,-4.0329,-4.0329,-4.0329,-4.0329,-4.0329,-4.0329,-4.0329,0.0,0.0,0.0,0.0,0.0,0.0,0.0,0.0,0.0,0.0,0.0,0.0,0.0,0.0,0.0,0.0,0.0,0.0,0.0,0.0,0.0,0.0,0.0,0.0,0.0,-4.0344,0.0,0.0,0.0,0.0,0.0,0.0,0.0,0.0,0.0,0.0,0.0,-4.0792,-4.0858,-4.0859,-4.0878,-4.0926,-4.0954,-4.0954,0.0,0.0,0.0,0.0,0.0,0.0,0.0,0.0,0.0,0.0,0.0,0.0,0.0,0.0,-4.1025,-4.096,-4.0971,-4.0971,-4.0971,0.0,0.0,0.0,0.0,0.0,0.0,0.0,0.0,0.0,0.0,0.0,0.0,0.0,0.0,-3.9889,-3.9826,-3.9826,0.0,0.0,0.0,0.0,0.0,0.0,0.0,0.0,-3.9975,-4.0038,-4.0137,-4.0176,-4.0215,-4.031,-4.0329,-4.0329,0.0,0.0,0.0,0.0,0.0,0.0,0.0,0.0,-4.0329,-4.0329,-4.0329,-4.0329,-4.0329,-4.0329,-4.0329,-4.0329,-4.0329,-4.0329,-4.0329,-4.0329,-4.0329,0.0,0.0,0.0,0.0,0.0,0.0,0.0,0.0,0.0,0.0,0.0,0.0,0.0,0.0,0.0,0.0,0.0,0.0,0.0,0.0,0.0,0.0,0.0,-4.0377,0.0,0.0,0.0,0.0,0.0,0.0,0.0,0.0,0.0,-4.0826,-4.0837,-4.0868,-4.0926,-4.0935,-4.0943,-4.0988,0.0,0.0,0.0,0.0,0.0,0.0,0.0,-4.1563,-4.1855,-4.1914,-4.1921,-4.1903,-4.1955,-4.2011,-4.2003,0.0,0.0,-4.1156,-4.1286,-4.1487,-4.1487,-4.174,-4.1955,-4.1935,-4.1935,-4.1942,0.0,0.0,0.0,0.0,-3.9889,0.0,0.0,0.0,-3.9911,-3.9911,0.0,-3.9911,0.0,0.0,0.0,0.0,-3.9889,-3.9911,0.0,0.0,-3.9996,-4.0058,-4.0196,-4.0196,-4.0234,-4.031,-4.0329,-4.0329,-4.0329,-4.0329,0.0,0.0,0.0,0.0,0.0,0.0,-4.0329,-4.0329,-4.0329,-4.0329,-4.0329,-4.0329,-4.0329,-4.0329,-4.0329,-4.0329,-4.0329,-4.0329,-4.0329,-4.0329,-4.0329,0.0,0.0,0.0,0.0,0.0,0.0,0.0,0.0,0.0,0.0,0.0,0.0,0.0,0.0,0.0,0.0,0.0,0.0,0.0,0.0,-4.0345,0.0,0.0,0.0,0.0,0.0,0.0,0.0,0.0,0.0,-4.0896,-4.0917,-4.0896,-4.0913,-4.0996,0.0,0.0,0.0,0.0,-4.1062,-4.1103,-4.1084,-4.1402,-4.2214,-4.2338,-4.2611,-4.3448,0.0,0.0,-4.359,-4.3646,-4.3636,-4.3675,-4.3617,-4.3168,-4.1525,-4.1896,-4.2422,-4.2442,-4.3046,-4.3636,-4.3675,-4.3514,-4.3553,-4.0015,0.0,0.0,0.0,0.0,-3.9954,-3.9975,-3.9975,-4.0036,-4.0015,-3.9975,-3.9994,0.0,0.0,0.0,0.0,0.0,0.0,-3.9975,-4.0015,-4.0098,-4.0176,-4.0196,-4.0253,-4.0291,-4.031,-4.0329,-4.0329,-4.0329,-4.0329,-4.0329,-4.0329,0.0,0.0,0.0,0.0,-4.0329,-4.0329,-4.0329,-4.0329,-4.0329,-4.0329,-4.0329,-4.0329,-4.0329,-4.0329,-4.0329,-4.0329,-4.0329,-4.0329,-4.0329,0.0,0.0,0.0,0.0,0.0,0.0,0.0,0.0,0.0,0.0,0.0,0.0,0.0,0.0,0.0,0.0,0.0,0.0,0.0,-4.0382,-4.0379,-4.0427,0.0,0.0,0.0,0.0,0.0,0.0,0.0,0.0,0.0,-4.0964,-4.0976,-4.0996,0.0,0.0,-4.124,-4.185,-4.1928,-4.2149,-4.2753,-4.2857,0.0,-4.3195,-4.3214,-4.3337,-4.3641,-4.368,-4.3665,-4.367,-4.369,-4.37,-4.3723,-4.3704,-4.3513,-4.3107,-4.3138,-4.3324,-4.3344,-4.3539,-4.3695,-4.3695,-4.3695,-4.3714,-4.0098,-4.0058,-4.0015,-3.9975,-3.9994,-4.0036,-4.0057,-4.0036,-4.0077,-4.0077,-4.0036,-4.0036,-4.0015,-3.9994,-3.9975,0.0,0.0,0.0,-4.0057,-4.0058,-4.0176,-4.0234,-4.0253,-4.0291,-4.0463,-4.0788,-4.0788,-4.096,-4.1304,-4.1304,-4.1304,-4.1266,0.0,-4.0329,-4.0329,-4.0329,-4.0329,-4.0329,-4.0329,-4.0329,-4.0329,-4.0329,-4.0329,-4.0329,-4.0329,-4.0329,-4.0329,-4.0329,-4.0329,-4.0329,-4.0329,-4.0329,0.0,0.0,0.0,0.0,0.0,0.0,0.0,0.0,0.0,0.0,0.0,-4.0329,-4.0329,0.0,0.0,0.0,-4.0329,-4.0328,-4.0398,-4.0398,0.0,0.0,0.0,0.0,0.0,0.0,0.0,-4.147,-4.1539,-4.1669,-4.1987,-4.2059,-4.1922,-4.1584,-4.1818,-4.2214,-4.2734,0.0,-4.3013,-4.3545,-4.3643,-4.3746,-4.405,-4.4128,-4.4231,-4.4626,-4.4694,-4.4714,-4.4733,-4.4738,-4.4723,-4.4727,-4.4731,-4.4731,-4.4719,-4.4731,-4.4606,-4.4313,-4.4508,-4.4723,-4.4723,-4.4723,-4.4742,-4.0387,-4.0406,-4.0327,-4.025,-4.0096,-4.0098,-4.0098,-4.0098,-4.0117,-4.0098,-4.0098,-4.0098,-4.0136,-4.0212,-4.0212,0.0,-4.0307,-4.0307,-4.0346,-4.0406,-4.0406,-4.0444,-4.0501,-4.052,-4.0883,-4.1609,-4.1609,-4.2011,-4.2737,-4.2775,-4.2794,-4.2756,-4.1266,-4.0501,-4.0501,-4.052,-4.0501,-4.0501,-4.054,-4.052,-4.0501,-4.0501,-4.0501,-4.052,-4.0501,-4.052,-4.0501,-4.052,-4.0501,-4.0501,-4.0501,-4.0501,-4.0501,0.0,0.0,0.0,0.0,0.0,0.0,0.0,0.0,0.0,0.0,0.0,0.0,0.0,0.0,0.0,-4.0329,0.0,-4.0398,-4.0456,0.0,0.0,0.0,-4.0963,-4.1091,-4.1168,-4.1509,-4.231,0.0,0.0,-4.3499,-4.3704,-4.347,-4.2617,-4.3137,-4.363,-4.3694,-4.3713,-4.3758,-4.3963,-4.3929,-4.4163,-4.4904,-4.5021,-4.5241,-4.5919,-4.626,-4.6186,-4.6191,-4.6195,-4.628,-4.6183,-4.628,-4.6241,-4.628,-4.6241,-4.6163,-4.5379,-4.5773,-4.6241,-4.6163,-4.6163,-4.6144,-4.2182,-4.2182,-4.2162,-4.1378,-4.0117,-4.0157,-4.0176,-4.0176,-4.0234,-4.0234,-4.0176,-4.0195,-4.0519,-4.1087,-4.1087,-4.1411,-4.2001,-4.2042,-4.2084,-4.2104,-4.2143,-4.2182,-4.2202,-4.2202,-4.2316,-4.2488,-4.2488,-4.2603,-4.2794,-4.2794,-4.2794,-4.2775,-4.2393,-4.2202,-4.2202,-4.2202,-4.2202,-4.2202,-4.2221,-4.2221,-4.2202,-4.2202,-4.2202,-4.2202,-4.2202,-4.2202,-4.2221,-4.2202,-4.2202,-4.2221,-4.2221,-4.2221,-4.2221,-4.2221,0.0,0.0,0.0,0.0,0.0,0.0,0.0,0.0,0.0,-4.0329,-4.0329,0.0,-4.0329,0.0,-4.0329,-4.0328,-4.0417,-4.0991,0.0,0.0,-4.224,-4.2724,-4.2798,-4.2898,-4.3066,-4.3276,-4.3319,-4.3382,-4.3577,-4.4192,-4.4548,-4.4289,-4.3938,-4.388,-4.447,-4.4607,-4.4841,-4.5426,-4.5548,-4.5685,-4.587,-4.5976,-4.6039,-4.6234,-4.6316,-4.6296,-4.6296,-4.63,-4.63,-4.63,-4.63,-4.63,-4.6339,-4.6807,-4.7178,-4.6983,-4.6651,-4.63,-4.63,-4.6319,-4.6319,-4.2794,-4.2794,-4.2794,-4.22,-4.1321,-4.1341,-4.136,-4.136,-4.1399,-4.138,-4.1341,-4.136,-4.1589,-4.2007,-4.2007,-4.2274,-4.2694,-4.2714,-4.2735,-4.2735,-4.2774,-4.2794,-4.2794,-4.2794,-4.3004,-4.3348,-4.3348,-4.3539,-4.3902,-4.3902,-4.3921,-4.3902,-4.3921,-4.3902,-4.3883,-4.3176,-4.2794,-4.2794,-4.2794,-4.2794,-4.2794,-4.2794,-4.2794,-4.2794,-4.2794,-4.2794,-4.2794,-4.2794,-4.2794,-4.2794,-4.2794,-4.2794,-4.2794,-4.2794,-4.2794,0.0,0.0,0.0,0.0,0.0,0.0,0.0,0.0,0.0,0.0,0.0,-4.1399,-4.1418,-4.1418,-4.1437,-4.149,-4.193,-4.2305,-4.2463,-4.2941,-4.3299,-4.3388,-4.3491,-4.372,-4.4133,-4.4176,-4.4337,-4.4707,-4.5192,-4.5533,-4.5533,-4.5128,-4.5016,-4.5416,-4.5514,-4.5714,-4.6167,-4.6245,-4.6245,-4.6292,-4.6628,-4.6885,-4.6905,-4.7178,-4.7412,-4.7412,-4.7412,-4.7412,-4.7412,-4.7412,-4.7412,-4.7432,-4.7783,-4.8135,-4.8076,-4.7764,-4.7451,-4.7412,-4.7412,-4.7412,-4.3138,-4.31,-4.3119,-4.3119,-4.3119,-4.3138,-4.3004,-4.2794,-4.2794,-4.2794,-4.2794,-4.2794,-4.287,-4.2947,-4.2947,-4.3023,-4.31,-4.3119,-4.3119,-4.3119,-4.3119,-4.3119,-4.3119,-4.3119,-4.3482,-4.415,-4.4169,-4.4571,-4.5277,-4.5277,-4.5277,-4.5277,-4.5277,-4.5277,-4.522,-4.3845,-4.3138,-4.3119,-4.3119,-4.3119,-4.3119,-4.3119,-4.3119,-4.3119,-4.3119,-4.3119,-4.3119,-4.3119,-4.3119,-4.3119,-4.3119,-4.3158,-4.3139,-4.3139,-4.3119,0.0,-4.3139,0.0,0.0,0.0,0.0,0.0,0.0,0.0,0.0,-4.2814,-4.2814,-4.2814,-4.2814,-4.2833,-4.2908,-4.3022,-4.3169,-4.3351,-4.3472,-4.3595,-4.3699,-4.3763,-4.415,-4.497,-4.5053,-4.5364,-4.6008,-4.625,-4.6284,-4.6416,-4.6405,-4.6464,-4.6596,-4.6538,-4.6464,-4.6475,-4.6554,-4.6827,-4.6846,-4.7315,-4.7744,-4.7822,-4.8232,-4.8779,-4.8701,-4.872,-4.8759,-4.874,-4.8662,-4.872,-4.8798,-4.8857,-4.8974,-4.8974,-4.9052,-4.9032,-4.8759,-4.8642,-4.8798,-4.4819,-4.4819,-4.4819,-4.4819,-4.4819,-4.4838,-4.4055,-4.2794,-4.2794,-4.2794,-4.2794,-4.2794,-4.3157,-4.3768,-4.3787,-4.415,-4.48,-4.4819,-4.4819,-4.4819,-4.4819,-4.4819,-4.4838,-4.4819,-4.4895,-4.5048,-4.5067,-4.5125,-4.5277,-4.5277,-4.5277,-4.5277,-4.5277,-4.5277,-4.5277,0.0,0.0,0.0,-4.4838,-4.4819,-4.4819,-4.4819,-4.4819,-4.4819,-4.4838,0.0,-4.4819,-4.4819,-4.4819,-4.4819,-4.4879,0.0,0.0,0.0,0.0,0.0,0.0,0.0,0.0,0.0,0.0,0.0,-4.4902,-4.4346,-4.3024,-4.2889,-4.2889,-4.2889,-4.2889,-4.2908,-4.2998,-4.3651,-4.4107,-4.4257,-4.4877,-4.5355,-4.5421,-4.547,-4.5638,-4.583,-4.5928,-4.6014,-4.6203,-4.622,-4.6523,-4.7148,-4.7284,-4.7577,-4.8201,-4.7708,-4.737,-4.7373,-4.7822,-4.8271,-4.833,-4.8447,-4.858,-4.8603,-4.8662,-4.8837,-4.8896,-4.8876,-4.8837,-4.8876,-4.8798,-4.8837,-4.8857,-4.9345,-4.9872,-4.9852,-5.0399,-5.0477,-4.913,-4.8818,-4.8798,-4.5277,-4.5277,-4.5277,-4.5277,0.0,-4.5277,-4.4819,-4.4017,-4.4017,-4.4036,-4.4036,-4.4036,-4.4265,-4.4647,-4.4647,-4.4876,-4.5277,-4.5277,-4.5507,-4.5889,-4.5889,-4.6137,-4.6538,-4.6519,-4.6538,-4.6538,-4.6538,-4.6538,-4.6519,-4.6519,-4.6538,-4.6538,-4.6538,-4.6538,-4.6538,-4.6538,-4.6137,-4.5297,-4.5277,-4.5277,-4.5277,-4.5277,-4.5277,-4.5277,-4.5338,0.0,0.0,0.0,0.0,0.0,0.0,0.0,0.0,-4.54,0.0,-4.54,-4.54,-4.54,-4.54,-4.54,-4.5419,-4.5438,-4.5457,-4.5111,-4.4211,-4.4116,-4.4135,-4.4116,-4.4135,-4.4153,-4.4227,-4.465,-4.4934,-4.5089,-4.5484,-4.5776,-4.5854,-4.5929,-4.6016,-4.6095,-4.6491,-4.6789,-4.6804,-4.7196,-4.7561,-4.8016,-4.8125,-4.8312,-4.8664,-4.846,-4.8196,-4.8196,-4.8508,-4.8782,-4.884,-4.9211,-4.9445,-4.9464,-4.9796,-5.005,-5.0089,-5.0089,-5.0089,-5.0069,-5.0074,-5.0098,-5.0117,-5.0453,-5.075,-5.077,-5.1082,-5.116,-5.0223,-5.0087,-5.0087,-4.5736,-4.5736,-4.5755,-4.5736,-4.5736,-4.5736,-4.5715,-4.5696,-4.5562,0.0,0.0,-4.5715,-4.5736,-4.5736,-4.5736,-4.5736,-4.5736,-4.5736,-4.6099,-4.671,-4.6729,-4.7111,-4.778,-4.7799,-4.7799,-4.7799,-4.7799,-4.7799,-4.7799,-4.7799,-4.7799,-4.7799,-4.7799,-4.7799,-4.7818,-4.784,-4.7152,-4.5854,-4.5776,-4.5736,-4.5755,-4.5757,-4.5681,-4.5547,-4.5589,-4.5552,-4.5418,-4.54,-4.54,-4.54,-4.5419,-4.5419,-4.5419,-4.5438,-4.5438,-4.5438,-4.5438,-4.5457,-4.5438,-4.5438,-4.5476,-4.5513,-4.5568,-4.5568,-4.5438,-4.5438,-4.5438,-4.5457,-4.5438,-4.5457,-4.5513,-4.5513,-4.5568,-4.5673,-4.5822,-4.5963,-4.6032,-4.6287,-4.6504,-4.653,-4.7155,-4.7612,-4.7621,-4.8182,-4.8791,-4.8908,-4.897,-4.9094,-4.9172,-4.9159,-4.9112,-4.9307,-4.9488,-4.9346,-4.9385,-4.9853,-5.0302,-5.0347,-5.0907,-5.1375,-5.1394,-5.1394,-5.1394,-5.1238,-5.1386,-5.1333,-5.1357,-5.1303,-5.139,-5.139,-5.139,-5.139,-5.139,-5.139,-5.1312,-4.7436,-4.7474,-4.7455,-4.7455,-4.7436,-4.7388,-4.7323,-4.722,-4.6523,-4.666,-4.7346,-4.7346,-4.7411,-4.7455,-4.7455,-4.7474,-4.7455,-4.7455,-4.7513,-4.7627,-4.7627,-4.7685,-4.7799,-4.7799,-4.7799,-4.7799,-4.7799,-4.7799,-4.7799,-4.7818,-4.7799,-4.7818,-4.7799,-4.784,-4.7886,-4.7947,-4.7853,-4.7623,-4.7499,-4.7455,-4.7455,-4.7499,-4.7197,-4.6449,-4.6472,-4.6147,-4.5458,-4.5419,-4.54,-4.54,-4.5476,-4.5495,-4.5475,-4.5589,-4.5568,-4.5568,-4.5568,-4.5568,-4.5587,-4.5568,-4.5568,-4.5586,-4.5586,-4.5586,-4.5568,-4.5568,-4.5568,-4.5568,-4.5607,-4.5568,-4.5586,-4.5643,-4.5719,-4.5789,-4.6328,-4.6783,-4.6907,-4.7536,-4.7965,-4.8017,-4.8285,-4.8416,-4.8467,-4.8652,-4.9109,-4.9644,-4.9809,-5.0042,-5.0449,-5.0322,-5.0296,-5.0829,-5.1043,-5.1043,-5.0862,-5.1063,-5.1115,-5.1219,-5.1271,-5.1388,-5.1388,-5.1369,-5.1388,-5.1394,-5.1394,-5.1394,-5.14,-5.14,-5.1386,-5.1386,-5.1386,-5.1386,-5.1396,-5.1401,-5.1381,-4.7686,-4.7686,-4.7686,-4.7666,-4.7666,-4.7662,-4.7862,-4.8213,-4.7876,-4.7653,-4.7643,-4.7662,-4.7662,-4.7666,-4.7709,-4.7686,-4.7666,-4.7732,-4.798,-4.8461,-4.8483,-4.8735,-4.9137,-4.9175,-4.9156,-4.9156,-4.9156,-4.9175,-4.9201,-4.9201,-4.9223,-4.9245,-4.9245,-4.9286,-4.9329,-4.935,-4.935,-4.9311,-4.8407,-4.7905,-4.7905,-4.7928,-4.7737,-4.7373,-4.7433,-4.7261,-4.6877,-4.6877,-4.6877,-4.6858,-4.6896,-4.6896,-4.6915,-4.6933,-4.6951,-4.6951,-4.6951,-4.6951,-4.6951,-4.6971,-4.6951,-4.6951,-4.6951,-4.6951,-4.6932,-4.6105,-4.5797,-4.624,-4.6297,-4.649,-4.6894,-4.6971,-4.6989,-4.7006,-4.739,-4.7617,-4.7742,-4.8041,-4.8357,-4.8468,-4.8897,-4.9207,-4.9244,-4.9687,-5.0106,-5.0553,-5.0584,-5.077,-5.1081,-5.087,-5.078,-5.1187,-5.1273,-5.1273,-5.1292,-5.1292,-5.1292,-5.1292,-5.1292,-5.1292,-5.1292,-5.1273,-5.132,-5.1328,-5.1362,-5.1349,-5.1336,-5.1388,-5.1394,-5.1394,-5.1394,-5.14,-5.1386,-5.1386,-5.1391,-4.8147,-4.8167,-4.8167,-4.8142,-4.8118,-4.8118,-4.8447,-4.8958,-4.8996,-4.8643,-4.8125,-4.8099,-4.8142,-4.8167,-4.8167,-4.8167,-4.8186,-4.8215,-4.8619,-4.921,-4.9296,-4.9667,-5.0221,-5.0278,-5.0259,-5.0302,-5.0302,-5.0367,-5.039,-5.0412,-5.0457,-5.05,-5.0521,-5.0521,-5.054,-5.0542,-5.0542,-5.0466,-4.9257,-4.8624,-4.8564,-4.8565,-4.8507,-4.8296,-4.8356,-4.8299,-4.8107,-4.8106,-4.8105,-4.8105,-4.8105,-4.8105,-4.8105,-4.8105,-4.8105,-4.8105,-4.8105,-4.8105,-4.8105,-4.8105,-4.8105,-4.8105,-4.8105,-4.8105,-4.8009,-4.6932,-4.6432,-4.7048,-4.7182,-4.7432,-4.7894,-4.8048,-4.8105,-4.8105,-4.8335,-4.8468,-4.8505,-4.8692,-4.8874,-4.8999,-4.9552,-4.9984,-5.0143,-5.0649,-5.1024,-5.1037,-5.1088,-5.1081,-5.1081,-5.1081,-5.1125,-5.1159,-5.118,-5.1171,-5.119,-5.119,-5.1171,-5.1171,-5.119,-5.1171,-5.1181,-5.1201,-5.123,-5.1269,-5.1276,-5.1273,-5.1289,-5.1323,-5.1349,-5.1342,-5.1342,-5.1349,-5.1382,-5.1388,-5.14,-4.9841,-4.9879,-4.9778,-4.9803,-4.9622,-4.9641,-4.9597,-4.9599,-4.9608,-4.9589,-4.9457,-4.9698,-4.9746,-4.9854,-4.9797,-4.9759,-4.9778,-4.9879,-4.9879,-4.9936,-4.9993,-5.0081,-5.0212,-5.0231,-5.0255,-5.0302,-5.0348,-5.039,-5.0412,-5.0478,-5.0481,-5.05,-5.0542,-5.0584,-5.0603,-5.0663,-5.0663,-5.0663,-5.0548,-5.0393,-5.0291,-5.0312,-4.9968,-4.92,-4.924,-4.8913,-4.8241,-4.8105,-4.8125,-4.8105,-4.8163,-4.8125,-4.8144,-4.8125,-4.8125,-4.8144,-4.8144,-4.8105,-4.8125,-4.8105,-4.8182,-4.8105,-4.8202,-4.8202,-4.8182,-4.8009,-4.7894,-4.8029,-4.8009,-4.8086,-4.8105,-4.8202,-4.8279,-4.8375,-4.8875,-4.9317,-4.9431,-5.0027,-5.0506,-5.0578,-5.0574,-5.0797,-5.0732,-5.0894,-5.102,-5.1067,-5.1067,-5.1062,-5.1062,-5.1062,-5.1075,-5.1089,-5.1108,-5.1105,-5.1105,-5.1097,-5.1117,-5.1105,-5.1105,-5.1117,-5.1117,-5.1147,-5.1219,-5.1219,-5.122,-5.1211,-5.122,-5.122,-5.123,-5.1258,-5.1239,-5.1239,-5.13,-5.1349,-5.1388,-4.9871,-4.9843,-4.9843,-4.9816,-4.9807,-4.9759,-4.975,-4.9711,-4.9711,-4.9711,-4.9711,-4.9788,-4.9816,-4.9843,-4.9862,-4.989,-4.9925,-4.9978,-5.0005,-5.0057,-5.0082,-5.0133,-5.0188,-5.0207,-5.0231,-5.0302,-5.0367,-5.0435,-5.0459,-5.0563,-5.0623,-5.0623,-5.0643,-5.0682,-5.0663,-5.0702,-5.0683,-5.0683,-5.0683,-5.0682,-5.0623,-5.0643,-5.049,-5.0183,-5.0164,-5.0029,-4.9683,-4.9625,-4.9644,-4.9644,-4.9625,-4.9644,-4.9625,-4.9644,-4.9644,-4.9644,-4.9644,-4.9644,-4.9644,-4.9625,-4.9625,-4.9644,-4.9644,-4.9644,-4.9625,-4.9644,-4.9644,-4.9567,-4.9183,-4.9048,-4.9529,-4.9644,-4.9644,-4.9683,-4.9971,-5.0183,-5.0202,-5.0471,-5.0702,-5.0739,-5.0757,-5.0793,-5.0825,-5.0861,-5.0893,-5.0929,-5.0964,-5.0979,-5.0979,-5.0975,-5.099,-5.0971,-5.0981,-5.1029,-5.1069,-5.1082,-5.1082,-5.1082,-5.1082,-5.1082,-5.1082,-5.1114,-5.1127,-5.1132,-5.1156,-5.1147,-5.1139,-5.1139,-5.1159,-5.118,-5.1201,-5.122,-5.1239,-5.1256,-5.1284,-4.9711,-4.9711,-4.9711,-4.9692,-4.9663,-4.9682,-4.9634,-4.9604,-4.9604,-4.9604,-4.9555,-4.9574,-4.9574,-4.9604,-4.9663,-4.9721,-4.9778,-4.9835,-4.9871,-4.9925,-4.9978,-5.0057,-5.0139,-5.0163,-5.0212,-5.0302,-5.039,-5.0478,-5.0542,-5.0643,-5.0683,-5.0683,-5.0683,-5.0683,-5.0683,-5.0683,-5.0683,-5.0683,-5.0683,-5.0683,-5.0683,-5.0683,-5.0683,-5.0683,-5.0683,-5.0683,-5.0683,-5.0683,-5.0683,-5.0683,-5.0683,-5.0683,-5.0683,-5.0683,-5.0683,-5.0683,-5.0683,-5.0683,-5.0683,-5.0683,-5.0683,-5.0683,-5.0683,-5.0683,-5.0683,-5.0683,-5.0683,-5.0606,-5.0125,-5.0048,-5.0548,-5.0683,-5.0683,-5.0683,-5.0683,-5.0683,-5.0664,-5.0683,-5.0683,-5.0702,-5.0702,-5.072,-5.0775,-5.0793,-5.081,-5.0829,-5.0827,-5.0863,-5.0899,-5.0913,-5.0909,-5.089,-5.0906,-5.0921,-5.1039,-5.1039,-5.1053,-5.1039,-5.102,-5.1034,-5.1053,-5.1053,-5.1067,-5.1089,-5.1069,-5.1082,-5.1108,-5.1101,-5.1101,-5.1144,-5.1178,-5.1169,-5.1169,-5.119,-5.1201,-4.9711,-4.9711,-4.9692,-4.9634,-4.9574,-4.9574,-4.9495,-4.934,-4.934,-4.9308,-4.9244,-4.9262,-4.9276,-4.934,-4.9574,-4.9692,-4.9692,-4.9721,-4.9721,-4.975,-4.9807,-4.989,-5.0005,-5.0082,-5.0182,-5.0302,-5.0416,-5.0542,-5.0682,-5.0683,-5.0683,-5.0683,-5.0683,-5.0683,-5.0683,-5.0683,-5.0683,-5.0683,-5.0683,-5.0683,-5.0683,-5.0683,-5.0683,-5.0683,-5.0683,-5.0683,-5.0683,-5.0683,-5.0683,-5.0683,-5.0683,-5.0683,-5.0683,-5.0683,-5.0683,-5.0683,-5.0683,-5.0683,-5.0683,-5.0683,-5.0683,-5.0683,-5.0683,-5.0683,-5.0683,-5.0683,-5.0683,-5.0683,-5.0606,-5.0606,-5.0664,-5.0683,-5.0683,-5.0683,-5.0683,-5.0683,-5.0683,-5.0683,-5.0683,-5.0702,-5.0702,-5.0702,-5.072,-5.0775,-5.0793,-5.0793,-5.0793,-5.0829,-5.0899,-5.0899,-5.0913,-5.0909,-5.0906,-5.0906,-5.0906,-5.0941,-5.0941,-5.0921,-5.0956,-5.0941,-5.0941,-5.0956,-5.099,-5.102,-5.1034,-5.1048,-5.1081,-5.1081,-5.1095,-5.1108,-5.1114,-5.1108,-5.112,-5.1167,-5.1178,-4.9532,-4.9464,-4.9434,-4.9421,-4.9358,-4.934,-4.9276,-4.9244,-4.9244,-4.923,-4.9179,-4.9197,-4.923,-4.9244,-4.934,-4.9483,-4.9604,-4.9653,-4.9663,-4.9692,-4.9778,-4.989,-5.0005,-5.0082,-5.0207,-5.0367,-5.0438,-5.0582,-5.0683,-5.0683,-5.0683,-5.0683,-5.0683,-5.0683,-5.0683,-5.0683,-5.0683,-5.0683,-5.0683,-5.0683,-5.0683,-5.0683,-5.0683,-5.0683,-5.0683,-5.0683,-5.0683,-5.0683,-5.0683,-5.0683,-5.0683,-5.0683,-5.0683,-5.0683,-5.0683,-5.0683,-5.0683,-5.0683,-5.0683,-5.0683,-5.0683,-5.0683,-5.0683,-5.0683,-5.0683,-5.0683,-5.0683,-5.0683,-5.0683,-5.0683,-5.0683,-5.0683,-5.0683,-5.0683,-5.0683,-5.0683,-5.0683,-5.0683,-5.0683,-5.0683,-5.0683,-5.0702,-5.0702,-5.074,-5.074,-5.0739,-5.0775,-5.081,-5.088,-5.0897,-5.0893,-5.0909,-5.0906,-5.0906,-5.0906,-5.0906,-5.0906,-5.0906,-5.0906,-5.0906,-5.0906,-5.0906,-5.0956,-5.0956,-5.0971,-5.0971,-5.1005,-5.102,-5.1039,-5.1053,-5.1062,-5.1062,-5.1075,-5.1114,-5.1127,-4.9327,-4.9276,-4.9257,-4.9244,-4.9197,-4.9197,-4.9179,-4.9164,-4.9183,-4.9131,-4.9113,-4.9131,-4.9131,-4.9183,-4.9164,-4.9276,-4.9483,-4.9495,-4.9544,-4.9634,-4.974,-4.9843,-4.9978,-5.0057,-5.0188,-5.039,-5.05,-5.0603,-5.0702,-5.0683,-5.0683,-5.0683,-5.0683,-5.0683,-5.0683,-5.0683,-5.0683,-5.0683,-5.0683,-5.0683,-5.0683,-5.0683,-5.0683,-5.0683,-5.0683,-5.0683,-5.0683,-5.0683,-5.0683,-5.0683,-5.0683,-5.0683,-5.0683,-5.0683,-5.0683,-5.0683,-5.0683,-5.0683,-5.0683,-5.0683,-5.0683,-5.0683,-5.0683,-5.0683,-5.0683,-5.0683,-5.0683,-5.0683,-5.0683,-5.0683,-5.0683,-5.0683,-5.0683,-5.0683,-5.0683,-5.0683,-5.0683,-5.0683,-5.0702,-5.0702,-5.0721,-5.074,-5.0721,-5.0721,-5.074,-5.072,-5.0775,-5.0829,-5.088,-5.0897,-5.0909,-5.089,-5.0906,-5.0906,-5.0906,-5.0906,-5.0906,-5.0906,-5.0906,-5.0906,-5.0906,-5.0906,-5.0906,-5.0906,-5.0906,-5.0906,-5.0925,-5.0956,-5.0975,-5.099,-5.0971,-5.0986,-5.102,-5.1034,-5.1048,-4.9179,-4.9197,-4.9179,-4.9179,-4.9197,-4.9164,-4.915,-4.9083,-4.9083,-4.903,-4.8943,-4.889,-4.8996,-4.9049,-4.9083,-4.9164,-4.9308,-4.934,-4.939,-4.9521,-4.9653,-4.9778,-4.9906,-5.0057,-5.0231,-5.0393,-5.0521,-5.0642,-5.0683,-5.0683,-5.0683,-5.0683,-5.0683,-5.0683,-5.0683,-5.0683,-5.0683,-5.0683,-5.0683,-5.0683,-5.0683,-5.0683,-5.0683,-5.0683,-5.0683,-5.0683,-5.0683,-5.0683,-5.0683,-5.0683,-5.0683,-5.0683,-5.0683,-5.0683,-5.0683,-5.0683,-5.0683,-5.0683,-5.0683,-5.0683,-5.0683,-5.0683,-5.0683,-5.0683,-5.0683,-5.0683,-5.0683,-5.0683,-5.0702,-5.0683,-5.0702,-5.0702,-5.0702,-5.0702,-5.0702,-5.0702,-5.0702,-5.0702,-5.0702,-5.072,-5.0757,-5.0812,-5.0812,-5.0812,-5.0812,-5.0793,-5.081,-5.0846,-5.088,-5.0897,-5.0897,-5.0909,-5.0906,-5.0906,-5.0906,-5.0906,-5.0906,-5.0906,-5.0906,-5.0906,-5.0906,-5.0906,-5.0906,-5.0906,-5.0906,-5.0906,-5.0906,-5.0941,-5.0925,-5.0941,-5.0921,-5.0921,-5.0956,-5.0971,-5.0986,-4.9164,-4.9116,-4.9116,-4.9064,-4.9012,-4.9012,-4.8978,-4.8962,-4.8962,-4.8962,-4.889,-4.889,-4.8909,-4.8962,-4.8962,-4.9046,-4.9211,-4.9244,-4.9358,-4.9563,-4.9663,-4.9788,-4.9978,-5.0108,-5.0302,-5.05,-5.0604,-5.0663,-5.0683,-5.0683,-5.0683,-5.0683,-5.0683,-5.0683,-5.0683,-5.0683,-5.0683,-5.0683,-5.0683,-5.0683,-5.0683,-5.0683,-5.0683,-5.0683,-5.0683,-5.0683,-5.0683,-5.0683,-5.0683,-5.0683,-5.0683,-5.0683,-5.0683,-5.0683,-5.0683,-5.0683,-5.0683,-5.0683,-5.0683,-5.0683,-5.0683,-5.0683,-5.0683,-5.0683,-5.0683,-5.0683,-5.0683,-5.0702,-5.0702,-5.0702,-5.0702,-5.0739,-5.0757,-5.0702,-5.0758,-5.0776,-5.0758,-5.0757,-5.0776,-5.0775,-5.0773,-5.0793,-5.0829,-5.0829,-5.0829,-5.0863,-5.0863,-5.088,-5.0893,-5.0893,-5.0909,-5.089,-5.0906,-5.0906,-5.0906,-5.0906,-5.0906,-5.0906,-5.0906,-5.0906,-5.0906,-5.0906,-5.0906,-5.0906,-5.0906,-5.0906,-5.0906,-5.0906,-5.0906,-5.0906,-5.0906,-5.0906,-5.0906,-5.0921,-5.0956,-4.9064,-4.9015,-4.9015,-4.8996,-4.889,-4.889,-4.889,-4.889,-4.889,-4.889,-4.8909,-4.8943,-4.8962,-4.8996,-4.8978,-4.9113,-4.9211,-4.9244,-4.9371,-4.9604,-4.9692,-4.9816,-5.0031,-5.0212,-5.0393,-5.0582,-5.0663,-5.0683,-5.0683,-5.0683,-5.0683,-5.0683,-5.0683,-5.0683,-5.0683,-5.0683,-5.0683,-5.0683,-5.0683,-5.0683,-5.0683,-5.0683,-5.0683,-5.0683,-5.0683,-5.0683,-5.0683,-5.0683,-5.0683,-5.0683,-5.0683,-5.0683,-5.0683,-5.0683,-5.0683,-5.0683,-5.0683,-5.0683,-5.0683,-5.0683,-5.0683,-5.0683,-5.0683,-5.0683,-5.0683,-5.0683,-5.0702,-5.0683,-5.072,-5.0738,-5.0738,-5.0793,-5.081,-5.0775,-5.0793,-5.0812,-5.0812,-5.081,-5.0827,-5.0827,-5.0844,-5.0844,-5.0844,-5.0844,-5.0861,-5.0897,-5.0897,-5.0913,-5.0909,-5.089,-5.0906,-5.0906,-5.0906,-5.0906,-5.0906,-5.0906,-5.0906,-5.0906,-5.0906,-5.0906,-5.0906,-5.0906,-5.0906,-5.0906,-5.0906,-5.0906,-5.0906,-5.0906,-5.0906,-5.0906,-5.0906,-5.0906,-5.0906,-5.0906,-5.0906,-4.8909,-4.889,-4.889,-4.8909,-4.889,-4.889,-4.889,-4.8909,-4.8909,-4.8909,-4.8962,-4.9049,-4.9101,-4.9135,-4.9131,-4.9211,-4.9308,-4.9308,-4.9434,-4.9663,-4.9759,-4.9917,-5.0089,-5.0371,-5.0523,-5.0623,-5.0683,-5.0702,-5.0721,-5.0721,-5.0702,-5.0702,-5.0721,-5.0702,-5.0702,-5.0702,-5.0702,-5.0702,-5.0683,-5.0683,-5.0683,-5.0683,-5.0683,-5.0683,-5.0683,-5.0683,-5.0683,-5.0683,-5.0683,-5.0683,-5.0683,-5.0683,-5.0683,-5.0683,-5.0683,-5.0683,-5.0683,-5.0683,-5.0683,-5.0683,-5.0683,-5.0683,-5.0702,-5.076,-5.0875,-5.0952,-5.0952,-5.0932,-5.0968,-5.0908,-5.0868,-5.0844,-5.088,-5.0899,-5.0844,-5.0827,-5.081,-5.0863,-5.088,-5.0897,-5.0893,-5.089,-5.089,-5.089,-5.089,-5.0909,-5.0909,-5.089,-5.089,-5.0906,-5.0906,-5.0906,-5.0906,-5.0906,-5.0906,-5.0906,-5.0906,-5.0906,-5.0906,-5.0906,-5.0906,-5.0906,-5.0906,-5.0906,-5.0906,-5.0906,-5.0906,-5.0906,-5.0906,-5.0906,-5.0906,-5.0906,-5.0906,-5.0906,-5.0906,-4.889,-4.889,-4.889,-4.889,-4.889,-4.889,-4.889,-4.8909,-4.8996,-4.9049,-4.9049,-4.915,-4.9183,-4.9164,-4.9179,-4.9244,-4.9289,-4.9352,-4.9495,-4.9692,-4.9871,-5.0082,-5.0302,-5.0483,-5.0606,-5.0683,-5.074,-5.0776,-5.0757,-5.0776,-5.0757,-5.0757,-5.0776,-5.0757,-5.0757,-5.072,-5.0682,-5.0702,-5.0683,-5.0683,-5.0702,-5.0721,-5.0683,-5.0683,-5.0683,-5.0683,-5.0683,-5.0683,-5.0683,-5.0683,-5.0683,-5.0683,-5.0683,-5.0683,-5.0683,-5.0683,-5.0683,-5.0683,-5.0683,-5.0721,-5.0702,-5.0702,-5.0856,-5.0991,-5.1626,-5.1721,-5.172,-5.1738,-5.1736,-5.1501,-5.1037,-5.0877,-5.0893,-5.0909,-5.0893,-5.0877,-5.0877,-5.0874,-5.0909,-5.0909,-5.0909,-5.0906,-5.0906,-5.0906,-5.0906,-5.0906,-5.0906,-5.0906,-5.0906,-5.0906,-5.0906,-5.0906,-5.0906,-5.0906,-5.0906,-5.0906,-5.0906,-5.0906,-5.0906,-5.0906,-5.0906,-5.0906,-5.0906,-5.0906,-5.0906,-5.0906,-5.0906,-5.0906,-5.0906,-5.0906,-5.0906,-5.0906,-5.0906,-5.0906,-5.0906,-4.889,-4.889,-4.889,-4.8962,-4.8962,-4.8996,-4.8978,-4.9046,-4.9098,-4.9168,-4.915,-4.9211,-4.9262,-4.9262,-4.9308,-4.9371,-4.9434,-4.9495,-4.9615,-4.9816,-5.0057,-5.0255,-5.0438,-5.0546,-5.0625,-5.0701,-5.0756,-5.0793,-5.0793,-5.0812,-5.0812,-5.0812,-5.0812,-5.0812,-5.0793,-5.0756,-5.0738,-5.0757,-5.072,-5.074,-5.0759,-5.0759,-5.074,-5.0721,-5.0721,-5.0702,-5.0702,-5.0683,-5.0683,-5.0683,-5.0683,-5.0683,-5.0683,-5.0683,-5.0683,-5.0683,-5.0683,-5.0702,-5.0779,-5.1029,-5.1298,-5.1395,-5.1548,-5.2068,-5.2473,-5.2625,-5.2642,-5.2642,-5.2367,-5.1937,-5.1512,-5.1122,-5.0929,-5.089,-5.0906,-5.0906,-5.0906,-5.089,-5.0906,-5.0906,-5.0906,-5.0906,-5.0906,-5.0906,-5.0906,-5.0906,-5.0906,-5.0906,-5.0906,-5.0906,-5.0906,-5.0906,-5.0906,-5.0906,-5.0906,-5.0906,-5.0906,-5.0906,-5.0906,-5.0906,-5.0906,-5.0906,-5.0906,-5.0906,-5.0906,-5.0906,-5.0906,-5.0906,-5.0906,-5.0906,-5.0906,-5.0906,-5.0906,-5.0906,-5.0906,-4.8925,-4.8925,-4.8925,-4.8996,-4.9101,-4.9083,-4.915,-4.9197,-4.9197,-4.9211,-4.9244,-4.9308,-4.9371,-4.9371,-4.9514,-4.9604,-4.9604,-4.9692,-4.9816,-5.0005,-5.0231,-5.0416,-5.0504,-5.0606,-5.0682,-5.0757,-5.0793,-5.0791,-5.0827,-5.0827,-5.081,-5.0827,-5.0827,-5.081,-5.0808,-5.081,-5.081,-5.081,-5.0793,-5.0775,-5.0794,-5.0794,-5.0794,-5.0775,-5.0757,-5.072,-5.0702,-5.0721,-5.0721,-5.0721,-5.0702,-5.0702,-5.0702,-5.0702,-5.0818,-5.0933,-5.0991,-5.1009,-5.1143,-5.1893,-5.222,-5.2316,-5.2895,-5.3473,-5.3473,-5.3528,-5.3546,-5.3563,-5.2901,-5.255,-5.1989,-5.1409,-5.0983,-5.0906,-5.0906,-5.0906,-5.0906,-5.0906,-5.0906,-5.0906,-5.0906,-5.0906,-5.0906,-5.0906,-5.0906,-5.0906,-5.0906,-5.0906,-5.0906,-5.0906,-5.0906,-5.0906,-5.0906,-5.0906,-5.0906,-5.0906,-5.0906,-5.0906,-5.0906,-5.0906,-5.0906,-5.0906,-5.0906,-5.0906,-5.0906,-5.0906,-5.0906,-5.0906,-5.0906,-5.0906,-5.0906,-5.0906,-5.0906,-5.0906,-5.0906,-4.9146,-4.9164,-4.9146,-4.9146,-4.9164,-4.9146,-4.9197,-4.923,-4.9276,-4.9308,-4.9371,-4.9483,-4.9574,-4.9615,-4.9663,-4.9692,-4.9778,-4.9862,-4.9978,-5.0231,-5.0325,-5.0462,-5.0586,-5.0701,-5.0793,-5.0846,-5.0877,-5.0874,-5.0874,-5.0874,-5.0874,-5.0874,-5.0858,-5.0874,-5.0874,-5.088,-5.0883,-5.0883,-5.0846,-5.081,-5.081,-5.081,-5.081,-5.081,-5.0793,-5.0775,-5.0775,-5.0775,-5.0794,-5.0757,-5.0777,-5.0836,-5.0853,-5.0853,-5.1162,-5.1644,-5.1816,-5.2067,-5.2664,-5.2876,-5.3069,-5.3164,-5.3433,-5.3702,-5.4396,-5.4469,-5.4486,-5.4486,-5.431,-5.342,-5.2221,-5.1389,-5.1003,-5.0906,-5.0906,-5.0906,-5.0906,-5.0906,-5.0906,-5.0906,-5.0906,-5.0906,-5.0906,-5.0906,-5.0906,-5.0906,-5.0906,-5.0906,-5.0906,-5.0906,-5.0906,-5.0906,-5.0906,-5.0906,-5.0906,-5.0906,-5.0906,-5.0906,-5.0906,-5.0906,-5.0906,-5.0906,-5.0906,-5.0906,-5.0906,-5.0906,-5.0941,-5.0941,-5.0941,-5.0925,-5.0906,-5.0925,-5.0941,-5.0925,-5.0906,-4.9197,-4.9197,-4.9197,-4.9211,-4.9244,-4.9244,-4.9308,-4.9371,-4.9402,-4.9464,-4.9555,-4.9663,-4.9721,-4.975,-4.9835,-4.989,-4.9925,-5.0012,-5.0182,-5.0348,-5.044,-5.0566,-5.0644,-5.0756,-5.0863,-5.0916,-5.0893,-5.089,-5.0906,-5.0906,-5.089,-5.0906,-5.0906,-5.089,-5.0906,-5.0893,-5.0913,-5.0913,-5.0877,-5.0841,-5.0841,-5.0841,-5.0844,-5.0827,-5.0846,-5.0846,-5.081,-5.0812,-5.081,-5.0906,-5.1157,-5.1371,-5.1391,-5.1429,-5.1834,-5.2489,-5.27,-5.2873,-5.3317,-5.376,-5.4029,-5.4048,-5.4355,-5.4817,-5.5204,-5.5337,-5.5374,-5.518,-5.4542,-5.3459,-5.1834,-5.1293,-5.0945,-5.0906,-5.0906,-5.0906,-5.0906,-5.0906,-5.0906,-5.0906,-5.0906,-5.0906,-5.0906,-5.0906,-5.0906,-5.0906,-5.0906,-5.0906,-5.0906,-5.0906,-5.0906,-5.0906,-5.0906,-5.0906,-5.0906,-5.0906,-5.0906,-5.0906,-5.0906,-5.0906,-5.0906,-5.0906,-5.0921,-5.0921,-5.0941,-5.0956,-5.0975,-5.0975,-5.099,-5.1005,-5.1005,-5.099,-5.0975,-5.0975,-5.0941,-4.9262,-4.9244,-4.9295,-4.9308,-4.9371,-4.9371,-4.9464,-4.9593,-4.9604,-4.9663,-4.9731,-4.9807,-4.9843,-4.9898,-5.0005,-5.0038,-5.0089,-5.0212,-5.0371,-5.044,-5.0526,-5.0625,-5.0738,-5.0846,-5.088,-5.0897,-5.0909,-5.0906,-5.0906,-5.0906,-5.0906,-5.0906,-5.0906,-5.0906,-5.0906,-5.0906,-5.0909,-5.0909,-5.089,-5.089,-5.089,-5.089,-5.0893,-5.0897,-5.0897,-5.088,-5.0844,-5.0827,-5.0844,-5.0955,-5.1669,-5.2116,-5.2294,-5.2371,-5.27,-5.3452,-5.3604,-5.3797,-5.4143,-5.4566,-5.4967,-5.5006,-5.5509,-5.5896,-5.5935,-5.5896,-5.5877,-5.5393,-5.4619,-5.2995,-5.1351,-5.0983,-5.0945,-5.0906,-5.0906,-5.0906,-5.0906,-5.0906,-5.0906,-5.0906,-5.0906,-5.0906,-5.0906,-5.0906,-5.0906,-5.0906,-5.0906,-5.0906,-5.0906,-5.0906,-5.0906,-5.0906,-5.0906,-5.0906,-5.0906,-5.0906,-5.0906,-5.0906,-5.0906,-5.0906,-5.0906,-5.0956,-5.0971,-5.0956,-5.0956,-5.1005,-5.102,-5.1039,-5.1053,-5.1081,-5.1067,-5.1053,-5.1039,-5.1039,-5.099,-4.9532,-4.9563,-4.9604,-4.9634,-4.9634,-4.9634,-4.9663,-4.9711,-4.975,-4.9788,-4.9871,-5.0005,-5.0082,-5.0139,-5.0188,-5.0278,-5.0348,-5.0418,-5.0483,-5.0546,-5.0625,-5.0701,-5.0829,-5.0883,-5.0897,-5.0909,-5.0906,-5.0906,-5.0906,-5.0906,-5.0906,-5.0906,-5.0906,-5.0906,-5.0906,-5.0906,-5.0906,-5.0906,-5.0906,-5.0906,-5.0906,-5.0906,-5.089,-5.0909,-5.0909,-5.0893,-5.0893,-5.0893,-5.0909,-5.0987,-5.1741,-5.2495,-5.3039,-5.3232,-5.3754,-5.4315,-5.4527,-5.4738,-5.5241,-5.5569,-5.578,-5.5818,-5.5915,-5.5993,-5.6012,-5.5973,-5.5896,-5.5374,-5.4387,-5.2995,-5.2105,-5.1273,-5.0945,-5.0906,-5.0906,-5.0906,-5.0906,-5.0906,-5.0906,-5.0906,-5.0906,-5.0906,-5.0906,-5.0906,-5.0906,-5.0906,-5.0906,-5.0906,-5.0906,-5.0906,-5.0906,-5.0906,-5.0906,-5.0906,-5.0906,-5.0906,-5.0906,-5.0925,-5.0941,-5.0937,-5.0956,-5.0971,-5.0986,-5.1,-5.1034,-5.1048,-5.1067,-5.1101,-5.1114,-5.1127,-5.1114,-5.1101,-5.1081,-5.1048,-5.1067,-4.9663,-4.9711,-4.9731,-4.9778,-4.9807,-4.9788,-4.9835,-4.989,-4.9925,-5.0005,-5.0063,-5.0163,-5.0278,-5.0325,-5.0416,-5.0481,-5.0565,-5.0566,-5.0645,-5.0701,-5.0757,-5.0812,-5.0899,-5.0897,-5.0893,-5.0909,-5.0906,-5.0906,-5.0906,-5.0906,-5.0906,-5.0906,-5.0906,-5.0906,-5.0906,-5.0906,-5.0906,-5.0906,-5.0906,-5.0906,-5.0906,-5.0906,-5.0906,-5.0906,-5.0906,-5.0906,-5.0906,-5.0906,-5.0906,-5.1157,-5.2163,-5.2956,-5.3575,-5.4291,-5.4948,-5.5296,-5.5393,-5.5528,-5.5935,-5.6012,-5.5973,-5.5993,-5.6012,-5.6012,-5.6012,-5.5954,-5.5606,-5.4639,-5.371,-5.2472,-5.1544,-5.1138,-5.0964,-5.0906,-5.0906,-5.0906,-5.0906,-5.0906,-5.0906,-5.0906,-5.0906,-5.0906,-5.0906,-5.0906,-5.0906,-5.0906,-5.0906,-5.0906,-5.0906,-5.0906,-5.0906,-5.0906,-5.0906,-5.0925,-5.0925,-5.0925,-5.0941,-5.0956,-5.0956,-5.0971,-5.1,-5.1015,-5.1042,-5.1056,-5.1089,-5.1108,-5.1121,-5.1134,-5.1153,-5.1153,-5.1153,-5.1134,-5.1102,-5.1089,-5.1089,-4.9759,-4.9835,-4.9862,-4.9898,-4.9978,-4.9978,-5.0005,-5.0082,-5.0133,-5.0163,-5.0255,-5.0371,-5.0438,-5.0481,-5.0565,-5.0664,-5.0739,-5.0739,-5.0738,-5.0829,-5.0866,-5.0899,-5.0897,-5.0893,-5.089,-5.089,-5.0906,-5.0906,-5.0906,-5.0906,-5.0906,-5.0906,-5.0906,-5.0906,-5.0906,-5.0906,-5.0906,-5.0906,-5.0906,-5.0906,-5.0906,-5.0906,-5.0906,-5.0906,-5.0906,-5.0906,-5.0906,-5.0906,-5.0906,-5.1293,-5.2202,-5.3285,-5.3691,-5.4929,-5.5799,-5.5973,-5.6012,-5.6012,-5.6012,-5.6012,-5.6012,-5.6012,-5.6012,-5.6012,-5.5915,-5.5664,-5.5045,-5.3536,-5.2705,-5.1912,-5.1215,-5.0925,-5.0906,-5.0906,-5.0906,-5.0906,-5.0906,-5.0906,-5.0906,-5.0906,-5.0906,-5.0906,-5.0906,-5.0906,-5.0906,-5.0906,-5.0906,-5.0906,-5.0906,-5.0906,-5.0906,-5.0906,-5.0906,-5.0925,-5.0941,-5.0941,-5.099,-5.1005,-5.1039,-5.1053,-5.1062,-5.1069,-5.1082,-5.1127,-5.1139,-5.1152,-5.1152,-5.1163,-5.1175,-5.1175,-5.1194,-5.1194,-5.1144,-5.1144,-5.1144,-4.9906,-4.9978,-5.0031,-5.0108,-5.0163,-5.0182,-5.0207,-5.0278,-5.0325,-5.0348,-5.0412,-5.0506,-5.0567,-5.0606,-5.072,-5.0775,-5.0793,-5.0793,-5.081,-5.0899,-5.0899,-5.0897,-5.0909,-5.0909,-5.0906,-5.0906,-5.0906,-5.0906,-5.0906,-5.0906,-5.0906,-5.0906,-5.0906,-5.0906,-5.0906,-5.0906,-5.0906,-5.0906,-5.0906,-5.0906,-5.0906,-5.0906,-5.0906,-5.0906,-5.0906,-5.0906,-5.0906,-5.0906,-5.0906,-5.1022,-5.1815,-5.2724,-5.3478,-5.4368,-5.5258,-5.576,-5.6012,-5.6012,-5.6012,-5.6012,-5.6012,-5.6012,-5.6012,-5.6012,-5.5722,-5.5064,-5.4097,-5.255,-5.2182,-5.1776,-5.108,-5.0925,-5.0906,-5.0906,-5.0906,-5.0906,-5.0906,-5.0906,-5.0906,-5.0906,-5.0906,-5.0906,-5.0906,-5.0906,-5.0906,-5.0906,-5.0906,-5.0906,-5.0906,-5.0906,-5.0906,-5.0906,-5.0941,-5.0941,-5.0956,-5.099,-5.102,-5.1067,-5.1081,-5.1101,-5.1121,-5.1127,-5.1152,-5.1163,-5.1186,-5.1197,-5.1208,-5.12,-5.121,-5.121,-5.1219,-5.121,-5.1201,-5.119,-5.118,-5.0082,-5.0163,-5.0207,-5.0278,-5.0371,-5.0371,-5.0393,-5.0459,-5.0483,-5.0545,-5.0586,-5.0664,-5.0739,-5.0775,-5.0846,-5.0863,-5.0841,-5.0841,-5.0877,-5.0913,-5.0913,-5.0909,-5.0909,-5.0906,-5.0906,-5.0906,-5.0906,-5.0906,-5.0906,-5.0906,-5.0906,-5.0906,-5.0906,-5.0906,-5.0906,-5.0906,-5.0906,-5.0906,-5.0906,-5.0906,-5.0906,-5.0906,-5.0906,-5.0906,-5.0906,-5.0906,-5.0906,-5.0906,-5.0906,-5.1061,-5.1718,-5.2318,-5.3014,-5.3962,-5.5006,-5.5238,-5.578,-5.5973,-5.6012,-5.5993,-5.6012,-5.5993,-5.5954,-5.5799,-5.5238,-5.4136,-5.3207,-5.2337,-5.1738,-5.1293,-5.1022,-5.0925,-5.0906,-5.0906,-5.0906,-5.0906,-5.0906,-5.0906,-5.0906,-5.0906,-5.0906,-5.0906,-5.0906,-5.0906,-5.0906,-5.0906,-5.0906,-5.0906,-5.0906,-5.0906,-5.0906,-5.0906,-5.0941,-5.099,-5.1005,-5.102,-5.1062,-5.1108,-5.1089,-5.1121,-5.1146,-5.1171,-5.1194,-5.1197,-5.12,-5.121,-5.123,-5.123,-5.1211,-5.1211,-5.1211,-5.122,-5.122,-5.1211,-5.1201,-5.0188,-5.0348,-5.0306,-5.0393,-5.0504,-5.0504,-5.0565,-5.0644,-5.0645,-5.0663,-5.072,-5.0793,-5.0863,-5.0897,-5.0897,-5.0893,-5.089,-5.0906,-5.0906,-5.0906,-5.0906,-5.089,-5.0906,-5.0906,-5.0906,-5.0906,-5.0906,-5.0906,-5.0906,-5.0906,-5.0906,-5.0906,-5.0906,-5.0906,-5.0906,-5.0906,-5.0906,-5.0906,-5.0906,-5.0906,-5.0906,-5.0906,-5.0906,-5.0906,-5.0906,-5.0906,-5.0906,-5.0906,-5.0906,-5.1041,-5.1409,-5.1892,-5.2434,-5.3265,-5.4078,-5.4426,-5.4909,-5.5122,-5.5335,-5.5567,-5.5915,-5.5954,-5.5606,-5.5161,-5.4058,-5.2801,-5.1989,-5.1815,-5.137,-5.1022,-5.0906,-5.0906,-5.0906,-5.0906,-5.0906,-5.0906,-5.0906,-5.0906,-5.0906,-5.0906,-5.0906,-5.0906,-5.0906,-5.0906,-5.0906,-5.0906,-5.0906,-5.0906,-5.0906,-5.0906,-5.0906,-5.0906,-5.0956,-5.1005,-5.1034,-5.1048,-5.1108,-5.1134,-5.1127,-5.1146,-5.1171,-5.1202,-5.1194,-5.1208,-5.121,-5.124,-5.1258,-5.123,-5.121,-5.1239,-5.1248,-5.1239,-5.123,-5.123,-5.123,-5.0325,-5.0459,-5.0393,-5.0462,-5.0606,-5.0606,-5.0663,-5.0775,-5.0775,-5.0793,-5.081,-5.0863,-5.0897,-5.0909,-5.0909,-5.0909,-5.0906,-5.0906,-5.0906,-5.0906,-5.0906,-5.0906,-5.0906,-5.0906,-5.0906,-5.0906,-5.0906,-5.0906,-5.0906,-5.0906,-5.0906,-5.0906,-5.0906,-5.0906,-5.0906,-5.0906,-5.0906,-5.0906,-5.0906,-5.0906,-5.0906,-5.0906,-5.0906,-5.0906,-5.0906,-5.0906,-5.0906,-5.0906,-5.0906,-5.0906,-5.1099,-5.1428,-5.197,-5.2511,-5.3072,-5.3536,-5.3904,-5.4078,-5.4252,-5.5026,-5.578,-5.5741,-5.5161,-5.4136,-5.2975,-5.2492,-5.1834,-5.1235,-5.1003,-5.0945,-5.0906,-5.0906,-5.0906,-5.0906,-5.0906,-5.0906,-5.0906,-5.0906,-5.0906,-5.0906,-5.0906,-5.0906,-5.0906,-5.0906,-5.0906,-5.0906,-5.0906,-5.0906,-5.0906,-5.0906,-5.0906,-5.0906,-5.0956,-5.102,-5.1067,-5.1095,-5.1114,-5.1146,-5.1178,-5.119,-5.1202,-5.1214,-5.1214,-5.1208,-5.122,-5.1258,-5.1276,-5.1267,-5.1267,-5.1284,-5.1292,-5.1284,-5.1256,-5.1256,-5.1273,-5.0325,-5.05,-5.0459,-5.0544,-5.0644,-5.0664,-5.0757,-5.0846,-5.0863,-5.0863,-5.0877,-5.0893,-5.0909,-5.089,-5.0906,-5.0906,-5.0906,-5.0906,-5.0906,-5.0906,-5.0906,-5.0906,-5.0906,-5.0906,-5.0906,-5.0906,-5.0906,-5.0906,-5.0906,-5.0906,-5.0906,-5.0906,-5.0906,-5.0906,-5.0906,-5.0906,-5.0906,-5.0906,-5.0906,-5.0906,-5.0906,-5.0906,-5.0906,-5.0906,-5.0906,-5.0906,-5.0906,-5.0906,-5.0906,-5.0906,-5.0906,-5.1177,-5.1486,-5.1873,-5.2298,-5.2724,-5.3053,-5.3304,-5.3401,-5.4078,-5.4426,-5.4291,-5.3672,-5.2898,-5.2105,-5.1776,-5.137,-5.1003,-5.0906,-5.0906,-5.0906,-5.0906,-5.0906,-5.0906,-5.0906,-5.0906,-5.0906,-5.0906,-5.0906,-5.0906,-5.0906,-5.0906,-5.0906,-5.0906,-5.0906,-5.0906,-5.0906,-5.0906,-5.0906,-5.0906,-5.0906,-5.0925,-5.0956,-5.102,-5.1067,-5.1089,-5.1127,-5.1159,-5.119,-5.119,-5.119,-5.1202,-5.1214,-5.1208,-5.121,-5.123,-5.1249,-5.1287,-5.1304,-5.1312,-5.1292,-5.13,-5.13,-5.13,-5.1308,-5.0141,-5.0521,-5.0542,-5.0606,-5.072,-5.072,-5.0793,-5.088,-5.0897,-5.0913,-5.0906,-5.0906,-5.0906,-5.0906,-5.0906,-5.0906,-5.0906,-5.0906,-5.0906,-5.0906,-5.0906,-5.0906,-5.0906,-5.0906,-5.0906,-5.0906,-5.0906,-5.0906,-5.0906,-5.0906,-5.0906,-5.0906,-5.0906,-5.0906,-5.0906,-5.0906,-5.0906,-5.0906,-5.0906,-5.0906,-5.0906,-5.0906,-5.0906,-5.0906,-5.0906,-5.0906,-5.0906,-5.0906,-5.0906,-5.0906,-5.0906,-5.0906,-5.1138,-5.1409,-5.1738,-5.2028,-5.2318,-5.2724,-5.2801,-5.3285,-5.3323,-5.3188,-5.2763,-5.2221,-5.1718,-5.1254,-5.1003,-5.0945,-5.0906,-5.0906,-5.0906,-5.0906,-5.0906,-5.0906,-5.0906,-5.0906,-5.0906,-5.0906,-5.0906,-5.0906,-5.0906,-5.0906,-5.0906,-5.0906,-5.0906,-5.0906,-5.0906,-5.0906,-5.0906,-5.0906,-5.0906,-5.0941,-5.0956,-5.1005,-5.1053,-5.1095,-5.1108,-5.1121,-5.1153,-5.1166,-5.1178,-5.1178,-5.1202,-5.1208,-5.12,-5.121,-5.122,-5.1249,-5.1287,-5.1304,-5.1292,-5.1292,-5.13,-5.13,-5.1308,-4.9735,-5.0565,-5.0567,-5.0644,-5.0793,-5.0793,-5.0844,-5.0909,-5.0909,-5.0909,-5.0906,-5.0906,-5.0906,-5.0906,-5.0906,-5.0906,-5.0906,-5.0906,-5.0906,-5.0906,-5.0906,-5.0906,-5.0906,-5.0906,-5.0906,-5.0906,-5.0906,-5.0906,-5.0906,-5.0906,-5.0906,-5.0906,-5.0906,-5.0906,-5.0906,-5.0906,-5.0906,-5.0906,-5.0906,-5.0906,-5.0906,-5.0906,-5.0906,-5.0906,-5.0906,-5.0906,-5.0906,-5.0906,-5.0906,-5.0906,-5.0906,-5.0906,-5.0983,-5.1003,-5.1119,-5.1138,-5.1119,-5.1157,-5.1138,-5.2589,-5.2782,-5.2337,-5.195,-5.1738,-5.1196,-5.0906,-5.0906,-5.0906,-5.0906,-5.0906,-5.0906,-5.0906,-5.0906,-5.0906,-5.0906,-5.0906,-5.0906,-5.0906,-5.0906,-5.0906,-5.0906,-5.0906,-5.0906,-5.0906,-5.0906,-5.0906,-5.0906,-5.0906,-5.0906,-5.0906,-5.0906,-5.0906,-5.0956,-5.0971,-5.102,-5.1067,-5.1101,-5.1101,-5.1114,-5.114,-5.1134,-5.1134,-5.1152,-5.1186,-5.1178,-5.1167,-5.118,-5.1211,-5.1249,-5.1267,-5.1284,-5.1284,-5.1292,-5.1292,-5.1273,-4.895,-4.9817,-4.9817,-5.02,-5.0808,-5.0863,-5.0897,-5.0909,-5.0906,-5.0906,-5.0906,-5.0906,-5.0906,-5.0906,-5.0906,-5.0906,-5.0906,-5.0906,-5.0906,-5.0906,-5.0906,-5.0906,-5.0906,-5.0906,-5.0906,-5.0906,-5.0906,-5.0906,-5.0906,-5.0906,-5.0906,-5.0906,-5.0906,-5.0906,-5.0906,-5.0906,-5.0906,-5.0906,-5.0906,-5.0906,-5.0906,-5.0906,-5.0906,-5.0906,-5.0906,-5.0906,-5.0906,-5.0906,-5.0906,-5.0906,-5.0906,-5.0906,-5.0906,-5.0906,-5.0906,-5.0906,-5.0906,-5.0906,-5.0945,-5.1563,-5.1621,-5.1447,-5.1389,-5.1273,-5.0925,-5.0906,-5.0906,-5.0906,-5.0906,-5.0906,-5.0906,-5.0906,-5.0906,-5.0906,-5.0906,-5.0906,-5.0906,-5.0906,-5.0906,-5.0906,-5.0906,-5.0906,-5.0906,-5.0906,-5.0906,-5.0906,-5.0906,-5.0906,-5.0906,-5.0906,-5.0906,-5.0906,-5.0906,-5.0956,-5.0986,-5.102,-5.1053,-5.1053,-5.1087,-5.1114,-5.1095,-5.1075,-5.1089,-5.1146,-5.112,-5.1113,-5.1156,-5.1178,-5.119,-5.122,-5.124,-5.123,-5.1248,-5.1239,-5.123,-4.8183,-4.8988,-4.9025,-4.956,-5.0436,-5.0764,-5.0897,-5.0909,-5.0906,-5.0906,-5.0906,-5.0906,-5.0906,-5.0906,-5.0906,-5.0906,-5.0906,-5.0906,-5.0906,-5.0906,-5.0906,-5.0906,-5.0906,-5.0906,-5.0906,-5.0906,-5.0906,-5.0906,-5.0906,-5.0906,-5.0906,-5.0906,-5.0906,-5.0906,-5.0906,-5.0906,-5.0906,-5.0906,-5.0906,-5.0906,-5.0906,-5.0906,-5.0906,-5.0906,-5.0906,-5.0906,-5.0906,-5.0906,-5.0906,-5.0906,-5.0906,-5.0906,-5.0906,-5.0906,-5.0906,-5.0906,-5.0906,-5.0906,-5.0945,-5.0964,-5.1099,-5.1022,-5.0906,-5.0906,-5.0906,-5.0906,-5.0906,-5.0906,-5.0906,-5.0906,-5.0906,-5.0906,-5.0906,-5.0906,-5.0906,-5.0906,-5.0906,-5.0906,-5.0906,-5.0906,-5.0906,-5.0906,-5.0906,-5.0906,-5.0906,-5.0906,-5.0906,-5.0906,-5.0906,-5.0906,-5.0906,-5.0906,-5.0906,-5.0921,-5.0956,-5.0956,-5.099,-5.102,-5.1039,-5.1053,-5.1067,-5.1048,-5.1067,-5.1101,-5.1108,-5.1102,-5.1114,-5.1139,-5.1144,-5.1156,-5.1175,-5.1178,-5.1201,-5.1201,-5.119,-4.7458,-4.8208,-4.8257,-4.8775,-4.9605,-5.0417,-5.0835,-5.0906,-5.0906,-5.0906,-5.0906,-5.0906,-5.0906,-5.0906,-5.0906,-5.0906,-5.0906,-5.0906,-5.0906,-5.0906,-5.0906,-5.0906,-5.0906,-5.0906,-5.0906,-5.0906,-5.0906,-5.0906,-5.0906,-5.0906,-5.0906,-5.0906,-5.0906,-5.0906,-5.0906,-5.0906,-5.0906,-5.0906,-5.0906,-5.0906,-5.0906,-5.0906,-5.0906,-5.0906,-5.0906,-5.0906,-5.0906,-5.0906,-5.0906,-5.0906,-5.0906,-5.0906,-5.0906,-5.0906,-5.0906,-5.0906,-5.0906,-5.0906,-5.0906,-5.0906,-5.0906,-5.0906,-5.0906,-5.0906,-5.0906,-5.0906,-5.0906,-5.0906,-5.0906,-5.0906,-5.0906,-5.0906,-5.0906,-5.0906,-5.0906,-5.0906,-5.0906,-5.0906,-5.0906,-5.0906,-5.0906,-5.0906,-5.0906,-5.0906,-5.0906,-5.0906,-5.0906,-5.0906,-5.0906,-5.0906,-5.0906,-5.0906,-5.0906,-5.0906,-5.0906,-5.0921,-5.0941,-5.0956,-5.0956,-5.0956,-5.099,-5.1005,-5.1005,-5.102,-5.1067,-5.1101,-5.1095,-5.1095,-5.1095,-5.1108,-5.1134,-5.1127,-5.1156,-5.1159,-5.1159,-4.6603,-4.7426,-4.7461,-4.794,-4.8802,-4.9691,-5.0368,-5.0867,-5.0906,-5.0906,-5.0906,-5.0906,-5.0906,-5.0906,-5.0906,-5.0906,-5.0906,-5.0906,-5.0906,-5.0906,-5.0906,-5.0906,-5.0906,-5.0906,-5.0906,-5.0906,-5.0906,-5.0906,-5.0906,-5.0906,-5.0906,-5.0906,-5.0906,-5.0906,-5.0906,-5.0906,-5.0906,-5.0906,-5.0906,-5.0906,-5.0906,-5.0906,-5.0906,-5.0906,-5.0906,-5.0906,-5.0906,-5.0906,-5.0906,-5.0906,-5.0906,-5.0906,-5.0906,-5.0906,-5.0906,-5.0906,-5.0906,-5.0906,-5.0906,-5.0906,-5.0906,-5.0906,-5.0906,-5.0906,-5.0906,-5.0906,-5.0906,-5.0906,-5.0906,-5.0906,-5.0906,-5.0906,-5.0906,-5.0906,-5.0906,-5.0906,-5.0906,-5.0906,-5.0906,-5.0906,-5.0906,-5.0906,-5.0906,-5.0906,-5.0906,-5.0906,-5.0906,-5.0906,-5.0906,-5.0906,-5.0906,-5.0906,-5.0906,-5.0906,-5.0906,-5.0906,-5.0906,-5.0906,-5.0906,-5.0906,-5.0941,-5.0956,-5.0921,-5.0956,-5.1005,-5.1053,-5.1101,-5.1067,-5.1053,-5.1087,-5.1095,-5.1108,-5.1121,-5.1127,-5.1132,-4.607,-4.6564,-4.6602,-4.71,-4.7947,-4.8817,-4.9649,-5.0384,-5.0751,-5.0906,-5.0906,-5.0906,-5.0906,-5.0906,-5.0906,-5.0906,-5.0906,-5.0906,-5.0906,-5.0906,-5.0906,-5.0906,-5.0906,-5.0906,-5.0906,-5.0906,-5.0906,-5.0906,-5.0906,-5.0906,-5.0906,-5.0906,-5.0906,-5.0906,-5.0906,-5.0906,-5.0906,-5.0906,-5.0906,-5.0906,-5.0906,-5.0906,-5.0906,-5.0906,-5.0906,-5.0906,-5.0906,-5.0906,-5.0906,-5.0906,-5.0906,-5.0906,-5.0906,-5.0906,-5.0906,-5.0906,-5.0906,-5.0906,-5.0906,-5.0906,-5.0906,-5.0906,-5.0906,-5.0906,-5.0906,-5.0906,-5.0906,-5.0906,-5.0906,-5.0906,-5.0906,-5.0906,-5.0906,-5.0906,-5.0906,-5.0906,-5.0906,-5.0906,-5.0906,-5.0906,-5.0906,-5.0906,-5.0906,-5.0906,-5.0906,-5.0906,-5.0906,-5.0906,-5.0906,-5.0906,-5.0906,-5.0906,-5.0906,-5.0906,-5.0906,-5.0906,-5.0906,-5.0906,-5.0906,-5.0906,-5.0906,-5.0906,-5.0906,-5.0921,-5.0941,-5.099,-5.102,-5.1005,-5.1005,-5.102,-5.1039,-5.102,-5.1034,-5.1081,-5.1075,-4.5819,-4.5838,-4.58,-4.6303,-4.7057,-4.7927,-4.874,-4.9571,-5.0345,-5.0848,-5.0887,-5.0906,-5.0906,-5.0906,-5.0906,-5.0906,-5.0906,-5.0906,-5.0906,-5.0906,-5.0906,-5.0906,-5.0906,-5.0906,-5.0906,-5.0906,-5.0906,-5.0906,-5.0906,-5.0906,-5.0906,-5.0906,-5.0906,-5.0906,-5.0906,-5.0906,-5.0906,-5.0906,-5.0906,-5.0906,-5.0906,-5.0906,-5.0906,-5.0906,-5.0906,-5.0906,-5.0906,-5.0906,-5.0906,-5.0906,-5.0906,-5.0906,-5.0906,-5.0906,-5.0906,-5.0906,-5.0906,-5.0906,-5.0906,-5.0906,-5.0906,-5.0906,-5.0906,-5.0906,-5.0906,-5.0906,-5.0906,-5.0906,-5.0906,-5.0906,-5.0906,-5.0906,-5.0906,-5.0906,-5.0906,-5.0906,-5.0906,-5.0906,-5.0906,-5.0906,-5.0906,-5.0906,-5.0906,-5.0906,-5.0906,-5.0906,-5.0906,-5.0906,-5.0906,-5.0906,-5.0906,-5.0906,-5.0906,-5.0906,-5.0906,-5.0906,-5.0906,-5.0906,-5.0906,-5.0906,-5.0906,-5.0906,-5.0906,-5.0906,-5.0925,-5.0906,-5.0941,-5.0941,-5.0941,-5.0941,-5.0941,-5.0925,-5.0941,-5.1005,-5.1039,-4.58,-4.58,-4.58,-4.5935,-4.6225,-4.7038,-4.7521,-4.7869,-4.9359,-5.0306,-5.0828,-5.0906,-5.0906,-5.0906,-5.0906,-5.0906,-5.0906,-5.0906,-5.0906,-5.0906,-5.0906,-5.0906,-5.0906,-5.0906,-5.0906,-5.0906,-5.0906,-5.0906,-5.0906,-5.0906,-5.0906,-5.0906,-5.0906,-5.0906,-5.0906,-5.0906,-5.0906,-5.0906,-5.0906,-5.0906,-5.0906,-5.0906,-5.0906,-5.0906,-5.0906,-5.0906,-5.0906,-5.0906,-5.0906,-5.0906,-5.0906,-5.0906,-5.0906,-5.0906,-5.0906,-5.0906,-5.0906,-5.0906,-5.0906,-5.0906,-5.0906,-5.0906,-5.0906,-5.0906,-5.0906,-5.0906,-5.0906,-5.0906,-5.0906,-5.0906,-5.0906,-5.0906,-5.0906,-5.0906,-5.0906,-5.0906,-5.0906,-5.0906,-5.0906,-5.0906,-5.0906,-5.0906,-5.0906,-5.0906,-5.0906,-5.0906,-5.0906,-5.0906,-5.0906,-5.0906,-5.0906,-5.0906,-5.0906,-5.0906,-5.0906,-5.0906,-5.0906,-5.0906,-5.0906,-5.0906,-5.0906,-5.0906,-5.0906,-5.0906,-5.0906,-5.0906,-5.0906,-5.0906,-5.0906,-5.0906,-5.0906,-5.0906,-5.0906,-5.0956,-5.0941,-4.58,-4.58,-4.58,-4.58,-4.5896,-4.6322,-4.6728,-4.725,-4.814,-4.9243,-5.0364,-5.0712,-5.0906,-5.0906,-5.0906,-5.0906,-5.0906,-5.0906,-5.0906,-5.0906,-5.0906,-5.0906,-5.0906,-5.0906,-5.0906,-5.0906,-5.0906,-5.0906,-5.0906,-5.0906,-5.0906,-5.0906,-5.0906,-5.0906,-5.0906,-5.0906,-5.0906,-5.0906,-5.0906,-5.0906,-5.0906,-5.0906,-5.0906,-5.0906,-5.0906,-5.0906,-5.0906,-5.0906,-5.0906,-5.0906,-5.0906,-5.0906,-5.0906,-5.0906,-5.0906,-5.0906,-5.0906,-5.0906,-5.0906,-5.0906,-5.0906,-5.0906,-5.0906,-5.0906,-5.0906,-5.0906,-5.0906,-5.0906,-5.0906,-5.0906,-5.0906,-5.0906,-5.0906,-5.0906,-5.0906,-5.0906,-5.0906,-5.0906,-5.0906,-5.0906,-5.0906,-5.0906,-5.0906,-5.0906,-5.0906,-5.0906,-5.0906,-5.0906,-5.0906,-5.0906,-5.0906,-5.0906,-5.0906,-5.0906,-5.0906,-5.0906,-5.0906,-5.0906,-5.0906,-5.0906,-5.0906,-5.0906,-5.0906,-5.0906,-5.0906,-5.0906,-5.0906,-5.0906,-5.0906,-5.0906,-5.0906,-5.0906,-5.0906,-5.0906,-5.0906,-4.58,-4.58,-4.58,-4.58,-4.58,-4.5819,-4.6225,-4.6864,-4.7096,-4.7966,-4.932,-5.0287,-5.0732,-5.0887,-5.0906,-5.0906,-5.0906,-5.0906,-5.0906,-5.0906,-5.0906,-5.0906,-5.0906,-5.0906,-5.0906,-5.0906,-5.0906,-5.0906,-5.0906,-5.0906,-5.0906,-5.0906,-5.0906,-5.0906,-5.0906,-5.0906,-5.0906,-5.0906,-5.0906,-5.0906,-5.0906,-5.0906,-5.0906,-5.0906,-5.0906,-5.0906,-5.0906,-5.0906,-5.0906,-5.0906,-5.0906,-5.0906,-5.0906,-5.0906,-5.0906,-5.0906,-5.0906,-5.0906,-5.0906,-5.0906,-5.0906,-5.0906,-5.0906,-5.0906,-5.0906,-5.0906,-5.0906,-5.0906,-5.0906,-5.0906,-5.0906,-5.0906,-5.0906,-5.0906,-5.0906,-5.0906,-5.0906,-5.0906,-5.0906,-5.0906,-5.0906,-5.0906,-5.0906,-5.0906,-5.0906,-5.0906,-5.0906,-5.0906,-5.0906,-5.0906,-5.0906,-5.0906,-5.0906,-5.0906,-5.0906,-5.0906,-5.0906,-5.0906,-5.0906,-5.0906,-5.0906,-5.0906,-5.0906,-5.0906,-5.0906,-5.0906,-5.0906,-5.0906,-5.0906,-5.0906,-5.0906,-5.0906,-5.0906,-5.0906,-5.0906,-4.58,-4.58,-4.58,-4.58,-4.58,-4.58,-4.5896,-4.6148,-4.682,-4.7347,-4.8019,-4.9301,-5.0229,-5.0906,-5.0906,-5.0906,-5.0906,-5.0906,-5.0906,-5.0906,-5.0906,-5.0906,-5.0906,-5.0906,-5.0906,-5.0906,-5.0906,-5.0906,-5.0906,-5.0906,-5.0906,-5.0906,-5.0906,-5.0906,-5.0906,-5.0906,-5.0906,-5.0906,-5.0906,-5.0906,-5.0906,-5.0906,-5.0906,-5.0906,-5.0906,-5.0906,-5.0906,-5.0906,-5.0906,-5.0906,-5.0906,-5.0906,-5.0906,-5.0906,-5.0906,-5.0906,-5.0906,-5.0906,-5.0906,-5.0906,-5.0906,-5.0906,-5.0906,-5.0906,-5.0906,-5.0906,-5.0906,-5.0906,-5.0906,-5.0906,-5.0906,-5.0906,-5.0906,-5.0906,-5.0906,-5.0906,-5.0906,-5.0906,-5.0906,-5.0906,-5.0906,-5.0906,-5.0906,-5.0906,-5.0906,-5.0906,-5.0906,-5.0906,-5.0906,-5.0906,-5.0906,-5.0906,-5.0906,-5.0906,-5.0906,-5.0906,-5.0906,-5.0906,-5.0906,-5.0906,-5.0906,-5.0906,-5.0906,-5.0906,-5.0906,-5.0906,-5.0906,-5.0906,-5.0906,-5.0906,-5.0906,-5.0906,-5.0906,-5.0906,-5.0906]}]]